GFSMA_sfc_30mbdewp_000.txt.gz
Dewpoint
61 61 61 60 58 57 53 46 45 45 44 44 43 44 45 47 47 51 51 51 54 57 58 57 58 58 60 60 60 61 61 61 61 62 62 62 63 63 62 62 62 63 62
61 55 44 45 47 45 43 41 40 39 38 40 38 39 39 40 42 41 45 47 49 51 51 48 49 54 58 57 56 58 58 58 59 60 60 60 60 61 62 63 63 62 62
45 42 40 41 43 41 38 36 33 32 35 35 34 35 35 32 37 39 43 39 42 42 45 45 51 41 45 44 46 48 52 53 53 53 53 56 57 58 60 60 61 62 62
41 38 37 37 39 35 33 32 30 29 32 31 30 31 30 32 36 35 33 33 38 39 38 45 36 35 35 38 43 42 43 44 48 49 51 54 55 56 56 57 58 59 60
36 34 33 35 34 31 29 29 26 29 30 28 29 31 26 31 35 25 27 31 35 33 33 37 34 35 35 37 35 38 39 38 40 42 44 44 47 50 52 53 55 56 56
31 30 29 31 30 27 28 28 25 27 30 30 31 26 25 34 29 18 25 28 29 25 33 25 29 28 35 31 33 34 35 38 42 43 42 45 46 47 49 49 50 51 53
27 27 27 28 29 26 27 28 27 26 28 30 29 25 29 29 23 17 25 19 25 18 27 22 28 26 27 31 26 29 32 33 36 40 41 41 43 43 43 44 45 46 49
26 26 26 27 27 25 23 25 26 24 28 30 26 28 23 24 23 19 23 23 19 24 24 23 27 28 25 23 24 27 26 33 36 36 38 38 38 40 40 42 43 43 47
24 25 25 24 25 24 21 23 22 22 20 25 26 23 21 22 21 24 19 21 19 24 20 26 24 25 22 18 23 22 30 31 32 34 37 37 38 38 38 38 38 39 42
22 23 23 22 22 22 19 20 21 20 20 17 23 25 25 25 19 17 21 18 22 18 23 24 25 25 19 21 20 25 26 27 28 32 35 36 36 36 36 36 38 37 38
20 20 20 19 19 20 18 17 17 15 19 18 20 21 20 22 21 19 15 18 17 18 22 23 24 21 20 19 22 24 23 26 32 32 33 33 32 34 35 35 34 34 35
19 17 17 17 16 16 16 16 16 14 14 16 17 17 19 18 16 17 16 17 14 16 19 19 21 19 21 22 22 22 26 27 28 28 29 30 31 31 31 31 31 31 32
15 15 15 13 14 13 14 14 13 13 14 14 14 15 18 18 19 21 18 13 12 16 17 17 17 20 21 19 23 25 24 23 23 25 26 28 28 28 29 29 29 31 33
14 14 13 12 11 11 11 11 13 13 13 14 13 14 16 17 19 19 16 16 16 15 15 17 19 19 19 24 22 21 20 21 21 22 24 26 26 26 27 27 27 30 30
12 11 11 10 10 10 11 11 13 12 13 14 14 14 14 16 16 16 18 19 19 18 18 17 17 19 21 21 19 19 21 22 22 24 24 24 25 26 27 27 28 27 29
9 9 9 10 10 11 12 12 13 14 13 13 13 13 15 17 18 19 20 21 22 21 18 20 19 19 19 19 21 22 23 24 25 24 23 22 22 23 26 25 26 30 28
9 9 10 11 11 12 12 13 13 14 13 13 13 15 18 20 20 21 22 22 21 21 21 20 20 21 22 23 24 24 25 27 26 22 21 22 22 23 25 24 22 22 23
10 10 11 12 12 13 14 14 14 14 14 14 14 18 20 20 20 22 22 22 22 22 21 21 23 25 25 25 26 29 26 23 21 20 20 21 20 20 20 20 22 22 29
11 12 12 12 13 14 15 15 15 15 15 15 17 19 21 20 20 22 22 22 23 23 24 23 21 22 22 28 24 20 18 17 16 17 19 20 21 21 23 25 31 25 21
11 12 12 13 13 14 14 14 16 16 17 18 19 21 21 20 21 22 21 21 20 20 20 21 25 24 28 23 19 16 15 17 17 20 22 23 23 23 23 21 21 21 23
12 11 12 13 14 13 11 18 18 17 17 17 18 20 20 21 21 21 20 20 21 23 27 27 22 24 23 17 16 17 17 17 20 26 20 19 21 21 20 21 21 22 23
10 12 13 13 13 12 16 17 18 16 15 15 17 19 20 22 22 21 22 21 22 22 22 24 26 22 18 17 18 18 20 23 16 18 18 19 20 20 21 22 22 22 21
12 14 14 13 12 12 15 17 18 17 15 17 19 20 20 20 22 22 23 23 23 23 29 22 20 19 19 20 25 22 20 20 20 20 20 20 20 19 20 19 20 21 21
13 14 13 13 12 11 15 17 20 19 18 18 19 19 20 21 22 21 20 22 28 24 20 18 18 22 25 20 17 18 23 23 22 20 18 18 18 17 18 19 21 22 22
13 13 13 12 11 12 14 18 20 20 19 19 19 20 21 21 22 21 27 27 18 15 15 21 23 18 17 17 19 23 21 19 16 16 16 17 18 19 19 19 20 22 23
13 13 11 11 12 10 14 18 20 19 19 19 20 22 23 21 23 30 20 16 15 15 21 18 15 15 16 17 19 20 23 18 17 16 15 18 19 20 19 19 21 21 22

GFSMA_sfc_30mbdewp_003.txt.gz
Dewpoint
61 61 57 51 48 46 43 40 39 36 36 35 34 36 36 37 36 42 46 46 52 50 48 50 54 55 53 54 55 57 59 58 59 59 59 59 60 60 61 62 62 62 62
55 43 44 45 42 41 39 35 32 33 32 31 29 31 33 29 36 38 41 39 46 42 47 50 45 44 43 47 50 51 51 50 49 49 49 51 53 57 57 58 59 59 61
41 41 41 40 38 34 32 28 27 30 28 27 26 29 32 27 35 29 32 34 38 36 44 38 38 39 40 44 42 44 46 46 45 46 46 48 49 50 53 55 56 58 58
39 36 37 36 32 29 28 26 26 26 28 25 24 29 29 28 30 20 27 28 36 29 36 32 36 34 40 39 39 40 40 41 42 44 47 47 47 48 53 54 54 55 55
33 32 34 32 29 27 27 26 23 26 28 24 25 28 26 28 28 18 25 24 28 22 31 27 34 33 36 35 35 36 38 40 43 45 45 44 45 47 47 48 49 50 51
29 28 30 29 27 25 26 24 23 24 29 25 27 25 26 33 25 18 25 21 22 20 28 23 28 28 33 32 31 33 34 33 35 39 40 40 41 42 43 44 44 44 45
27 27 28 27 26 24 25 24 24 22 24 27 28 25 27 29 26 19 23 21 20 21 24 22 26 26 28 27 25 28 27 30 36 37 37 39 41 41 41 42 42 42 42
26 26 26 25 23 21 20 21 22 20 21 26 23 27 19 22 24 15 20 22 18 23 20 21 24 25 28 21 23 26 25 34 35 36 36 38 39 40 40 40 39 39 41
25 24 23 22 21 21 18 20 20 18 16 19 26 16 11 16 19 21 14 19 14 22 18 22 25 24 26 21 22 24 29 30 32 34 38 38 37 37 37 38 38 37 38
22 22 21 20 20 19 17 17 18 17 19 15 20 19 21 22 17 15 19 13 20 17 18 21 23 26 23 21 22 25 27 28 31 34 34 34 35 35 35 36 36 36 37
19 19 19 17 17 18 17 15 15 13 16 16 17 18 19 18 20 19 11 14 16 15 13 17 23 19 22 19 22 26 25 26 28 30 32 32 32 34 35 35 35 35 34
18 17 16 15 15 14 14 14 14 13 14 14 14 15 16 16 15 15 15 14 13 11 14 15 17 21 20 22 25 24 25 25 27 26 28 30 32 32 32 33 33 33 34
15 14 14 12 12 12 12 13 13 13 14 13 13 13 17 16 17 17 15 13 12 14 13 16 17 18 21 21 23 26 25 23 23 24 27 29 29 30 30 30 31 31 31
14 14 12 11 10 11 12 12 14 13 14 14 13 13 15 15 17 17 17 17 16 13 15 16 19 19 20 21 25 23 21 21 22 23 25 27 28 27 27 28 28 29 31
12 11 10 10 10 11 12 12 13 13 14 14 14 14 14 16 18 19 20 20 19 18 18 18 18 21 21 22 22 21 22 23 22 24 26 25 25 26 26 25 26 25 26
9 9 9 10 11 12 13 13 14 14 14 14 14 14 15 18 20 21 21 22 22 22 20 21 21 22 22 22 23 23 23 24 25 25 23 23 21 21 22 23 26 30 31
9 9 11 12 12 13 13 14 14 14 14 15 15 15 17 20 21 20 21 23 23 23 22 22 23 24 25 24 24 24 26 30 27 23 21 19 19 20 22 24 26 28 27
10 11 12 12 13 14 15 14 14 15 15 15 16 17 19 20 21 21 22 22 22 23 23 24 23 20 20 21 23 28 27 22 19 18 18 18 20 21 23 25 25 26 26
11 12 12 13 14 15 14 14 15 16 17 16 17 18 19 21 20 20 21 22 23 24 22 20 20 21 23 25 24 25 19 17 17 17 18 20 21 23 22 22 23 25 28
12 12 13 14 14 14 13 15 18 18 17 17 17 18 20 21 20 21 21 21 22 21 21 22 25 26 22 26 25 18 15 17 17 18 20 24 20 19 20 21 21 20 21
11 13 14 14 14 13 12 19 20 18 17 16 17 18 19 21 21 20 20 21 20 20 23 27 22 25 21 17 16 17 18 19 22 24 18 17 18 19 20 20 20 20 21
13 15 14 14 13 12 17 19 21 21 18 17 18 19 20 21 21 20 20 21 21 22 23 25 24 19 17 17 18 20 22 19 16 18 18 19 19 19 20 20 21 21 21
14 14 13 13 12 12 17 19 21 20 19 19 19 19 19 19 21 22 23 24 28 31 23 22 17 17 17 20 25 22 21 21 20 20 21 19 18 18 19 19 20 21 22
13 14 13 13 12 12 17 18 20 20 19 19 19 19 19 20 22 22 27 27 23 21 18 16 17 21 23 19 18 19 22 23 22 19 17 17 17 17 18 19 20 22 23
13 13 13 12 12 14 17 19 21 20 19 19 20 20 20 23 23 26 22 19 17 16 16 21 22 19 17 18 19 22 21 19 16 15 16 17 17 18 18 19 20 22 22
12 12 12 13 15 13 16 19 20 20 20 20 21 22 25 22 22 23 18 17 15 16 24 22 15 16 17 18 19 19 22 18 17 16 15 18 19 20 18 18 19 19 20

GFSMA_sfc_30mbdewp_006.txt.gz
Dewpoint
60 60 51 46 44 41 37 33 32 32 28 27 26 30 31 28 36 37 39 47 44 49 52 48 48 47 48 51 52 52 52 52 52 51 52 53 54 56 57 58 61 62 62
54 46 44 41 38 36 31 28 29 29 25 25 21 28 30 27 32 30 32 37 38 44 42 42 42 42 46 46 46 47 47 48 48 48 48 50 52 51 53 56 57 57 57
42 42 39 35 32 30 27 25 25 28 23 22 19 26 29 28 22 25 26 33 29 36 36 37 38 40 42 42 44 43 43 44 44 46 48 49 49 49 51 55 55 56 56
39 37 34 30 28 27 25 23 24 23 24 21 19 24 27 28 22 21 22 28 25 28 29 32 33 34 37 37 39 40 40 41 44 47 48 47 46 49 49 50 50 51 52
34 33 29 27 27 25 23 22 22 23 26 20 20 24 26 27 22 20 21 25 20 25 26 26 28 30 32 34 34 35 38 37 37 37 41 43 43 44 44 45 46 46 46
30 29 27 25 24 23 20 20 20 22 28 25 24 22 27 32 24 19 22 23 20 23 24 21 24 26 30 31 31 31 33 32 33 37 40 40 40 42 43 44 44 44 44
28 27 26 24 22 21 20 21 20 19 18 26 23 20 25 28 28 25 17 22 18 20 22 19 20 24 26 30 27 26 28 29 33 38 38 39 39 41 42 42 43 42 42
26 25 23 22 21 19 18 18 17 15 18 24 15 23 14 15 18 12 19 20 15 21 19 18 20 20 24 27 25 25 24 27 33 36 37 38 40 40 40 40 40 41 41
24 22 21 20 19 19 17 18 17 16 15 17 24 14 6 9 19 20 17 19 12 19 17 19 18 18 24 25 23 24 27 28 30 34 36 38 37 38 38 38 39 39 39
22 21 20 19 18 18 15 16 16 17 17 14 17 18 18 19 11 14 16 11 17 14 17 16 15 21 23 21 24 24 26 27 29 30 32 34 35 36 36 37 37 38 38
20 19 17 17 16 16 15 14 14 13 16 15 15 16 18 18 21 16 9 12 13 13 14 14 17 15 17 22 21 24 28 25 27 28 31 33 33 34 35 36 36 37 36
17 16 16 14 14 14 13 13 14 13 14 14 14 15 15 14 15 14 14 14 14 13 14 15 15 18 20 21 24 23 26 25 25 28 30 31 32 33 33 34 34 34 35
15 14 12 11 11 12 13 13 14 13 14 13 13 13 16 16 17 17 17 16 15 15 14 16 16 18 19 20 21 25 23 24 25 26 28 30 30 30 30 31 32 32 32
14 13 11 10 10 11 12 13 15 14 14 14 13 14 15 15 17 18 18 18 16 13 13 15 19 19 21 22 24 23 22 23 23 24 26 27 27 28 28 28 28 29 30
12 10 10 10 11 12 13 13 14 14 15 15 15 15 15 15 18 20 20 20 19 16 14 17 19 22 23 23 24 23 23 23 24 23 25 25 28 27 25 25 24 25 25
10 9 10 11 12 13 13 14 14 15 14 15 16 15 15 17 19 21 21 21 21 21 20 19 21 23 24 24 24 24 24 24 24 24 26 26 22 21 21 22 22 23 25
9 10 12 12 13 13 14 14 14 14 16 16 16 16 17 18 20 21 21 21 22 23 22 21 21 23 23 20 20 22 23 24 26 31 24 20 20 20 21 22 23 25 29
11 12 12 13 14 14 14 13 14 17 17 17 17 17 17 18 20 21 21 21 22 23 22 21 24 21 20 21 23 25 24 27 27 20 19 19 20 20 21 24 27 26 27
12 12 13 14 14 14 13 13 16 18 18 17 17 17 18 19 20 21 21 21 22 23 23 23 20 21 22 25 23 25 24 22 18 17 18 19 20 21 23 24 22 23 25
12 13 14 14 14 13 12 14 20 20 19 18 18 18 18 19 20 21 21 20 20 20 19 20 21 23 25 26 22 17 15 17 18 19 21 21 20 20 20 20 20 20 21
13 15 14 14 13 12 11 19 21 21 19 18 18 18 19 21 21 20 19 19 20 21 23 26 25 24 19 16 15 16 17 19 20 19 17 18 18 19 19 20 20 20 20
14 14 14 13 12 12 17 21 21 22 20 19 18 19 20 21 20 22 22 23 24 29 25 21 20 17 15 16 16 20 23 19 17 19 19 21 20 19 19 18 19 20 21
14 13 13 13 12 13 18 20 21 22 20 19 20 20 20 20 22 21 24 24 30 23 20 18 16 16 16 20 25 22 21 21 19 20 21 20 18 17 17 17 18 20 21
13 13 12 12 12 13 19 19 21 21 20 20 20 20 20 20 21 23 26 28 21 19 17 17 18 21 24 20 18 19 22 23 22 18 17 17 17 16 17 17 19 20 21
12 12 12 13 13 15 18 20 21 21 20 20 21 21 21 23 23 23 25 21 18 17 16 20 24 20 18 19 20 22 21 19 16 15 16 16 16 16 17 18 19 20 20
12 13 13 14 16 15 18 20 21 21 21 20 21 22 22 22 21 26 20 17 17 16 23 23 15 16 17 18 19 18 20 18 17 16 14 18 18 19 17 16 17 18 19

GFSMA_sfc_30mbdewp_009.txt.gz
Dewpoint
61 58 47 44 41 38 33 31 31 26 23 23 23 29 26 33 30 35 38 44 48 47 48 47 46 48 50 49 49 50 50 51 51 51 53 56 57 57 57 58 58 60 62
56 46 42 39 37 31 28 27 27 26 21 21 19 27 26 28 28 26 33 32 41 41 43 43 43 46 44 46 47 46 46 47 47 47 48 50 51 51 52 54 56 57 58
45 42 36 32 30 29 25 24 24 27 20 18 18 24 25 27 23 26 28 27 30 34 36 36 35 37 39 41 42 42 43 43 45 48 51 50 49 51 52 54 53 54 54
41 36 32 29 28 26 25 24 22 23 22 20 20 22 24 30 21 23 26 23 27 26 26 31 29 30 33 35 38 39 39 40 40 41 41 43 47 47 47 48 49 49 49
35 31 29 28 26 23 22 21 20 23 21 20 20 21 25 30 21 23 22 23 24 23 23 23 26 25 26 30 34 35 36 37 37 37 39 44 44 43 43 45 45 46 46
31 28 27 25 23 22 19 19 18 21 22 22 20 19 30 34 26 24 18 22 20 22 22 21 19 18 22 28 31 32 32 34 34 35 38 41 41 42 43 44 44 45 44
29 28 25 23 22 20 19 17 20 18 18 23 16 17 22 25 29 28 17 21 18 20 20 16 15 14 16 25 29 29 28 30 31 34 38 39 40 41 42 43 43 43 43
27 26 24 22 21 19 18 18 19 17 18 23 14 19 14 13 18 12 21 20 16 16 16 13 15 13 15 18 22 24 27 27 30 33 35 37 38 40 41 41 41 41 41
25 23 22 21 21 21 19 19 19 18 15 19 18 12 8 8 14 17 17 20 12 15 12 15 14 13 14 18 20 21 24 26 29 31 33 36 37 37 38 38 39 39 40
23 22 21 20 19 19 18 16 17 18 18 15 17 16 16 16 9 8 15 11 16 12 14 14 13 14 15 16 19 23 26 28 29 30 33 34 35 36 37 37 37 37 37
21 20 19 19 18 17 17 16 17 17 17 16 16 15 16 15 20 16 7 9 13 14 14 14 14 14 15 17 19 21 23 26 28 30 32 33 34 36 36 36 36 36 37
19 18 17 17 16 16 16 17 18 17 17 16 17 17 15 13 12 12 11 12 13 13 14 15 15 15 17 18 21 22 24 26 27 29 31 32 32 33 34 35 37 36 38
17 16 15 13 14 16 17 18 17 17 17 16 16 15 17 16 16 15 16 15 14 14 13 13 14 16 18 21 19 23 24 24 25 27 29 30 30 30 30 31 32 35 37
16 14 13 13 13 14 15 16 17 17 17 17 17 16 16 17 17 17 17 17 15 11 10 10 14 17 21 19 23 24 21 22 23 25 26 26 26 26 27 30 32 33 32
13 13 13 13 14 15 15 15 16 15 16 17 17 17 17 17 18 19 20 19 16 13 13 12 16 17 20 21 21 21 21 22 23 23 23 24 24 27 30 28 24 24 25
11 12 12 13 14 15 15 15 15 16 16 17 17 17 17 18 18 20 21 21 20 18 17 16 18 20 20 20 22 21 20 22 23 25 25 24 25 24 23 23 22 23 24
11 12 13 13 14 14 15 14 14 16 18 18 18 18 18 18 17 19 20 21 20 20 19 20 20 21 20 20 19 20 22 23 24 24 23 23 23 21 22 24 25 25 25
13 13 14 14 14 14 14 12 15 18 18 18 18 18 18 17 18 19 20 20 20 20 21 21 21 21 19 20 21 23 25 22 20 20 20 20 21 21 22 23 25 27 27
13 14 15 14 14 14 13 12 16 19 20 19 19 18 17 17 17 18 20 20 21 21 21 22 20 20 21 24 25 21 18 15 15 17 19 20 21 22 23 23 23 24 24
14 15 14 14 14 13 12 13 19 21 21 20 20 19 18 18 18 20 21 20 20 19 20 21 23 25 21 20 19 16 15 17 17 19 20 20 21 20 20 21 21 21 21
15 15 14 14 13 12 11 20 22 22 22 20 20 19 19 21 23 22 21 21 21 22 27 26 23 20 18 15 15 16 18 20 20 19 19 19 19 19 20 21 20 20 20
15 14 13 13 13 11 18 22 22 22 22 20 19 19 20 22 22 23 23 23 24 28 27 23 21 16 14 15 17 21 21 20 18 18 17 19 20 19 19 19 19 20 21
14 13 12 13 12 13 20 21 21 21 21 20 20 20 20 20 23 22 23 25 31 25 22 20 16 15 16 20 25 23 21 20 19 20 20 19 18 18 18 17 18 20 21
13 12 12 13 13 14 20 20 22 21 21 21 21 21 21 21 22 23 23 30 24 21 18 17 17 21 25 22 20 20 22 23 21 19 17 17 17 17 17 18 19 20 21
12 12 13 14 14 17 19 21 22 21 21 21 21 21 22 21 21 21 25 24 18 16 16 19 24 22 19 20 20 21 21 19 17 15 16 16 16 17 18 19 20 19 20
12 13 14 15 17 16 19 21 21 20 20 20 21 21 21 22 21 24 21 18 17 16 22 23 16 15 16 17 19 18 20 18 18 16 14 18 19 19 17 14 16 19 20

GFSMA_sfc_30mbdewp_012.txt.gz
Dewpoint
59 59 51 48 45 42 39 37 32 26 23 22 20 24 24 27 28 33 39 47 47 48 48 48 50 48 48 49 50 49 48 49 50 50 50 50 54 54 54 54 57 59 59
60 51 44 42 40 35 29 26 25 24 21 19 19 21 22 25 26 30 31 38 42 42 41 41 41 41 42 44 45 45 46 46 47 48 51 53 52 51 52 52 56 57 58
52 45 38 35 32 27 25 24 23 24 21 19 19 20 21 23 25 29 27 28 30 35 36 35 34 34 35 37 39 41 42 42 43 43 44 44 46 50 50 51 52 53 53
45 39 35 32 27 26 25 23 20 22 21 20 20 20 21 25 22 23 23 23 25 23 25 31 30 30 30 31 34 37 38 38 40 40 40 41 42 45 46 46 47 48 48
38 32 31 28 26 24 23 19 20 20 20 20 17 15 24 27 23 21 22 23 24 24 22 21 23 20 23 30 33 35 36 36 37 37 38 39 40 44 44 44 45 46 47
34 31 28 26 24 23 20 19 19 20 20 19 18 18 29 30 25 26 23 20 19 21 20 19 17 16 17 23 29 32 32 33 35 35 36 38 40 43 43 43 44 44 45
30 29 27 25 23 21 19 17 19 18 19 18 15 17 20 23 30 29 15 17 18 18 16 14 15 15 14 18 21 27 31 32 33 34 35 37 39 41 41 42 43 43 43
30 29 26 24 22 21 20 19 20 18 18 18 15 18 14 15 16 20 17 16 13 13 14 13 16 14 15 16 18 24 25 29 32 35 36 37 37 38 40 41 41 41 42
26 26 25 23 23 22 21 20 19 17 16 18 16 13 10 11 11 13 16 15 14 13 13 16 15 14 15 15 17 19 23 29 31 33 35 36 37 38 39 39 39 39 39
24 23 22 21 21 20 20 16 17 17 16 15 16 14 13 13 9 10 13 13 13 13 15 15 15 15 15 16 17 20 23 27 29 31 34 36 37 37 38 38 38 39 40
23 22 21 20 19 18 18 17 18 16 16 15 15 14 14 14 15 15 12 12 14 15 15 15 15 15 14 16 17 19 23 25 29 31 33 34 35 35 36 35 36 36 38
21 20 19 19 18 17 18 18 19 19 17 16 15 15 15 14 13 14 13 13 14 15 15 15 14 14 15 16 18 20 22 26 28 29 30 32 32 33 33 33 34 35 37
20 19 17 16 16 18 18 18 18 18 17 16 15 14 16 16 15 15 15 15 14 15 13 13 12 13 14 18 17 19 24 25 25 26 28 30 30 29 29 29 30 30 31
19 18 16 14 14 15 16 17 17 17 16 16 18 18 17 17 17 17 16 16 15 12 11 9 11 13 16 16 19 21 20 21 22 24 25 26 26 25 26 26 27 30 33
17 15 15 14 14 14 15 16 15 14 15 17 17 18 18 18 18 18 18 17 16 13 11 11 11 13 16 18 18 19 20 20 22 24 25 25 25 26 26 28 27 28 27
14 14 14 14 14 14 15 15 14 15 15 16 17 18 18 17 17 17 17 17 17 16 14 13 14 15 17 17 18 19 19 21 22 23 24 24 24 24 25 24 25 24 25
14 13 13 13 13 14 14 13 13 15 17 18 19 19 19 18 16 15 15 16 16 16 16 16 16 17 18 18 18 19 20 21 22 21 20 20 21 22 24 25 26 27 27
13 12 12 13 14 13 13 11 13 16 18 18 19 19 19 15 14 14 15 15 16 17 17 18 18 18 18 20 21 20 19 16 15 15 18 20 22 23 23 24 25 26 27
13 13 14 14 13 14 12 11 13 16 18 19 19 19 17 15 14 14 15 17 18 18 19 19 19 20 22 23 21 19 15 14 15 17 18 19 21 22 23 24 24 24 25
14 14 14 14 14 12 12 12 17 19 20 20 21 20 18 16 16 17 19 19 18 18 18 19 22 26 23 21 18 14 14 16 17 19 19 20 21 21 22 21 22 22 23
15 14 14 13 13 12 10 19 21 21 20 19 19 18 17 18 22 23 22 20 20 20 24 25 28 23 21 16 12 15 17 20 20 20 19 20 18 19 21 21 21 21 21
15 14 13 13 13 11 19 23 23 20 19 18 17 17 17 20 19 22 21 22 22 25 28 27 24 19 14 13 15 18 22 21 19 19 18 20 20 20 20 20 19 20 21
14 13 12 12 12 12 20 22 22 20 19 18 19 19 18 18 21 19 21 22 26 29 26 22 19 14 14 17 23 26 22 21 20 20 21 20 19 18 19 18 19 20 22
12 12 11 12 12 12 20 21 22 19 18 18 19 19 18 19 19 21 22 27 27 22 16 16 16 17 22 25 23 20 22 22 22 20 18 18 18 17 18 19 20 21 23
11 11 12 12 11 12 17 21 22 18 17 17 18 17 19 19 21 21 26 26 18 14 15 16 21 24 22 19 20 21 22 21 19 17 17 17 16 18 19 20 20 18 20
11 11 11 12 14 12 15 21 21 19 17 16 16 17 19 21 20 25 22 17 16 15 18 24 18 15 16 16 18 18 21 21 20 18 16 19 20 19 18 16 17 21 22

GFSMA_sfc_30mbdewp_015.txt.gz
Dewpoint
56 56 56 53 50 46 44 41 36 29 26 24 22 21 24 24 26 31 43 47 48 48 47 47 47 46 46 47 47 47 48 49 49 49 50 52 54 53 53 54 54 57 59
57 55 51 48 45 40 34 29 27 27 25 23 20 20 22 23 26 29 34 40 43 42 41 40 39 38 38 39 41 42 44 44 44 45 45 46 47 48 51 52 54 55 55
57 52 45 42 39 32 28 28 26 25 24 22 21 21 21 23 25 29 29 31 37 37 36 36 35 34 35 35 36 38 40 41 40 42 42 42 43 44 46 48 50 50 51
54 48 42 38 32 30 29 26 23 23 23 23 22 20 22 23 23 24 25 24 27 24 33 29 28 27 29 33 36 37 39 39 39 40 41 41 41 42 43 47 46 46 47
45 39 37 34 30 28 26 21 23 23 23 22 20 17 27 25 24 21 23 24 25 25 25 23 22 22 22 26 32 35 37 37 37 39 39 39 40 41 42 45 45 46 46
37 37 35 30 29 27 24 23 23 23 22 21 19 19 27 29 25 25 25 23 21 21 21 21 20 20 19 21 25 29 34 36 36 37 38 39 39 40 41 44 44 44 45
38 36 32 29 27 26 24 22 23 23 23 21 20 22 23 23 30 29 27 19 19 17 17 17 19 20 18 20 21 25 31 32 36 37 38 39 40 40 40 41 42 42 43
34 33 31 29 27 26 25 25 25 23 22 21 18 21 19 19 20 19 20 19 15 16 16 17 19 18 19 20 21 24 25 30 34 36 37 37 39 40 41 41 41 41 42
32 32 30 28 28 28 27 25 24 21 22 21 18 17 15 16 15 15 18 17 18 16 16 19 18 18 18 19 20 21 22 27 32 33 35 36 37 38 39 40 40 40 40
30 29 28 28 27 26 25 21 21 21 20 20 19 15 16 14 13 13 15 18 17 15 17 19 18 18 18 18 18 20 22 26 30 32 35 36 36 37 38 38 38 39 38
27 27 26 26 25 24 22 22 22 19 19 18 18 18 16 17 17 16 17 17 18 18 19 18 18 17 17 17 19 20 21 25 28 32 33 34 35 35 35 35 35 35 35
26 25 24 25 23 23 23 22 22 21 19 18 18 18 17 17 16 17 17 17 17 18 18 18 17 17 16 17 17 20 21 24 28 30 31 32 33 33 33 33 33 33 33
24 24 23 22 22 22 22 21 21 20 19 18 18 17 17 18 18 17 18 18 18 18 17 16 15 14 14 16 18 19 22 24 25 27 29 31 30 30 30 30 31 30 31
24 23 21 20 20 19 19 19 20 20 18 19 20 20 20 19 20 20 19 19 18 17 16 13 14 13 15 16 18 19 20 21 22 25 26 27 27 27 28 28 29 29 29
23 21 20 18 17 17 17 17 17 16 17 18 19 19 20 20 20 20 20 19 18 17 16 14 13 15 16 17 18 19 19 20 22 24 24 25 25 26 26 26 27 27 28
20 19 18 18 17 16 16 16 17 16 16 17 18 19 19 20 19 20 19 19 18 17 16 16 16 16 17 18 19 20 20 21 22 22 22 23 23 23 24 25 26 27 28
19 17 17 16 15 15 15 14 14 15 16 18 19 20 20 20 19 17 17 16 17 17 17 17 18 19 19 19 19 21 23 22 21 20 19 20 21 23 24 25 26 28 28
17 16 15 15 15 14 13 12 12 14 16 17 18 20 21 18 17 15 15 15 16 17 18 18 20 20 20 19 21 24 23 19 18 16 18 20 22 23 24 24 25 26 27
15 15 15 15 14 15 13 12 12 13 16 18 19 19 19 18 16 15 16 17 19 20 20 20 19 20 21 24 27 22 19 18 16 17 18 20 21 22 24 24 24 24 25
15 16 15 15 14 13 13 13 16 18 20 21 21 20 19 18 17 17 20 21 20 21 21 20 21 23 25 28 21 18 15 17 18 19 21 21 21 22 22 22 22 23 24
16 16 15 14 14 13 11 19 21 21 20 19 19 18 18 18 20 22 22 23 22 22 23 25 24 26 23 19 17 16 17 19 20 24 20 20 20 20 21 22 21 21 22
16 15 14 13 13 11 19 23 24 21 19 17 17 16 18 20 19 20 21 21 22 22 25 26 28 22 21 18 16 19 21 23 21 20 20 20 21 21 21 21 21 21 22
15 14 12 12 12 13 20 22 23 21 19 18 19 20 19 18 20 20 20 21 24 24 26 23 20 18 17 17 21 22 24 22 20 20 20 21 22 20 20 19 20 22 23
13 12 11 11 13 13 19 21 22 21 17 17 18 18 18 18 19 20 22 25 26 26 22 17 17 18 20 24 29 28 22 22 21 21 21 20 20 18 19 20 21 22 24
11 10 12 12 11 10 16 20 22 19 16 17 17 16 17 18 19 20 22 25 23 18 17 17 18 22 23 21 20 20 21 21 20 19 20 19 19 20 20 20 20 20 21
11 12 12 12 11 11 12 18 20 19 17 17 17 17 17 19 19 20 22 20 19 18 18 21 22 19 17 17 18 19 21 23 21 19 18 20 21 21 19 17 18 20 22

GFSMA_sfc_30mbdewp_018.txt.gz
Dewpoint
57 56 58 55 51 45 43 38 31 29 27 25 23 21 23 25 26 45 48 49 48 48 47 46 45 43 42 42 43 44 45 46 46 47 47 47 48 50 51 53 54 56 56
57 54 51 50 44 38 32 29 27 28 26 24 23 21 22 25 26 37 42 45 44 42 40 40 39 38 38 39 39 40 41 42 43 43 44 44 44 45 46 47 50 52 52
55 51 48 45 37 31 30 28 26 27 25 25 24 24 22 24 25 29 37 37 39 38 36 34 33 33 34 36 39 40 41 41 41 41 42 43 43 44 44 45 47 48 48
51 47 44 39 33 32 30 26 25 27 26 25 23 20 23 24 24 26 25 29 29 33 34 29 26 26 27 30 35 37 39 40 41 41 41 42 42 42 43 44 45 47 47
50 46 41 34 32 30 27 25 25 25 23 23 21 20 30 27 24 23 24 25 26 25 25 24 25 25 24 26 30 33 37 38 39 39 41 42 42 42 43 43 44 46 46
42 38 36 32 31 28 26 26 26 26 24 22 21 23 28 30 26 25 26 25 23 21 22 21 21 22 23 25 27 29 33 35 37 40 40 41 42 43 43 43 43 44 45
39 38 33 31 30 27 25 25 25 25 23 22 23 23 26 27 31 29 30 20 20 19 17 18 20 20 21 22 22 25 30 32 36 38 39 39 39 41 41 42 42 43 43
39 35 32 30 28 27 27 26 26 25 24 22 18 22 20 22 23 22 23 21 18 18 18 18 19 19 19 20 23 24 26 28 32 36 37 38 39 40 40 41 41 41 42
34 34 32 30 30 30 28 26 24 24 23 22 18 17 15 18 16 20 20 19 18 19 17 20 20 19 19 18 22 23 22 26 30 34 36 37 38 38 39 39 39 39 40
33 32 31 30 30 29 26 24 23 22 24 20 21 18 17 16 14 13 19 19 20 19 20 19 19 19 18 19 21 23 22 25 29 32 34 36 37 37 37 37 37 38 38
31 30 30 29 28 26 21 23 23 21 20 20 20 19 19 19 18 17 16 18 19 19 20 20 19 19 18 18 19 19 20 25 28 30 33 34 35 35 36 36 36 36 36
29 28 28 27 26 25 24 24 23 22 20 20 19 19 19 18 18 18 18 17 18 19 20 20 19 19 17 19 20 19 22 23 26 29 30 32 33 34 33 33 33 33 34
28 28 27 26 25 26 25 24 23 22 21 20 19 19 20 19 20 19 19 19 19 20 19 19 18 17 16 18 18 21 23 23 24 26 28 31 31 31 30 30 31 32 32
26 27 25 25 23 23 22 23 22 21 20 21 20 21 21 21 21 21 20 20 19 19 19 17 18 16 17 18 20 20 20 22 22 24 27 28 28 27 27 27 28 29 30
25 24 23 21 20 20 20 19 20 19 18 19 20 21 21 22 22 22 22 21 19 17 17 17 16 18 18 18 20 21 20 22 22 25 26 25 25 25 25 26 26 27 27
24 22 20 19 18 18 17 18 18 17 16 18 20 19 20 21 21 21 21 20 19 18 16 17 17 18 19 20 20 21 21 21 25 25 23 23 23 23 24 25 26 29 29
21 20 19 18 17 17 16 16 15 16 16 18 19 20 21 22 21 20 18 17 17 17 17 17 18 20 21 21 21 20 20 25 24 23 21 22 21 23 24 26 27 27 28
19 19 18 17 16 15 14 13 13 14 15 17 18 20 21 21 19 19 17 17 17 18 18 19 21 21 21 21 21 24 27 25 21 20 20 20 22 23 24 25 26 27 28
17 16 16 16 15 15 14 13 12 14 16 18 20 20 20 20 19 19 17 19 21 22 22 22 21 21 21 23 25 29 23 19 19 17 19 20 21 24 24 24 25 25 25
16 17 16 16 15 14 14 14 18 20 21 22 22 22 20 19 19 18 20 21 22 22 23 22 22 24 24 25 26 21 19 17 18 20 20 23 24 22 23 23 23 24 24
17 16 16 15 14 14 16 20 24 23 21 20 19 19 18 21 21 22 22 22 23 23 22 23 23 23 26 21 20 20 17 18 19 21 23 21 21 21 21 22 23 23 23
16 16 15 14 14 12 21 24 24 23 22 20 18 18 19 22 21 21 21 21 22 22 23 23 27 22 20 20 18 18 19 20 20 23 20 20 20 20 21 23 22 23 23
16 14 13 12 12 19 22 22 23 23 22 20 19 19 20 19 20 21 21 21 22 24 24 23 21 20 17 18 20 21 23 25 23 21 21 20 21 21 21 20 21 23 24
13 12 12 13 14 18 20 21 22 22 20 18 18 18 18 18 19 20 21 23 25 26 26 22 19 18 20 21 25 27 24 22 21 21 21 21 21 19 20 21 22 22 24
12 12 14 13 11 14 18 18 21 21 19 18 18 18 18 19 20 20 22 22 23 21 20 19 19 22 23 21 20 20 20 20 19 19 20 20 20 20 20 20 20 21 21
13 13 13 12 16 11 14 16 19 20 20 19 19 19 20 20 20 21 21 21 20 19 19 21 22 20 19 18 18 18 21 21 20 19 18 21 21 21 18 17 18 19 20

GFSMA_sfc_30mbdewp_021.txt.gz
Dewpoint
55 58 59 60 58 50 42 32 29 28 26 23 22 21 23 27 45 48 51 51 50 48 46 45 43 43 42 42 42 43 43 44 45 45 45 46 46 47 47 48 50 53 54
56 56 55 51 42 34 30 28 27 27 26 24 24 22 22 26 40 44 46 47 44 40 39 38 38 37 38 40 42 42 42 43 44 43 44 44 45 45 46 46 46 48 50
56 51 47 41 34 30 29 26 27 26 26 25 24 21 23 24 30 40 40 40 39 39 36 33 33 33 34 36 39 40 41 43 43 43 43 44 44 44 45 45 46 46 48
52 49 44 36 33 31 27 25 26 26 25 23 22 20 24 25 25 30 35 35 34 35 32 29 28 29 30 32 35 37 40 41 41 41 43 43 44 44 45 45 45 46 47
49 47 40 34 31 28 26 25 25 25 23 22 21 21 30 27 24 25 25 26 28 26 24 29 29 27 27 30 33 34 36 38 39 42 42 43 43 43 44 45 45 45 46
47 44 35 32 30 26 26 26 25 25 23 21 21 26 29 30 26 24 24 25 22 22 21 20 21 21 25 25 27 29 32 35 37 39 41 41 41 42 43 43 43 44 44
43 38 33 30 28 26 25 25 26 23 21 22 20 23 27 28 28 27 29 23 20 20 19 19 20 20 21 25 23 25 30 33 34 36 39 40 41 41 41 42 42 42 43
39 35 32 30 28 26 26 26 26 25 23 21 18 25 18 21 20 22 23 21 17 19 18 18 19 19 19 19 22 24 24 27 31 34 37 38 39 39 40 40 40 40 40
37 33 32 29 28 28 26 24 25 25 23 21 18 18 14 16 16 20 21 19 19 18 19 21 20 20 19 18 21 23 25 25 28 32 36 37 37 38 38 39 39 39 39
35 32 30 30 30 29 26 24 24 23 24 20 21 20 18 16 10 9 18 19 21 19 20 20 21 20 19 20 22 25 23 23 27 31 34 35 36 37 37 37 37 39 41
33 31 31 30 29 27 24 22 21 20 21 21 20 19 19 20 19 16 15 17 19 19 20 21 20 20 20 19 19 22 22 23 26 29 31 33 34 35 35 35 36 36 36
32 31 30 29 27 23 24 23 22 20 20 20 21 20 19 17 18 17 18 18 18 19 20 20 20 20 18 19 22 24 23 24 26 28 29 30 32 33 33 33 33 33 34
32 30 29 27 25 26 25 24 23 21 21 20 19 20 20 20 21 20 19 19 20 20 20 20 19 18 18 19 21 23 24 24 24 26 27 30 30 31 31 30 30 30 31
30 30 28 26 26 25 25 24 23 22 20 21 20 21 21 21 22 22 21 20 19 19 19 18 19 18 19 20 22 21 22 23 23 25 26 28 29 28 27 28 28 28 29
31 27 26 25 24 23 23 22 21 17 18 20 20 21 21 23 23 22 22 21 19 17 16 17 17 18 19 20 21 22 22 23 24 24 25 27 27 25 26 26 27 27 30
26 26 24 22 21 20 20 20 18 18 17 19 20 20 20 22 22 22 21 20 19 17 15 16 17 18 19 21 22 23 22 22 23 26 27 26 24 25 25 25 26 27 30
25 24 24 23 20 18 17 18 18 17 16 17 19 20 21 22 21 22 19 18 17 18 17 18 19 21 21 21 22 22 22 23 26 26 23 23 23 23 24 25 26 26 27
24 23 21 19 17 17 15 15 14 15 15 17 18 19 20 22 20 20 19 17 18 20 20 19 22 22 22 22 22 23 24 26 26 22 21 21 22 23 24 25 27 26 27
21 21 18 17 16 15 14 13 13 14 17 18 20 20 20 21 20 20 19 18 20 21 22 22 22 23 22 24 25 26 28 23 21 20 19 20 22 24 26 26 25 26 26
19 18 17 17 16 15 14 18 21 22 22 22 21 20 20 20 19 19 19 20 21 22 23 23 23 23 23 24 26 22 21 21 18 18 19 22 24 24 23 23 24 24 25
20 17 16 15 15 16 18 21 24 23 22 21 20 19 19 22 23 22 22 22 22 23 23 22 23 23 24 21 19 20 19 18 19 21 21 22 23 21 21 22 22 23 25
17 16 15 14 13 19 25 26 25 23 22 20 19 20 20 22 21 22 21 20 21 22 23 24 25 22 21 20 19 18 19 20 20 23 22 22 21 21 21 22 23 24 24
16 15 14 14 17 23 24 24 24 22 21 20 19 19 19 19 21 20 22 22 22 23 24 24 23 21 20 19 20 21 24 25 23 22 21 20 21 20 21 21 22 23 24
21 19 13 14 18 23 23 22 24 21 20 19 19 18 18 18 20 22 22 23 23 24 25 24 22 21 20 22 26 24 21 21 21 20 20 19 20 19 20 21 22 22 24
18 13 15 14 17 20 19 20 22 20 20 20 19 20 21 20 21 21 22 21 22 22 21 21 21 23 24 21 21 20 19 19 18 18 19 19 19 20 20 20 20 21 21
14 14 13 12 15 11 16 16 19 20 19 20 20 21 22 21 21 22 22 22 20 19 19 21 22 20 18 19 19 19 19 19 19 18 17 20 20 20 18 17 18 19 20

GFSMA_sfc_30mbdewp_024.txt.gz
Dewpoint
60 60 60 60 60 59 47 35 29 27 24 22 22 23 26 45 49 51 52 53 51 49 47 45 43 42 42 43 44 44 44 46 45 45 46 46 46 47 47 47 48 49 51
58 58 58 59 54 48 33 29 28 26 25 24 23 22 26 41 46 48 48 48 45 42 40 39 38 39 39 41 42 43 44 45 44 45 45 46 46 46 46 47 47 47 48
56 56 56 54 39 31 28 28 27 26 25 24 22 21 23 30 43 43 43 40 41 40 35 35 34 35 36 38 40 41 43 43 43 44 45 45 46 46 46 47 46 47 47
55 53 49 41 32 30 26 26 27 25 24 21 21 19 24 25 38 37 38 35 36 34 33 31 31 31 32 36 37 38 39 41 41 44 44 45 44 44 44 45 46 47 47
53 49 42 34 32 28 26 25 26 23 22 20 21 23 30 26 28 32 34 30 32 28 25 32 29 28 28 30 32 34 35 38 39 41 43 43 43 43 43 44 44 44 45
50 46 37 33 30 27 26 25 25 24 22 21 23 25 28 30 25 25 25 26 25 24 21 20 20 24 27 26 26 28 31 35 36 37 40 41 41 41 42 42 42 43 43
49 43 35 31 28 26 26 26 26 22 20 22 22 25 26 28 27 28 27 24 22 21 19 20 20 20 21 26 25 26 28 31 32 35 37 39 40 40 41 41 41 41 42
46 38 34 30 28 26 26 26 26 24 22 21 20 24 20 21 22 21 23 21 18 19 19 21 20 19 20 20 23 23 23 26 29 32 35 38 39 39 39 40 40 40 40
42 37 33 31 28 27 26 26 26 26 23 20 19 19 18 15 17 19 21 20 19 19 20 20 21 20 20 20 22 23 26 24 26 30 34 36 37 37 38 38 38 39 38
39 35 32 29 28 29 27 25 26 26 24 20 21 19 18 17 9 9 17 20 21 19 19 21 21 21 20 20 22 26 28 25 25 29 32 34 36 36 37 37 37 37 38
36 33 31 30 29 29 27 25 23 25 23 22 21 19 19 20 18 15 12 16 20 20 20 21 20 21 19 20 22 25 27 27 28 30 32 34 34 34 35 36 35 36 36
36 34 31 31 30 27 25 24 22 21 21 21 20 19 18 17 18 18 17 18 17 19 21 20 20 19 19 19 20 24 25 26 28 29 31 32 32 33 33 33 34 35 34
36 34 32 31 29 27 26 24 22 21 20 19 19 20 21 19 20 20 19 19 19 21 20 20 19 19 18 19 21 23 24 25 26 28 29 31 31 31 30 31 31 31 31
37 37 33 30 29 27 25 24 23 22 21 20 19 21 21 22 22 22 20 19 18 19 19 17 19 18 19 19 22 23 23 24 25 26 27 28 28 28 29 30 29 29 29
37 34 31 30 29 28 26 24 22 21 20 21 20 21 22 23 23 23 23 22 19 16 16 17 16 18 19 20 22 24 23 24 23 24 25 27 28 28 27 27 28 29 30
33 30 30 30 29 26 24 23 20 18 18 20 21 20 21 22 22 22 22 21 21 18 15 17 16 18 20 22 22 22 23 24 24 26 27 26 26 26 26 27 27 27 28
30 30 29 29 28 25 22 20 19 18 17 18 20 20 20 21 21 22 21 19 18 18 16 18 19 21 22 22 23 23 23 23 24 25 26 25 25 25 25 26 26 27 27
29 29 28 27 26 24 23 22 19 17 16 17 18 20 20 22 21 21 20 19 18 18 19 18 21 22 23 23 23 23 24 25 25 26 25 24 23 24 25 26 27 27 27
29 29 27 24 20 18 16 15 15 15 16 18 20 20 20 21 20 21 20 19 19 20 21 21 22 23 23 23 24 24 26 25 24 23 21 21 22 24 26 27 26 26 26
29 29 29 27 23 19 15 16 19 21 22 21 21 20 20 20 20 19 19 19 20 21 22 22 23 23 23 24 25 24 20 20 19 19 20 22 24 25 25 24 25 25 25
27 27 29 26 24 22 24 23 23 22 20 19 20 19 19 20 25 22 22 22 22 22 22 22 23 23 24 21 21 20 20 19 19 22 22 22 23 24 23 23 23 23 24
28 27 23 21 22 26 28 27 24 21 20 19 19 19 19 22 22 22 22 21 21 22 22 23 23 23 22 21 20 20 19 20 20 22 22 21 22 21 21 22 23 24 25
27 24 22 19 24 26 26 26 25 21 19 19 19 19 18 18 21 20 22 23 23 24 24 23 23 22 22 22 21 21 23 24 22 22 21 19 20 19 20 21 22 23 24
26 27 25 27 28 28 26 25 23 20 19 20 19 19 19 20 21 22 22 23 24 24 23 24 24 23 22 23 26 25 21 21 21 20 19 18 18 18 19 20 21 23 24
32 30 28 25 25 23 22 23 21 20 19 19 20 20 22 22 22 22 22 22 22 22 23 22 22 23 24 23 21 21 20 20 17 17 18 18 18 18 19 19 20 22 22
25 18 13 13 18 17 20 18 22 20 18 19 20 21 22 22 22 22 23 22 20 19 19 21 19 17 18 18 20 20 19 19 18 17 17 18 19 19 17 18 18 19 19

GFSMA_sfc_30mbdewp_027.txt.gz
Dewpoint
62 62 62 61 61 59 52 45 29 26 23 22 22 24 39 48 51 52 53 53 52 50 48 45 44 43 43 45 45 45 47 47 46 46 47 48 47 47 48 48 48 49 50
59 61 60 60 60 57 41 31 28 26 24 24 22 23 35 46 49 49 49 48 47 43 41 40 40 40 41 42 43 44 45 45 45 45 46 47 47 47 48 48 48 48 48
58 59 59 58 56 47 31 28 27 26 25 24 21 22 27 43 46 46 42 41 42 40 38 36 37 37 38 41 41 41 42 43 44 46 46 46 46 45 46 46 47 48 48
57 57 57 56 42 32 28 28 26 25 23 21 20 22 25 34 41 41 38 36 37 35 35 33 32 31 34 35 37 39 39 40 42 43 45 45 44 45 45 45 45 45 46
56 55 54 49 33 29 28 27 26 23 21 20 20 25 29 26 38 37 35 32 34 27 31 32 31 29 29 30 32 33 34 37 39 40 41 43 43 43 43 43 43 44 44
54 51 46 40 32 29 27 26 24 23 21 21 24 28 28 28 28 32 32 27 30 24 23 21 20 22 28 26 28 30 32 33 36 37 38 40 41 41 42 42 42 42 42
53 48 41 34 31 29 27 25 24 20 20 24 24 26 26 29 26 26 26 26 23 21 19 20 20 20 21 29 29 29 28 29 31 34 35 37 40 40 40 41 41 41 41
52 46 39 34 30 29 26 26 25 24 21 21 20 25 21 22 23 22 24 21 20 20 20 20 20 20 20 21 24 29 29 26 28 31 34 36 39 39 39 40 40 40 40
51 46 39 35 31 29 27 26 27 26 22 19 21 21 19 17 20 19 21 20 19 20 20 21 21 20 20 20 23 26 30 28 28 30 33 36 37 38 39 38 39 39 39
49 45 39 35 30 30 28 27 28 28 24 20 20 18 18 19 13 11 18 20 21 19 19 21 21 20 19 21 27 31 30 30 30 32 34 36 37 38 38 38 38 38 38
48 44 40 34 31 30 29 27 27 27 25 23 22 19 19 20 18 13 11 16 20 20 20 21 21 19 19 19 21 26 27 29 31 32 34 35 35 36 36 37 37 37 36
44 40 39 36 32 32 30 28 26 26 24 24 22 20 19 18 17 17 15 17 17 19 21 21 20 19 19 19 20 25 25 27 29 29 31 33 34 35 35 35 35 35 34
42 39 38 37 35 34 32 28 25 24 23 21 20 20 21 19 20 19 18 18 17 21 20 20 20 19 19 19 22 24 25 26 27 29 31 33 33 32 32 32 33 33 33
45 41 39 37 36 34 30 27 25 23 22 21 20 20 21 21 22 21 19 19 17 19 19 18 19 19 19 20 23 24 24 24 24 26 28 30 30 30 30 31 31 31 30
42 41 39 35 34 32 30 28 26 22 22 21 21 22 22 23 23 23 23 21 18 15 16 17 15 19 19 20 22 25 23 24 26 27 28 28 28 28 28 28 28 29 30
41 38 35 34 33 32 30 28 24 21 21 22 22 21 21 23 23 23 22 22 21 19 16 17 16 17 19 21 23 25 24 25 25 27 25 26 27 28 27 27 28 28 28
40 37 35 34 31 29 26 25 25 23 23 22 21 20 20 21 22 23 23 21 20 19 17 18 18 19 20 22 23 24 24 24 24 25 26 27 27 27 27 27 27 27 27
37 35 33 31 29 28 28 27 24 22 21 21 23 23 21 22 21 22 21 20 19 19 18 17 19 21 22 23 24 23 24 24 25 25 26 26 25 25 26 26 27 28 29
35 33 31 29 28 27 27 28 30 27 23 22 19 19 20 21 21 21 21 20 20 19 20 20 21 23 23 24 23 24 25 25 24 22 22 22 23 25 26 26 26 26 27
32 30 27 27 27 28 28 28 27 23 24 22 22 21 20 21 21 20 19 19 20 20 21 22 22 22 23 24 24 23 20 20 20 20 21 23 25 25 24 25 26 26 26
32 31 30 31 30 30 29 27 26 24 22 20 20 19 20 21 24 24 23 22 22 22 22 21 22 22 23 23 22 21 21 21 21 22 22 22 23 23 23 23 23 23 24
31 32 32 32 32 33 34 32 26 21 19 19 19 19 19 21 22 24 24 24 22 22 22 22 22 23 23 22 21 21 21 21 20 22 22 21 22 20 20 21 22 24 26
31 30 31 32 32 33 31 30 25 21 19 19 19 19 18 19 22 21 23 23 24 24 24 24 23 22 22 22 22 22 23 23 22 21 21 20 19 19 20 20 22 23 24
31 31 31 32 32 33 34 33 28 20 19 19 19 19 20 21 22 23 23 23 23 24 23 23 23 23 24 23 25 26 24 21 21 21 20 17 18 18 19 19 21 23 24
31 32 32 32 32 32 32 30 22 19 18 19 20 21 22 22 23 23 23 22 23 22 23 22 22 23 24 23 21 21 20 20 18 17 18 18 18 18 18 18 19 21 23
32 32 30 30 31 26 24 22 23 19 18 19 20 20 22 21 22 23 23 22 20 19 19 20 20 17 17 17 20 20 19 19 18 17 17 18 19 20 17 18 18 19 19

GFSMA_sfc_30mbdewp_030.txt.gz
Dewpoint
63 63 62 62 61 59 53 44 29 25 22 22 23 31 46 51 51 52 53 54 53 51 48 46 45 44 45 45 46 47 47 47 47 47 48 48 49 49 49 50 49 49 49
62 62 61 61 60 58 48 39 28 25 24 22 22 29 45 49 50 49 48 49 48 45 43 43 42 42 42 44 44 46 45 45 46 47 47 48 48 47 47 48 48 49 49
59 61 60 60 59 55 37 29 27 26 25 23 21 25 41 46 48 46 42 42 43 43 40 40 39 38 41 40 41 42 42 42 44 45 46 46 46 46 46 46 46 47 47
59 59 59 59 56 47 32 28 27 25 23 22 20 24 27 42 44 42 39 38 36 35 36 35 33 34 34 36 37 37 37 39 41 43 44 45 45 44 44 45 45 45 45
58 58 58 57 48 39 31 28 26 24 21 21 20 28 27 32 40 38 35 34 34 29 33 35 34 32 30 31 33 34 35 37 39 39 40 42 43 43 43 43 44 44 44
57 57 56 53 41 33 29 27 25 23 22 21 25 28 29 27 35 35 34 29 31 24 24 20 21 22 33 31 31 32 33 32 35 36 38 38 40 42 42 42 42 43 43
56 55 52 48 38 31 29 27 24 21 21 25 26 26 26 27 26 27 28 27 24 22 20 20 20 20 21 29 30 31 33 31 31 33 35 37 39 41 41 41 41 42 42
56 54 50 45 38 32 28 26 24 22 21 24 22 25 21 24 24 23 25 24 21 20 21 20 20 20 20 20 26 31 32 32 31 32 33 36 38 39 40 40 41 40 41
56 52 48 44 38 34 31 27 26 24 22 20 23 23 21 20 23 20 21 20 20 20 20 21 20 20 19 20 27 31 31 31 32 33 35 37 38 39 39 40 40 40 40
56 51 48 45 39 35 33 29 28 27 24 21 20 19 20 22 18 15 19 20 20 19 19 21 20 19 20 22 25 29 30 31 33 34 36 37 38 38 39 39 39 39 39
55 52 48 45 39 38 34 32 30 28 26 23 22 19 19 19 17 14 13 17 20 21 21 21 21 19 19 20 21 27 28 29 30 32 33 35 36 37 38 38 38 38 38
53 51 48 44 42 39 37 33 31 30 28 26 24 21 20 19 18 16 15 16 17 18 21 21 20 19 19 19 22 26 26 28 29 30 33 35 36 36 36 36 36 36 36
51 48 46 43 41 40 38 37 34 31 28 26 23 22 22 20 21 19 17 17 16 19 20 21 21 20 19 19 23 24 27 26 27 29 31 33 34 34 33 34 34 34 35
52 49 45 44 41 40 38 35 35 31 27 26 22 22 21 21 21 20 18 17 16 18 19 17 20 20 19 20 23 25 25 26 26 28 29 31 31 31 31 31 31 31 32
51 46 44 43 41 39 36 35 32 29 28 28 27 23 22 24 23 23 22 20 16 11 15 17 16 18 19 19 22 26 25 26 26 26 27 28 28 28 29 29 29 30 29
47 45 43 41 40 37 34 31 28 26 25 26 26 23 22 24 24 24 23 22 20 18 16 18 16 18 18 19 22 25 25 26 25 25 26 27 27 28 28 28 29 29 29
44 43 41 40 37 35 31 29 26 24 24 24 24 23 22 23 23 23 23 22 21 21 18 18 18 19 19 20 22 23 25 24 24 25 25 26 27 28 28 28 28 28 28
40 40 39 37 34 31 27 26 25 27 28 28 27 27 25 22 22 23 23 21 20 20 19 18 19 19 21 22 23 23 24 24 24 25 26 26 27 26 27 27 28 27 28
39 39 37 33 30 29 28 28 28 29 29 30 30 30 26 22 21 22 21 21 21 20 19 19 20 22 23 23 23 24 24 25 25 23 23 24 25 26 27 27 27 27 27
36 34 32 30 30 30 31 32 31 30 30 29 28 26 25 23 23 22 21 19 19 20 20 21 22 22 22 23 24 24 22 21 21 22 22 24 25 25 25 25 26 27 27
31 31 31 32 32 33 33 33 32 31 31 28 27 25 23 24 25 24 22 23 22 22 22 21 21 22 22 23 23 22 21 21 22 22 22 22 23 23 23 24 24 23 24
33 33 33 34 34 34 34 32 28 27 27 26 27 26 23 21 23 24 24 24 24 23 22 21 21 22 23 22 22 22 21 21 20 21 22 21 21 21 21 21 22 24 26
33 34 34 34 35 36 35 33 31 29 29 28 23 19 19 20 23 20 22 24 24 24 25 24 24 23 21 22 22 22 23 23 22 22 22 20 20 19 20 19 21 23 25
33 33 33 33 33 35 35 34 32 28 25 24 21 21 22 21 22 23 23 23 24 24 24 24 23 23 23 23 24 26 24 22 22 21 21 18 18 18 18 19 21 23 24
32 32 32 32 31 32 34 31 27 20 19 19 20 21 22 22 23 23 23 23 23 22 22 22 22 24 24 23 21 21 20 20 17 17 18 18 18 17 18 18 19 22 22
31 31 31 32 33 32 33 31 22 18 17 19 20 20 22 21 22 23 24 23 19 19 19 21 20 17 17 17 20 20 19 18 18 17 17 17 18 19 17 18 18 19 18

GFSMA_sfc_30mbdewp_033.txt.gz
Dewpoint
65 65 64 64 63 61 57 46 34 28 25 25 27 39 48 53 54 54 55 55 54 51 49 47 46 47 46 46 47 48 47 47 48 49 49 50 49 49 49 49 50 51 51
64 64 63 63 62 61 55 44 33 28 27 25 25 38 48 51 51 51 51 50 50 47 45 44 44 44 45 45 46 46 45 46 47 47 48 48 47 48 48 48 48 48 49
63 64 63 62 61 59 50 38 30 28 28 25 25 34 46 49 49 47 45 45 44 44 43 42 40 42 40 42 42 42 41 42 44 45 46 46 46 46 46 46 46 46 47
60 62 62 62 60 56 44 36 31 29 28 26 24 27 39 46 47 43 41 39 39 38 40 37 36 35 37 38 38 38 38 39 40 42 42 44 45 45 45 45 45 45 45
61 59 60 61 59 53 42 34 30 29 27 26 24 28 29 41 44 39 36 36 36 35 36 38 37 33 32 33 35 36 37 36 39 39 40 40 42 43 44 44 44 44 44
60 60 59 59 56 50 42 33 30 27 26 25 24 29 31 30 40 39 34 33 31 32 31 25 25 27 35 35 34 34 36 36 34 35 37 38 39 41 43 42 43 43 43
59 59 59 57 52 49 43 34 29 26 25 28 29 29 30 28 33 35 34 30 30 25 24 23 23 23 24 30 31 32 35 35 33 34 35 36 39 40 41 42 42 42 42
58 58 57 55 50 47 39 32 28 25 26 29 27 28 26 27 27 27 30 28 26 24 23 23 22 22 23 23 29 31 32 33 34 34 35 37 38 40 41 41 41 42 42
58 57 56 55 51 47 40 33 29 28 26 27 28 29 25 25 27 24 26 25 24 23 22 23 22 22 21 25 29 33 34 34 35 37 38 39 40 40 41 41 41 41 41
58 58 56 54 51 48 44 37 32 30 29 26 25 24 24 27 25 22 22 23 22 21 22 23 22 21 23 23 27 30 30 31 33 34 36 37 38 39 39 40 40 40 40
59 58 55 53 51 48 45 41 33 31 29 28 26 23 22 22 20 21 21 21 22 22 21 22 22 20 20 21 23 27 29 29 31 32 34 36 37 38 39 39 39 39 39
59 58 55 53 52 49 45 43 38 35 33 30 27 24 23 22 21 20 20 19 21 21 22 22 22 21 20 21 22 27 27 28 29 31 33 35 36 37 37 37 37 37 37
56 56 55 52 52 48 47 44 41 39 36 32 28 25 25 24 23 22 22 21 19 20 21 22 22 21 20 20 22 26 27 27 28 30 32 34 34 34 34 35 35 35 36
56 56 54 53 51 48 46 44 42 40 37 34 30 27 26 24 23 22 21 21 19 19 19 18 21 21 20 20 22 25 23 27 27 29 30 30 30 31 31 32 32 32 33
56 55 53 51 49 47 45 43 41 38 35 33 32 30 29 27 25 24 22 21 19 17 16 18 18 20 20 20 21 23 25 26 28 27 27 27 28 29 29 30 30 30 31
54 51 49 48 47 45 43 42 39 35 32 32 30 28 27 27 26 26 25 22 21 17 13 19 18 19 19 18 21 24 24 27 26 26 26 27 27 28 28 29 30 30 30
49 48 47 45 44 42 41 40 38 35 31 28 27 26 25 26 26 26 25 24 22 21 19 20 19 19 19 20 21 23 24 24 23 24 25 26 28 29 29 29 29 29 29
45 45 43 42 41 39 39 37 33 29 28 27 29 29 30 30 30 29 27 26 25 24 22 19 20 20 20 22 23 23 23 23 22 22 25 27 27 28 28 28 29 29 29
42 41 40 38 37 34 31 29 28 30 31 32 32 32 30 29 28 28 28 27 27 27 26 22 19 21 22 23 23 24 24 24 23 23 23 24 26 27 28 28 28 28 28
40 39 37 33 32 30 30 31 32 32 32 32 32 31 30 30 28 29 30 30 29 26 25 23 22 23 23 23 24 23 22 21 19 21 23 24 26 25 25 26 27 27 27
33 33 33 33 34 33 33 33 33 32 32 32 32 31 31 30 31 31 29 28 27 27 26 26 23 23 23 22 22 22 21 20 22 23 22 22 21 21 22 23 24 24 25
34 34 34 35 35 36 37 35 32 30 29 29 29 30 30 31 32 33 32 30 30 29 26 24 24 22 22 23 22 21 21 22 21 21 21 20 21 21 21 21 22 24 26
36 36 36 36 36 36 36 34 32 31 31 30 29 29 28 29 30 28 28 28 26 25 25 25 24 23 22 21 23 23 24 24 22 21 21 20 20 19 20 19 21 23 25
34 34 34 35 35 36 36 35 33 30 29 29 28 27 28 28 27 25 23 25 25 25 24 24 24 23 23 23 25 26 24 22 21 20 19 18 18 18 18 19 20 22 24
32 32 32 32 32 33 34 33 29 27 27 26 27 24 23 22 22 23 23 24 24 23 22 22 22 24 24 23 22 21 21 20 19 17 18 17 17 17 17 18 19 21 22
31 32 31 32 33 32 30 30 26 19 20 19 21 20 22 20 21 23 24 26 21 20 19 21 20 18 17 16 21 20 20 20 19 18 17 18 18 18 17 16 17 18 19

GFSMA_sfc_30mbdewp_036.txt.gz
Dewpoint
61 61 61 61 61 58 57 54 47 39 34 31 31 35 39 42 44 49 53 56 55 52 50 49 49 48 48 48 49 48 48 49 49 50 50 49 49 49 49 50 50 50 50
60 61 61 62 61 60 57 54 47 40 35 32 30 34 39 43 44 47 49 52 52 50 47 46 46 46 46 46 47 45 45 46 47 48 48 48 48 48 48 48 48 48 48
59 60 61 62 62 60 57 53 45 38 35 31 30 33 39 42 43 44 45 46 46 46 46 44 43 45 42 43 43 42 41 42 44 45 46 46 46 46 46 46 46 46 47
58 59 60 62 61 60 57 51 45 40 36 33 30 30 36 41 41 41 42 42 41 39 43 39 40 38 39 39 39 39 38 40 40 42 42 43 44 45 45 45 45 45 45
59 58 59 59 60 59 56 50 45 41 37 33 30 28 32 37 40 39 38 38 38 36 35 38 37 35 35 36 36 37 37 37 37 39 39 41 41 42 44 44 44 44 44
60 59 57 58 59 59 55 50 45 39 37 34 24 27 29 32 38 38 34 34 33 34 34 33 31 32 36 36 35 35 36 37 37 36 37 38 39 41 42 44 44 44 44
61 60 58 57 58 58 56 50 46 38 34 32 30 30 30 29 33 36 34 32 31 30 31 26 25 24 27 32 31 33 34 35 37 35 36 37 38 40 42 42 43 43 43
62 61 59 58 57 57 56 52 44 38 35 32 33 32 29 28 28 33 34 32 30 28 27 25 24 24 25 24 30 31 31 33 35 36 37 38 40 41 42 42 42 43 43
62 61 60 59 57 56 55 52 45 41 36 32 33 34 31 30 29 28 31 32 29 28 26 25 24 23 23 23 28 33 35 34 35 37 38 39 40 41 42 42 42 42 42
62 62 60 60 58 55 54 52 47 43 41 35 32 31 30 32 29 27 27 28 28 27 26 25 23 23 23 25 27 30 31 31 32 35 37 38 38 39 40 41 41 41 41
62 62 61 60 58 55 54 52 48 44 42 40 35 29 27 26 26 29 28 26 26 25 25 25 23 23 23 23 24 27 29 30 32 33 34 36 38 39 39 40 40 40 40
61 61 60 60 58 57 55 54 50 46 42 41 38 31 29 28 26 25 27 27 26 25 25 23 23 23 22 22 22 27 28 28 29 31 33 35 37 38 38 38 38 38 38
60 59 59 59 58 57 56 55 51 46 44 41 38 35 31 31 28 26 27 26 24 22 23 23 23 23 22 22 21 26 27 28 28 30 32 35 35 34 34 35 36 36 37
58 59 59 59 58 57 56 55 52 49 46 43 40 37 33 31 29 26 26 25 23 22 21 21 22 22 22 21 22 25 22 25 28 29 31 31 31 31 31 32 33 33 34
57 57 58 57 58 56 55 53 52 50 48 46 43 39 33 31 29 27 26 28 28 26 22 20 20 21 21 21 21 20 20 24 27 29 29 29 29 29 30 30 31 31 32
56 57 57 57 56 54 53 51 50 49 46 44 41 35 32 30 30 29 27 25 25 23 18 20 20 20 21 18 20 21 22 25 26 27 28 28 28 28 29 30 30 31 31
54 54 54 53 53 50 49 48 47 44 42 38 36 35 33 33 30 29 28 27 27 27 26 27 23 25 26 27 26 22 23 22 22 23 25 26 27 28 30 30 30 30 31
50 50 49 49 48 47 46 45 43 41 38 36 35 32 29 29 31 31 32 31 31 29 28 28 30 30 30 29 28 24 23 23 22 22 24 26 28 29 29 30 30 30 30
45 44 45 44 44 43 42 42 39 36 32 32 32 32 33 33 32 31 31 30 31 31 30 29 30 28 28 28 29 26 24 22 22 22 21 22 25 26 28 29 29 29 29
42 41 40 39 37 37 35 32 33 34 35 34 34 34 33 32 31 31 32 31 31 30 30 28 26 26 28 29 28 24 21 20 19 18 21 24 25 26 27 27 28 28 28
36 35 35 34 34 33 33 33 34 34 33 33 32 32 32 33 34 33 32 31 30 29 29 28 27 29 27 24 20 21 20 19 18 21 21 21 20 20 21 23 23 24 25
36 36 36 36 36 36 36 35 34 33 32 32 31 31 32 32 33 34 34 33 31 31 30 28 28 24 20 20 20 20 19 20 19 22 20 20 21 20 21 21 22 23 25
37 37 37 37 37 38 37 36 34 33 32 31 30 30 30 31 31 29 31 31 32 31 31 26 24 21 20 20 22 24 21 22 22 22 21 19 20 20 20 19 21 22 24
34 34 35 36 36 37 37 35 33 31 30 30 30 29 29 28 29 28 26 25 25 25 23 23 23 22 22 21 21 25 25 24 21 20 20 19 19 18 19 19 21 22 23
32 31 32 32 32 32 34 33 30 29 27 26 27 27 25 22 21 23 22 24 23 23 23 23 23 23 24 24 24 21 20 21 20 19 19 18 19 18 19 20 20 20 21
31 32 31 31 32 31 31 29 24 25 23 21 20 20 22 20 21 23 23 24 23 21 19 19 19 19 18 16 18 21 21 21 21 20 19 19 20 20 20 19 19 19 20

GFSMA_sfc_30mbdewp_039.txt.gz
Dewpoint
60 60 58 59 57 56 56 55 51 45 41 37 35 37 38 40 42 48 56 57 55 53 51 50 51 50 49 50 49 48 49 50 50 50 50 49 49 50 50 50 50 50 50
59 61 60 61 61 58 56 54 51 45 41 37 35 37 38 40 42 45 53 54 54 52 49 48 48 48 48 49 47 46 46 47 48 48 48 48 48 48 48 48 48 48 48
58 58 58 61 62 61 57 55 51 45 41 38 36 36 38 40 41 43 47 51 49 49 48 47 46 47 46 45 45 43 42 43 44 45 45 46 46 46 46 47 47 47 47
58 57 58 61 62 62 59 56 52 44 41 39 37 35 37 39 40 41 42 44 45 44 46 44 45 42 42 42 40 40 40 40 41 41 41 42 43 44 45 45 45 45 46
58 57 57 59 62 61 59 57 52 46 44 40 38 35 35 38 39 39 40 41 41 40 42 40 40 39 39 39 38 38 38 38 37 39 39 41 41 42 43 45 45 45 45
60 59 58 57 58 59 58 57 52 48 45 42 37 33 33 35 38 39 37 37 37 38 37 38 38 35 36 37 36 36 36 38 38 37 37 38 40 41 42 43 44 44 44
61 61 59 57 57 57 58 56 53 48 45 43 34 32 33 32 33 38 37 35 34 35 35 36 32 32 35 36 33 33 34 34 37 38 37 38 39 40 42 43 44 44 44
63 62 61 59 57 57 57 57 53 48 44 40 37 39 35 32 30 33 37 34 33 33 33 31 29 28 28 29 33 31 31 33 35 36 38 39 41 43 43 43 43 44 44
64 62 62 61 59 58 58 57 54 49 45 40 41 41 40 38 32 31 34 36 33 32 30 30 28 27 27 28 32 33 36 35 35 36 38 39 41 41 42 42 42 43 43
63 63 62 62 61 59 58 57 55 50 47 42 39 38 37 37 33 30 31 33 34 31 30 30 27 27 26 27 30 34 33 31 32 34 37 38 39 40 41 41 42 42 42
62 62 62 61 61 61 59 57 55 50 49 47 42 37 36 32 33 33 29 29 31 31 30 29 28 27 26 26 28 31 31 30 32 33 35 36 38 39 40 41 41 41 41
60 61 60 61 61 61 60 57 56 52 51 50 44 39 37 35 30 28 30 30 28 29 28 28 27 27 26 25 25 31 30 28 30 31 33 35 37 38 39 39 39 39 39
58 60 61 61 61 60 59 58 57 54 52 50 47 43 38 38 32 30 30 30 29 27 27 27 26 26 25 25 26 27 29 28 29 31 32 34 35 36 35 35 36 37 37
54 56 60 60 60 60 59 59 57 56 54 51 49 46 42 40 39 40 38 30 25 24 24 24 26 25 25 24 25 26 24 25 27 30 32 32 33 32 32 33 34 34 35
53 54 56 58 58 59 59 58 57 56 52 51 49 47 45 43 37 32 33 32 32 27 28 23 22 24 24 24 25 23 21 21 25 28 30 31 31 31 31 31 32 33 33
53 54 56 57 57 58 58 57 56 55 52 51 50 49 44 36 34 33 30 30 31 32 29 28 26 25 26 24 27 28 26 27 26 27 28 28 29 30 30 30 31 32 32
51 53 53 54 54 55 54 53 52 52 51 49 45 42 37 35 36 36 36 36 35 34 31 29 29 29 29 30 33 33 32 29 26 25 25 27 28 28 29 30 31 31 31
49 49 49 49 49 50 50 49 48 47 47 42 40 38 36 36 34 34 34 32 32 32 32 30 31 32 32 32 32 32 30 27 26 25 28 29 29 28 28 30 30 31 31
46 45 45 44 44 44 44 44 43 42 41 39 38 35 33 34 33 33 32 32 32 33 32 32 31 31 31 32 31 30 29 28 28 25 24 22 21 23 27 29 30 30 30
41 40 38 36 37 35 35 36 36 36 35 35 35 35 34 34 33 33 33 32 32 31 31 30 30 30 30 29 31 29 27 27 23 21 20 21 24 25 26 27 27 27 28
37 37 36 35 34 34 35 35 35 35 34 34 34 34 34 34 34 34 32 32 32 31 30 30 30 29 28 27 27 25 23 22 21 22 22 23 23 23 23 24 24 24 24
37 37 37 36 36 36 36 36 35 34 34 33 32 33 34 35 35 35 35 34 33 31 31 30 28 26 25 23 21 21 23 23 21 22 23 23 24 23 23 23 23 23 25
37 37 38 38 38 38 37 36 35 33 32 31 31 31 31 32 32 32 33 33 34 33 31 29 27 25 22 22 25 24 24 23 22 23 23 22 22 22 22 21 22 23 24
33 33 33 33 34 37 36 35 33 31 30 30 31 31 30 30 30 28 26 27 27 27 26 25 24 23 23 23 23 23 25 25 24 23 23 20 21 21 21 22 22 23 24
32 31 32 31 31 33 34 33 31 30 29 29 30 29 26 23 25 25 23 24 25 23 23 26 24 23 24 24 24 24 23 22 21 21 22 21 20 21 21 22 22 23 23
32 32 30 31 31 30 31 30 28 27 25 21 20 21 21 21 21 23 23 24 23 22 21 20 19 19 20 19 18 20 21 21 22 21 21 20 21 22 23 22 22 23 23

GFSMA_sfc_30mbdewp_042.txt.gz
Dewpoint
60 60 59 59 58 62 61 60 56 50 43 41 37 38 38 41 41 58 59 58 57 55 53 53 52 52 52 51 50 50 51 50 51 50 50 50 50 50 50 50 50 50 50
61 60 59 59 58 59 58 57 55 48 43 39 36 37 38 40 41 56 56 56 55 54 52 51 51 50 51 50 48 48 48 48 49 49 48 48 48 48 48 48 48 48 48
60 61 60 61 60 59 60 56 54 49 43 38 37 36 38 40 42 49 54 53 53 52 51 49 49 49 49 49 47 45 44 45 46 45 45 46 46 47 47 47 47 47 47
58 59 59 61 62 61 60 59 54 48 44 39 38 37 38 40 41 42 50 51 49 48 49 49 48 48 46 46 44 42 42 41 42 42 42 42 43 43 45 46 46 46 46
59 59 58 60 62 62 61 60 55 48 44 41 38 37 37 39 41 41 42 47 48 46 45 45 48 45 44 42 41 41 40 38 39 39 39 40 41 42 43 44 46 45 46
59 59 58 58 62 61 61 60 56 49 46 44 39 36 35 38 40 40 40 41 42 44 43 41 40 39 42 41 40 40 39 39 39 38 38 38 40 40 42 43 44 45 45
61 60 59 58 59 61 61 59 56 52 48 45 38 34 34 32 33 40 39 38 38 38 40 39 38 36 38 39 39 37 35 36 37 39 38 39 39 41 43 44 45 44 44
64 62 61 60 58 58 59 58 56 52 48 45 36 34 33 34 32 32 39 37 36 37 36 38 36 34 36 38 35 33 33 33 35 37 38 39 41 43 44 44 44 45 45
64 64 62 62 61 58 58 58 57 53 48 44 39 39 40 38 32 32 32 38 35 34 34 34 31 29 32 32 35 34 32 37 37 38 39 39 40 42 42 43 43 44 44
63 64 64 63 62 61 59 58 58 55 49 44 41 42 43 39 34 31 32 35 36 33 32 32 30 28 28 32 32 35 37 34 33 34 37 39 39 40 41 42 43 43 43
64 63 63 63 62 62 61 60 59 56 50 47 43 42 42 37 35 35 30 30 34 34 32 31 30 28 27 29 33 38 36 32 32 34 35 37 38 40 41 42 42 42 42
59 62 62 61 61 62 61 61 59 58 53 49 46 46 43 40 35 33 34 30 31 32 32 31 29 28 27 27 29 34 34 31 32 32 34 36 37 38 40 40 40 39 40
57 59 61 60 60 61 62 61 60 58 54 51 51 47 44 45 40 36 36 32 30 30 29 30 30 29 27 27 32 35 33 31 30 31 33 35 36 37 37 36 37 37 38
51 55 59 60 60 60 61 61 60 58 57 53 52 50 47 44 43 41 39 38 36 31 28 28 28 28 26 26 30 31 31 31 30 30 33 35 34 34 34 34 34 35 35
53 54 55 58 59 60 60 60 59 58 58 55 54 52 48 45 45 43 42 43 42 34 31 32 32 35 31 31 34 29 24 25 25 27 30 32 32 33 33 33 33 33 34
51 51 53 54 55 57 59 59 58 57 56 54 53 51 49 44 42 40 38 36 40 38 33 33 33 34 35 33 31 30 29 33 34 35 33 31 31 30 31 32 32 32 32
49 50 50 50 51 52 54 54 53 53 53 51 50 50 43 39 38 37 36 37 38 39 38 32 32 32 31 30 33 34 35 34 34 34 32 29 29 30 31 32 31 32 32
47 46 46 46 47 47 49 49 48 47 48 46 44 42 39 38 37 37 36 36 36 37 35 32 31 31 32 33 33 33 32 31 29 27 28 29 31 31 30 28 28 31 31
41 39 39 39 39 40 42 41 42 43 42 41 40 39 38 36 35 35 35 34 35 35 35 34 32 32 32 32 32 33 31 30 29 29 29 27 24 23 25 28 30 31 31
37 36 36 35 35 35 36 37 37 36 36 36 36 36 35 35 34 34 34 33 33 33 33 32 31 31 31 32 32 30 28 29 29 27 22 22 23 25 26 27 26 27 27
38 37 36 36 36 37 36 36 36 35 35 35 35 35 35 35 35 34 33 33 32 31 31 31 30 30 30 30 29 28 28 27 23 23 23 23 24 24 24 25 25 24 25
38 38 38 37 37 37 37 36 35 34 33 33 32 32 33 35 37 36 36 35 33 31 31 30 30 28 26 25 26 25 24 22 21 23 23 22 23 23 24 24 25 25 26
35 35 36 37 37 37 37 36 34 32 31 31 31 31 32 33 32 33 35 35 35 34 32 30 26 27 24 23 24 23 22 22 22 23 23 22 23 23 24 23 24 24 25
33 33 33 33 34 36 36 35 32 31 31 31 31 31 30 30 30 30 29 29 28 27 27 27 26 25 25 25 24 24 24 24 24 24 23 21 22 21 22 23 24 24 26
31 31 31 31 32 33 34 33 30 29 29 29 30 30 29 29 30 27 24 25 25 25 24 26 25 24 23 24 25 24 23 22 21 21 22 21 21 21 21 21 23 25 25
31 31 30 31 30 29 28 26 27 27 25 25 24 23 20 21 22 23 25 24 24 21 21 20 19 20 21 19 19 21 22 19 19 20 22 21 22 23 20 23 22 22 23

GFSMA_sfc_30mbdewp_045.txt.gz
Dewpoint
59 61 61 60 62 64 63 61 59 56 52 44 40 38 38 41 59 60 61 61 60 58 56 55 54 53 53 52 51 52 51 52 51 51 51 51 50 50 50 50 50 50 50
60 60 60 59 58 62 62 62 60 56 49 42 39 37 38 40 53 59 59 59 58 57 55 54 53 52 53 51 51 51 50 51 50 50 49 49 49 49 49 49 49 49 49
60 60 59 60 58 59 60 58 58 52 44 42 37 36 38 39 49 56 56 56 56 55 55 53 52 52 52 51 49 48 48 48 47 47 47 47 47 47 47 47 48 48 48
59 61 60 60 60 59 59 59 56 52 46 41 37 36 37 39 42 54 54 54 53 53 54 53 51 51 51 51 48 46 46 45 45 43 44 44 44 44 46 46 46 46 47
58 59 60 60 61 61 60 59 58 52 47 42 38 38 37 38 41 44 53 52 50 49 49 52 52 52 49 48 47 44 44 42 43 42 41 42 42 43 44 45 46 46 46
59 58 58 59 62 61 61 60 59 53 47 44 40 38 37 38 40 41 44 51 49 47 47 46 49 48 48 46 45 44 44 41 40 39 40 40 41 41 43 44 45 45 45
63 59 59 58 61 61 61 61 59 56 48 45 41 37 36 35 36 40 41 42 46 46 45 43 43 41 45 46 43 42 42 41 40 41 39 40 40 41 43 44 45 45 45
64 64 61 59 59 61 61 60 59 54 51 45 41 35 33 33 33 33 38 40 40 41 43 41 40 38 39 43 42 42 39 38 38 40 40 40 41 42 44 44 45 45 45
64 64 64 62 60 59 60 60 59 56 53 49 43 40 37 36 35 33 32 39 38 38 39 40 38 36 36 39 42 40 37 35 37 39 40 41 43 43 43 43 44 44 44
64 63 63 63 62 61 59 58 59 58 55 50 45 41 44 41 37 37 34 34 38 36 36 38 37 34 34 35 37 37 37 37 38 39 40 40 41 41 42 43 44 44 44
63 63 63 63 62 62 61 60 59 57 54 53 48 44 44 41 37 36 37 35 38 37 35 34 34 31 31 33 35 37 38 38 35 36 38 39 39 41 42 43 43 43 43
59 63 63 63 63 62 62 61 60 58 57 53 50 48 44 42 42 37 37 37 37 38 36 33 32 30 29 32 34 37 40 38 36 36 37 37 38 39 40 41 42 41 40
50 56 61 61 61 61 60 60 61 60 58 55 51 49 48 46 46 42 40 37 35 36 35 35 33 31 29 31 32 40 40 36 34 34 34 36 38 38 38 39 38 38 39
53 54 55 58 59 59 60 60 60 59 58 56 54 51 49 49 48 45 44 41 39 35 33 33 36 34 30 31 37 39 36 35 33 34 37 39 39 36 36 36 36 36 36
51 51 53 53 56 58 59 59 59 58 58 57 55 54 52 50 48 46 46 45 43 41 36 34 35 37 37 38 40 36 38 40 40 40 38 38 36 36 36 35 35 35 35
49 49 50 50 52 53 56 57 57 56 56 55 55 54 51 48 47 46 44 44 45 43 40 36 36 37 39 40 41 38 37 38 38 38 37 38 37 37 36 33 33 34 34
46 46 47 47 47 49 51 52 52 52 52 52 51 51 48 45 43 41 41 41 41 43 41 34 34 35 35 37 38 37 36 36 36 36 37 39 38 33 32 32 33 33 33
39 38 38 39 40 42 43 46 46 46 47 47 46 45 42 40 39 38 38 37 38 39 38 35 32 32 33 34 35 34 35 36 35 35 35 34 32 31 32 32 30 29 30
37 36 35 35 36 37 39 39 40 40 41 41 40 40 39 38 37 36 36 37 37 37 36 35 32 32 32 32 32 34 34 33 31 31 31 31 30 27 26 27 28 30 31
36 36 36 36 36 36 36 36 37 37 36 36 36 36 36 36 36 35 35 35 34 34 34 34 32 31 32 32 33 32 31 31 29 29 28 25 25 26 26 28 28 27 28
37 37 37 37 37 37 37 35 35 35 35 35 35 36 36 36 36 35 34 33 33 32 32 32 31 31 31 30 30 30 29 28 25 25 23 23 24 23 23 25 26 25 25
38 38 38 37 36 36 37 36 34 33 33 33 32 33 34 35 37 37 36 35 34 32 31 31 30 29 30 28 27 27 25 22 20 24 22 22 23 23 23 24 26 27 27
35 34 35 36 36 36 36 36 34 32 31 31 31 31 31 32 32 32 33 34 35 36 33 31 27 27 25 23 24 23 23 22 21 22 23 23 24 22 24 24 25 26 26
33 33 33 34 36 36 36 34 32 30 30 30 30 30 29 29 30 30 29 29 28 27 26 27 28 26 24 25 24 24 23 24 24 24 24 20 22 21 22 23 25 26 27
30 31 32 32 32 33 31 31 29 27 27 27 28 28 28 28 28 24 25 24 25 24 23 27 26 25 24 24 24 24 23 22 21 21 22 21 21 22 22 22 23 26 27
30 30 29 29 29 26 25 25 27 26 23 24 25 21 22 22 24 25 26 23 23 21 22 22 20 19 20 19 21 20 21 19 18 18 22 22 22 23 20 21 23 22 23

GFSMA_sfc_30mbdewp_048.txt.gz
Dewpoint
60 61 61 62 62 64 63 61 60 58 53 49 45 42 38 40 53 61 62 62 62 60 58 56 55 55 54 53 53 53 53 52 52 52 52 52 51 51 51 51 51 51 51
60 60 60 60 61 63 63 62 61 59 56 51 43 39 38 39 54 60 60 61 61 60 58 56 55 55 54 53 52 52 53 52 51 51 51 51 51 50 50 50 50 50 50
60 60 60 60 59 60 62 62 61 60 56 50 42 38 37 38 45 58 59 59 60 59 58 56 55 54 54 53 52 52 51 51 51 50 50 49 49 49 49 49 49 49 49
61 60 59 59 60 58 59 60 59 58 55 48 42 38 36 38 40 55 57 57 57 56 57 57 56 54 54 53 51 50 50 49 48 47 47 47 47 48 48 47 47 47 47
59 60 60 60 60 59 58 59 58 55 53 48 42 39 37 37 39 47 55 55 54 54 54 55 56 55 54 53 51 50 48 47 46 44 45 44 44 45 45 47 47 46 46
59 59 60 60 60 60 60 59 58 56 52 50 44 39 38 38 39 41 49 54 52 51 51 51 53 53 53 52 51 49 47 46 45 44 43 43 43 44 44 45 46 46 46
64 60 59 59 60 61 60 60 59 58 54 47 43 39 38 37 37 40 42 49 51 50 49 48 49 50 51 51 50 48 47 45 43 42 42 42 43 43 43 44 45 46 46
64 64 61 59 59 60 60 60 60 57 56 49 46 39 41 39 36 35 38 41 45 49 47 46 45 45 46 48 48 48 46 45 44 43 42 42 42 43 44 46 46 46 47
64 63 63 63 60 60 60 60 60 59 57 51 48 47 39 43 38 35 34 37 40 42 46 47 44 42 42 44 46 47 47 43 41 41 42 43 43 43 45 45 45 45 46
63 63 63 63 62 60 59 60 60 60 58 55 50 47 46 41 39 41 35 34 38 39 40 44 43 42 41 40 43 44 44 41 39 39 41 42 43 44 43 44 44 45 45
59 63 63 63 62 62 61 60 59 59 58 58 51 48 47 45 40 39 41 39 40 39 40 39 41 42 38 37 39 41 43 40 37 39 41 42 42 42 42 43 44 44 45
50 56 60 62 62 61 61 60 59 58 58 57 56 53 49 46 45 41 38 39 39 41 42 40 39 38 35 36 37 38 42 38 39 38 39 41 41 42 42 43 44 43 42
52 53 55 58 61 61 61 60 60 59 58 57 56 53 52 49 49 46 46 46 42 41 37 38 37 36 34 37 39 41 43 41 39 41 42 41 40 40 42 43 42 42 40
51 51 52 54 56 58 58 59 59 59 58 58 57 54 53 51 50 49 47 45 42 40 39 38 37 35 36 36 39 42 44 43 40 39 41 41 43 44 44 42 41 41 40
49 50 50 51 52 53 56 58 58 57 57 57 56 55 52 52 51 50 49 48 47 44 41 38 35 38 37 39 41 42 43 44 43 43 43 42 42 43 43 42 41 40 40
46 47 47 48 49 50 52 54 54 54 54 54 54 54 53 51 50 49 48 47 47 46 43 39 36 38 39 41 43 41 41 43 42 42 42 42 42 42 41 41 41 39 36
40 39 41 43 44 45 46 48 48 48 49 49 48 49 48 46 46 45 44 44 43 44 42 39 35 36 37 39 41 38 40 39 39 41 41 41 40 40 41 40 36 34 35
37 36 37 37 38 40 40 42 43 43 44 44 43 43 41 41 40 39 39 39 39 40 40 38 34 34 35 36 36 36 37 37 37 37 38 39 39 39 36 35 34 34 32
36 36 36 36 36 37 37 38 38 38 38 38 39 39 38 38 38 37 37 37 37 37 36 36 33 32 32 33 32 34 34 35 36 36 38 38 36 35 34 31 29 29 30
36 37 37 37 37 36 35 35 35 35 36 36 36 36 36 36 35 35 35 35 34 34 34 34 33 32 32 31 32 32 31 33 33 34 31 29 28 27 28 28 28 29 30
38 38 37 36 36 36 36 34 34 34 34 34 35 36 38 38 37 36 34 34 33 33 32 32 31 31 31 31 30 31 31 30 28 27 25 23 23 23 23 25 25 26 27
36 37 36 35 36 36 36 36 34 33 33 33 32 33 34 35 36 38 37 36 35 33 31 31 30 30 30 30 30 29 27 24 20 24 22 21 23 22 23 24 26 27 28
35 35 35 37 36 36 36 35 34 32 31 31 30 30 30 32 31 32 33 34 34 35 35 31 29 27 25 23 24 23 23 22 21 22 23 22 24 22 23 24 26 26 27
33 33 33 34 35 35 35 34 32 29 28 28 28 28 27 28 29 29 28 26 27 26 26 26 28 26 25 24 24 23 23 23 24 24 24 20 22 21 22 22 25 26 27
31 31 32 32 30 28 29 29 26 25 25 25 26 26 24 24 24 25 24 24 24 23 23 27 26 25 25 24 25 25 23 22 21 21 22 21 21 22 22 22 23 27 27
30 29 28 28 29 25 26 27 24 23 21 21 19 18 25 25 26 27 24 23 22 22 22 23 21 19 20 19 21 21 21 17 18 17 21 21 22 22 19 20 23 22 22

GFSMA_sfc_30mbdewp_051.txt.gz
Dewpoint
59 60 60 61 62 64 64 62 60 58 55 49 46 46 43 39 43 58 62 64 63 62 61 58 56 56 55 54 54 54 54 53 53 53 53 53 53 52 53 52 52 52 53
60 59 60 60 61 62 63 62 61 60 59 56 51 46 41 39 41 54 60 61 62 62 61 58 57 56 56 54 53 53 54 53 52 53 52 52 52 51 51 51 52 52 51
61 60 60 60 60 61 62 62 61 61 59 57 52 47 40 38 39 53 59 60 61 61 61 58 58 56 56 54 53 53 53 53 52 52 51 51 50 50 50 50 50 50 50
62 60 60 60 60 59 60 61 60 60 59 58 55 50 41 38 38 44 56 58 59 59 59 60 59 57 56 55 53 53 52 52 51 51 50 49 49 49 49 49 49 49 49
62 61 60 60 60 59 58 59 59 59 58 56 53 49 43 38 37 40 50 56 57 57 57 57 59 58 57 55 54 53 52 51 50 49 48 48 47 47 48 48 47 47 47
60 60 60 60 60 59 59 58 58 57 56 55 53 49 43 40 38 39 43 53 55 56 55 54 55 57 56 56 54 53 52 50 49 47 46 46 45 46 46 46 47 47 47
61 59 59 59 60 60 60 59 58 58 57 51 48 46 43 40 39 38 40 45 52 53 53 52 52 53 54 56 55 53 52 50 49 47 46 45 45 45 45 46 46 47 47
64 64 61 59 59 59 60 60 60 58 57 52 52 44 48 46 39 38 38 40 44 52 51 50 49 50 51 53 53 54 52 49 49 46 45 44 45 45 44 45 46 47 47
64 63 64 63 61 59 59 59 60 59 58 54 51 53 46 46 43 40 36 37 40 44 49 49 48 48 48 49 51 52 52 51 48 47 46 45 45 44 44 45 47 46 46
62 63 63 63 62 61 60 60 60 59 58 57 51 50 49 43 47 46 40 36 35 39 41 46 48 47 46 46 47 49 49 49 48 46 44 43 45 45 45 45 45 45 46
47 55 60 62 62 62 61 60 59 59 59 58 55 51 49 47 44 45 49 47 42 41 41 40 44 45 45 44 44 46 48 48 46 43 40 41 44 45 45 44 44 45 46
52 53 54 58 61 61 61 60 59 58 58 58 58 55 52 50 48 46 44 46 44 43 43 42 40 41 43 42 42 45 48 48 47 46 43 43 43 44 44 44 46 48 48
51 51 52 53 56 59 60 60 59 58 58 57 57 56 54 54 52 50 48 47 45 44 42 42 44 43 42 41 42 45 47 49 50 48 46 44 44 44 44 45 46 46 46
50 50 50 51 52 54 57 58 58 58 58 57 57 56 55 54 52 51 49 48 46 44 41 41 39 39 41 40 42 45 46 48 47 47 47 47 46 47 46 47 46 45 45
48 48 48 48 49 51 53 56 57 57 57 56 56 56 54 53 52 51 51 50 48 45 44 42 40 38 39 40 42 44 45 46 46 46 45 47 46 46 45 45 44 44 44
42 43 44 45 45 46 48 51 51 51 52 51 51 52 52 49 49 49 49 48 48 47 44 42 37 37 39 41 43 43 44 46 46 45 45 45 44 44 43 43 43 42 43
38 38 38 40 40 41 43 45 45 45 46 46 45 46 43 43 43 42 42 42 43 43 42 41 37 36 37 40 40 40 42 41 44 44 44 43 43 43 43 42 42 43 42
36 37 37 37 37 38 38 39 40 41 41 41 41 41 40 40 39 39 39 39 39 39 39 38 35 34 35 36 37 37 39 39 39 39 41 42 41 41 40 41 40 38 37
36 37 37 36 36 36 36 36 37 37 37 37 37 36 36 37 37 37 37 36 36 37 36 36 34 33 33 34 33 34 35 36 37 37 38 40 40 40 40 40 39 37 33
37 37 37 37 36 35 35 35 35 34 35 36 36 37 36 35 35 35 35 35 34 34 34 34 33 32 32 31 32 32 31 33 33 36 37 37 35 32 33 32 30 30 30
37 36 36 36 36 36 36 34 34 34 34 34 35 35 37 38 38 37 34 34 34 33 33 32 32 31 31 31 31 31 31 31 31 32 28 26 24 23 23 25 25 25 26
36 36 36 35 36 35 36 35 34 33 33 33 32 32 34 34 34 37 37 36 36 32 31 31 30 29 30 30 31 30 29 26 22 24 22 21 22 22 23 23 25 26 28
35 35 36 36 36 35 35 35 33 32 30 29 28 28 29 30 29 28 29 29 29 30 31 30 27 26 24 23 23 23 23 22 21 22 23 22 24 22 23 23 26 27 28
33 33 33 33 32 33 33 33 30 26 26 26 26 25 24 25 26 27 24 24 25 23 27 26 26 26 25 24 24 23 23 23 24 24 25 21 21 21 21 22 25 27 28
31 31 31 27 26 26 28 27 25 23 23 23 22 23 22 24 26 29 24 23 23 22 24 27 26 25 25 25 25 25 23 22 20 21 22 21 21 22 23 22 23 27 28
29 28 27 27 28 25 27 25 21 20 17 17 17 19 25 26 26 26 24 22 20 22 23 22 20 19 19 18 19 21 22 18 17 16 20 21 21 21 19 20 22 22 22

GFSMA_sfc_30mbdewp_054.txt.gz
Dewpoint
60 60 60 60 62 63 64 63 61 59 57 52 47 45 46 43 40 44 57 62 65 64 62 61 58 57 56 55 54 54 54 53 53 54 54 53 53 53 53 53 54 54 53
60 59 59 59 60 62 62 63 61 60 59 58 57 53 47 42 39 43 54 60 63 63 63 61 59 58 57 55 54 54 54 53 53 53 53 53 52 52 52 52 52 52 52
61 60 59 59 60 60 61 61 61 61 60 59 57 55 49 44 39 40 51 58 60 62 62 61 59 59 57 56 55 54 54 54 53 53 52 52 52 51 51 51 51 51 52
62 61 60 60 60 60 60 60 60 60 59 59 58 57 53 47 41 39 47 56 58 60 61 62 61 59 58 56 55 54 54 53 53 52 52 51 51 51 50 50 50 50 50
64 62 61 61 60 60 59 59 59 59 58 58 57 57 54 51 45 39 40 49 56 58 59 59 60 60 59 58 56 55 54 53 53 52 51 50 49 49 49 49 49 48 48
62 62 62 61 60 60 59 58 58 58 58 57 56 55 52 50 45 41 39 44 50 55 57 57 57 58 59 59 56 55 54 53 52 51 49 49 48 47 47 49 48 48 48
60 60 60 60 60 60 59 59 58 58 57 54 53 53 50 47 45 43 41 41 46 52 55 56 56 55 56 58 58 55 54 53 53 51 50 48 47 47 47 47 47 47 48
64 63 61 59 59 59 59 59 59 58 57 54 55 49 53 51 45 42 40 40 40 48 51 53 53 53 53 54 56 57 55 53 53 52 50 48 47 46 46 46 47 47 48
64 63 64 63 62 60 59 59 59 59 58 55 53 56 50 49 46 46 41 38 38 41 47 50 51 51 51 51 52 55 56 56 52 51 51 48 47 46 46 46 46 48 48
52 59 62 62 62 62 60 60 59 59 58 58 53 52 52 47 51 50 45 40 36 37 40 45 48 49 49 49 50 51 53 55 52 50 52 52 50 48 47 46 46 47 46
48 52 54 56 59 60 61 60 60 59 59 58 56 54 52 49 47 47 50 50 45 43 41 41 43 46 47 47 47 48 51 53 53 53 51 51 52 51 49 47 47 46 46
51 51 52 53 56 57 58 59 59 59 58 58 58 56 54 52 49 48 47 47 48 47 45 43 41 41 44 45 45 46 49 51 52 53 54 53 51 50 52 50 49 50 49
50 50 50 50 52 54 57 59 59 59 57 57 57 57 56 55 53 51 50 49 48 46 45 43 44 43 43 42 42 45 48 50 52 52 52 52 50 51 51 51 50 50 49
49 49 48 49 49 52 53 57 58 58 57 57 57 56 55 55 54 52 50 49 47 46 43 44 40 39 40 41 42 44 46 47 50 51 52 52 51 51 50 49 49 48 47
45 45 46 46 47 48 50 54 55 54 55 54 54 55 54 53 52 52 51 50 49 45 44 43 41 38 38 39 41 42 44 46 46 49 51 51 51 50 48 48 47 47 46
40 40 41 42 42 43 46 48 49 50 49 48 49 48 47 47 47 46 47 47 47 46 43 42 39 38 39 40 43 42 44 45 45 46 50 50 48 48 47 46 46 45 45
37 38 38 39 39 39 41 43 43 45 45 44 43 43 42 42 42 42 42 43 43 43 42 41 38 37 37 39 40 41 42 42 44 48 48 46 46 45 44 45 45 44 43
37 37 37 36 37 37 37 39 39 39 39 39 39 39 38 39 39 39 39 39 39 39 40 38 35 35 35 36 37 38 39 39 39 41 42 42 42 42 43 42 42 42 42
37 37 37 35 35 35 35 35 35 36 36 36 36 35 35 35 35 36 36 36 36 36 36 36 35 34 33 34 34 35 35 36 37 38 38 39 39 40 41 41 41 41 41
36 36 36 36 36 35 34 35 35 35 35 36 37 37 37 35 34 34 34 34 34 34 34 34 33 33 33 33 33 32 32 33 33 36 37 38 38 38 37 38 36 34 33
36 36 36 36 36 36 35 34 35 35 35 34 34 35 36 38 37 36 35 34 34 33 33 33 32 32 31 31 31 31 31 31 31 32 29 27 26 25 24 25 26 25 25
36 36 36 35 36 36 36 35 34 33 32 31 30 31 32 30 31 34 34 35 34 31 30 30 29 28 28 29 28 28 27 25 22 23 22 21 22 22 23 23 25 25 26
35 35 36 35 34 35 35 34 33 30 26 25 25 27 28 29 28 24 27 27 28 29 29 29 26 26 24 23 22 22 22 21 21 22 23 22 23 22 22 22 25 26 28
34 33 32 30 31 32 32 31 28 24 24 24 23 22 22 24 27 25 24 23 24 23 27 25 25 25 24 24 24 23 23 23 24 24 24 21 21 20 21 22 25 27 28
32 30 28 25 26 27 28 27 24 22 20 20 20 24 24 25 27 28 23 22 21 22 24 26 26 25 25 25 24 25 23 21 20 20 22 21 21 21 22 22 22 28 29
30 28 26 25 28 25 26 24 20 18 15 16 19 21 25 26 26 25 23 21 18 21 23 21 18 17 17 15 19 21 21 18 17 14 19 21 21 20 18 19 21 21 22

GFSMA_sfc_30mbdewp_057.txt.gz
Dewpoint
60 60 60 61 62 63 63 63 62 61 59 57 53 48 46 46 44 42 47 55 62 66 64 62 61 58 57 56 55 54 55 53 53 54 54 54 53 53 54 54 54 54 54
61 60 59 59 59 61 62 63 63 62 60 60 59 58 56 50 45 42 43 50 59 64 64 62 61 59 58 57 55 55 55 54 53 53 54 53 53 53 53 53 53 53 53
61 61 60 59 59 60 60 61 62 62 61 60 59 58 57 54 48 44 43 48 53 60 63 63 61 60 59 57 57 55 55 54 53 53 53 52 52 52 52 52 52 52 52
63 62 61 60 60 60 60 60 60 60 60 60 59 58 58 57 55 50 44 45 50 55 59 63 63 61 60 59 57 57 55 55 54 53 53 52 52 52 51 51 51 51 51
64 63 62 62 61 61 60 60 60 60 59 59 59 58 58 58 57 54 51 45 46 52 55 59 62 62 62 60 58 56 56 55 54 54 52 52 51 50 50 50 50 50 50
63 63 63 62 62 61 61 60 60 59 59 58 58 57 58 57 56 54 53 49 46 47 52 56 58 59 60 61 59 57 56 55 55 54 53 51 51 50 49 50 49 49 49
61 61 62 62 62 61 60 60 60 59 58 58 57 57 56 55 54 54 52 49 49 48 49 51 54 57 58 59 60 58 57 55 55 55 53 51 50 49 48 48 48 49 49
64 63 62 61 60 60 60 60 60 58 58 57 58 54 55 53 51 49 48 46 45 44 46 48 50 53 55 57 57 59 58 56 54 55 55 52 50 49 48 48 48 48 48
63 64 64 64 63 61 61 60 60 59 59 57 57 57 52 50 49 49 46 43 42 42 44 47 48 49 51 53 55 55 57 58 55 53 54 57 52 50 49 48 48 47 48
46 53 60 62 63 62 61 61 60 60 59 58 55 54 55 52 53 51 50 45 39 40 40 43 45 48 50 51 51 52 53 55 56 54 52 54 58 55 50 49 50 51 49
52 53 54 55 57 58 58 59 59 59 59 59 57 55 55 52 50 50 50 52 49 48 46 43 43 44 47 47 48 49 51 52 53 54 53 53 56 56 55 54 54 52 52
52 51 51 52 54 56 56 57 57 59 59 59 59 58 55 53 52 49 48 49 49 50 47 46 45 43 44 45 46 47 48 49 51 53 53 53 54 54 54 54 54 53 52
49 50 50 49 50 52 54 57 58 59 58 58 58 57 56 55 54 51 51 50 49 48 48 47 44 44 44 44 44 44 46 47 48 50 52 53 55 54 52 52 51 54 54
48 47 48 48 48 49 51 55 57 58 58 57 57 57 56 55 54 53 52 50 47 46 46 47 41 41 41 41 42 43 44 46 46 48 50 52 54 54 53 51 52 53 52
43 44 44 45 45 46 49 52 53 54 53 53 53 54 54 51 52 52 51 51 49 45 44 44 43 40 41 41 43 42 42 44 45 45 46 48 50 52 52 51 51 50 49
39 40 41 41 42 43 45 48 49 49 48 48 48 48 47 47 46 46 47 47 48 47 44 44 41 39 39 41 42 42 43 45 45 45 46 46 51 49 49 48 48 47 47
38 38 39 39 39 40 41 43 44 44 44 43 43 43 42 42 42 42 43 43 43 44 43 42 39 38 39 38 39 41 42 42 42 44 47 47 46 46 45 45 45 45 44
37 37 37 37 37 37 38 39 39 39 39 38 39 39 38 39 39 39 40 39 39 39 40 39 37 36 36 37 37 38 39 39 39 40 42 42 42 42 42 42 43 42 42
37 37 36 35 35 36 36 36 37 37 37 37 36 36 36 36 36 36 37 37 36 37 38 37 36 35 35 35 35 36 36 36 37 38 39 39 40 40 41 41 42 42 42
36 36 37 36 35 35 36 36 36 36 36 37 38 38 36 35 35 36 36 36 35 36 36 35 34 34 34 33 34 33 33 35 34 36 35 36 37 37 37 37 37 36 34
36 36 36 36 36 36 35 35 36 35 35 34 34 35 35 38 37 36 35 34 34 34 34 34 33 32 31 31 31 31 30 30 31 27 25 25 26 27 28 27 26 26 26
36 36 35 36 36 36 35 36 34 33 32 33 32 32 30 29 31 33 34 34 33 32 30 30 29 28 27 26 25 25 25 23 23 24 23 21 23 22 22 23 23 25 26
36 36 35 35 35 36 35 34 31 28 27 28 28 28 27 28 25 25 27 27 28 29 29 28 25 25 24 24 24 25 24 24 22 22 23 19 22 18 18 20 24 27 27
34 33 32 32 33 34 33 31 27 25 25 24 23 24 26 27 28 25 24 24 24 27 27 26 26 26 26 26 26 25 25 24 23 22 23 18 20 18 21 22 25 28 28
32 30 28 28 28 29 28 27 24 22 22 22 23 25 26 26 28 27 23 21 20 22 25 26 25 25 24 24 24 25 23 21 16 18 21 20 20 20 21 21 22 26 28
31 28 27 26 28 26 26 24 22 17 16 16 19 21 26 26 25 27 23 19 18 21 23 19 15 14 15 16 22 20 22 19 19 17 19 21 20 20 21 19 20 21 21

GFSMA_sfc_30mbdewp_060.txt.gz
Dewpoint
61 60 56 54 54 56 57 57 58 58 57 56 55 53 52 50 48 46 44 47 53 62 66 64 61 61 59 57 56 55 55 53 54 54 54 54 53 54 54 55 55 55 55
61 61 59 57 54 55 56 58 59 60 59 59 57 56 56 56 53 49 47 47 51 57 64 65 63 62 59 58 57 56 55 55 54 54 54 53 53 53 53 53 53 53 54
62 61 60 59 59 58 58 59 59 60 60 60 59 58 58 57 57 54 51 50 49 53 57 64 64 61 59 58 58 57 56 55 54 53 54 53 53 52 52 52 53 53 52
62 62 60 60 60 60 60 60 60 59 59 59 59 58 58 59 58 58 56 54 52 51 53 58 63 63 61 60 59 58 58 56 55 54 53 53 53 52 52 52 52 52 51
61 62 61 61 61 61 61 61 60 60 60 59 59 59 59 59 59 58 58 57 55 52 52 53 59 62 63 62 60 59 58 58 56 55 54 53 52 52 51 51 51 51 51
62 62 62 62 62 62 61 61 61 61 60 60 59 58 59 59 59 58 57 57 57 54 52 52 52 54 59 62 61 59 58 57 58 56 55 53 52 51 51 50 50 50 50
62 62 62 62 63 62 61 61 61 60 60 60 59 58 58 58 57 57 56 55 54 54 53 52 52 51 52 59 61 61 59 58 57 58 56 55 53 52 50 50 49 50 49
63 63 63 63 63 63 62 62 61 61 60 61 59 58 56 52 52 54 54 53 52 51 49 50 49 49 50 51 53 60 60 59 57 56 58 56 54 52 51 50 49 49 49
64 64 64 64 64 64 63 63 63 62 60 61 60 59 55 49 51 52 52 50 48 48 47 47 48 49 49 49 50 54 57 59 59 57 56 56 58 54 52 50 49 49 50
46 48 56 61 63 63 62 62 62 62 61 59 59 59 59 56 53 51 53 51 47 46 48 47 46 47 47 49 50 52 53 54 55 57 57 56 55 58 55 53 50 50 49
51 52 51 53 53 55 57 58 58 58 60 59 59 57 57 57 55 54 51 53 53 50 50 49 48 47 47 47 47 48 49 50 51 52 54 55 55 58 57 56 53 50 51
50 51 51 52 53 54 55 55 55 56 56 56 58 59 56 54 54 53 51 52 51 52 50 50 49 47 46 45 45 45 47 48 49 50 52 53 54 55 57 56 55 54 53
49 50 50 50 50 51 53 55 55 56 57 57 56 58 58 57 55 52 51 51 50 50 49 48 46 45 44 46 45 44 45 47 47 49 51 53 54 55 55 56 54 55 53
48 48 48 48 49 49 50 52 54 56 58 58 58 58 57 57 56 54 52 51 50 49 48 46 44 43 43 43 44 44 45 45 45 46 47 48 49 50 52 55 54 53 53
44 44 45 45 46 47 49 51 53 54 54 54 53 53 52 51 52 53 53 52 51 47 46 47 46 43 43 43 44 44 44 45 45 45 46 46 46 48 51 53 53 51 50
42 42 43 43 44 45 47 49 50 49 49 49 49 49 48 48 48 48 49 50 49 49 46 46 43 42 41 41 41 42 43 44 45 45 48 48 48 50 50 49 48 48 47
40 40 41 41 41 42 44 46 46 46 45 45 45 44 44 45 45 44 45 45 45 46 45 42 41 40 41 40 40 41 42 42 42 43 44 45 45 46 46 46 46 46 46
39 39 39 39 39 40 41 42 42 42 42 42 41 42 41 41 42 42 42 42 42 42 43 42 39 40 39 38 38 38 38 39 40 40 42 42 42 42 43 43 42 42 42
39 38 38 37 37 38 39 39 39 39 39 38 38 38 38 39 39 39 39 39 39 39 40 39 38 37 37 36 36 37 36 37 37 36 37 38 40 40 40 40 41 40 42
38 38 38 37 37 37 38 38 38 38 38 38 38 38 37 37 37 37 38 37 38 38 37 37 36 36 35 34 35 33 34 34 34 33 31 31 32 34 35 36 36 34 34
38 37 37 37 37 37 37 37 37 37 36 36 36 36 37 38 37 36 36 36 36 36 36 36 35 34 33 31 31 31 30 29 29 26 25 24 24 25 26 28 27 27 27
36 36 37 36 36 36 38 37 36 35 35 34 34 33 32 31 34 34 34 33 32 32 33 33 33 30 29 27 25 25 23 22 22 25 21 18 20 20 20 21 22 26 27
37 36 36 36 36 36 36 35 33 33 33 33 32 32 29 27 27 28 27 27 29 30 29 25 22 23 22 22 26 26 24 23 21 20 19 16 17 14 16 17 23 27 28
36 35 35 35 35 34 34 30 29 29 29 28 28 30 31 31 29 25 24 23 24 26 26 25 25 25 26 26 26 26 24 23 21 18 20 17 17 18 20 21 24 29 29
34 33 32 32 33 32 30 27 27 27 27 26 27 26 25 26 29 26 22 21 17 22 26 26 25 24 24 24 24 24 24 20 17 14 18 20 19 19 20 20 22 25 25
32 31 30 31 30 31 28 26 23 17 17 15 17 22 26 26 26 28 22 16 15 18 21 20 15 13 14 16 22 17 19 21 19 20 19 21 21 21 23 20 20 21 22

GFSMA_sfc_30mbdewp_063.txt.gz
Dewpoint
60 58 54 51 52 53 54 55 56 55 55 55 54 53 51 51 49 48 47 48 47 54 63 65 63 62 60 58 57 56 55 54 54 54 54 54 53 54 54 55 55 55 55
60 59 58 56 52 52 53 54 57 58 58 58 57 56 55 55 55 54 51 50 48 51 58 64 65 62 62 60 59 57 56 56 54 54 54 54 53 53 53 53 53 53 54
59 59 58 58 58 56 55 56 57 58 59 59 58 58 58 57 57 56 55 54 53 51 51 58 62 62 61 61 60 59 58 57 56 54 54 54 53 53 52 53 53 53 52
60 60 59 59 59 59 59 59 59 58 58 58 58 57 57 58 58 58 58 58 56 55 55 54 58 61 61 60 60 59 59 58 57 55 54 53 53 53 52 52 52 52 51
61 61 61 61 61 61 60 60 60 59 59 58 58 58 59 59 59 59 58 58 58 57 55 56 56 58 62 63 60 59 60 60 58 56 56 55 54 53 52 52 52 52 52
61 61 61 61 61 61 61 60 60 60 60 60 59 59 59 59 59 59 58 56 56 58 57 55 56 56 56 60 61 60 59 59 60 58 57 56 54 53 52 51 51 51 51
61 62 62 62 61 61 61 60 60 59 60 61 60 59 59 59 59 58 57 55 55 55 55 55 54 54 54 57 60 61 60 59 59 59 59 57 56 54 53 52 51 50 50
62 62 62 62 62 62 62 61 60 60 60 61 60 59 56 55 53 55 54 54 54 53 52 51 51 51 51 52 54 59 60 60 59 58 58 59 58 56 55 53 52 51 51
64 64 64 64 65 65 64 64 63 63 61 61 61 59 55 51 52 53 53 53 52 51 50 49 49 50 50 51 51 52 55 57 58 59 59 58 58 58 57 55 53 51 50
52 53 57 61 63 63 63 63 63 63 62 60 61 60 60 58 54 51 52 53 52 49 50 50 49 48 48 49 49 50 51 52 52 54 56 57 57 57 58 57 55 52 51
49 50 50 51 52 53 55 56 57 57 58 58 58 58 58 58 57 55 52 52 54 53 52 51 50 48 48 48 48 48 48 49 50 51 52 53 54 55 56 58 59 55 52
48 51 51 51 52 53 54 55 55 56 55 55 55 56 55 55 54 54 53 53 53 53 51 50 49 49 48 47 46 46 46 48 49 50 52 53 53 56 57 56 57 56 54
47 49 51 50 50 51 51 52 54 55 54 54 55 55 56 56 56 54 53 52 51 51 50 49 46 46 45 46 45 45 47 47 47 48 50 51 51 51 52 54 55 56 58
47 49 48 48 48 48 49 50 52 53 55 56 57 57 57 57 57 55 53 52 50 50 49 48 45 44 45 44 45 45 46 45 46 47 48 48 48 48 49 51 53 56 54
46 45 45 45 46 46 47 48 51 51 54 54 53 53 52 51 51 52 53 53 51 48 48 48 46 44 44 44 43 44 44 44 45 45 46 48 48 47 49 52 54 52 50
43 43 44 44 44 44 46 48 49 50 50 50 50 50 49 49 49 50 50 51 51 50 47 47 44 43 43 42 42 42 42 43 43 45 45 46 48 50 50 51 50 49 49
42 41 41 42 42 42 44 46 47 47 47 46 46 45 45 46 46 46 47 47 47 48 46 43 42 41 41 40 40 40 40 40 42 42 43 44 44 45 46 47 47 47 46
40 40 40 40 40 41 42 43 43 44 44 44 43 43 42 43 43 43 44 43 43 43 43 42 41 40 39 38 38 38 38 39 39 39 41 41 42 43 43 43 43 43 42
40 39 39 38 38 39 40 40 40 40 40 40 39 39 39 40 40 40 41 41 40 40 40 39 38 39 38 36 36 36 36 37 37 35 35 37 38 39 40 41 41 39 41
39 39 39 38 38 38 38 39 39 39 39 39 38 38 37 38 38 38 38 38 38 38 38 38 37 37 35 35 35 34 34 35 34 30 31 30 31 33 35 36 35 34 34
38 38 38 38 38 37 37 38 38 38 38 37 36 36 37 38 37 37 36 36 36 36 35 36 35 36 33 32 31 32 30 28 29 26 24 25 23 25 27 26 27 27 29
37 37 37 37 37 36 38 38 37 37 36 35 34 34 33 34 34 33 33 33 31 32 33 33 32 31 31 28 25 25 24 24 24 24 21 19 20 20 19 19 22 24 27
37 37 36 36 36 36 38 36 36 36 35 34 34 32 28 27 28 28 27 26 30 29 28 27 23 23 23 24 28 28 26 25 23 23 21 18 18 17 19 19 25 27 29
37 36 36 36 36 35 35 33 33 33 31 30 30 32 32 32 28 25 24 24 24 26 27 25 26 26 27 27 26 26 25 24 23 22 21 18 19 20 21 22 25 28 29
35 35 35 35 35 34 32 28 28 28 27 27 28 26 25 27 29 26 23 22 17 22 27 25 24 23 24 24 24 25 25 22 21 14 20 21 22 21 21 21 24 26 25
34 34 33 33 33 31 28 26 26 22 23 18 20 24 27 27 26 28 24 18 15 18 21 22 18 17 16 16 20 20 19 23 23 22 22 22 24 23 24 23 21 23 23

GFSMA_sfc_30mbdewp_066.txt.gz
Dewpoint
59 59 54 54 56 58 56 57 57 56 56 55 55 54 52 51 51 50 49 49 50 51 58 65 64 63 61 59 57 56 55 55 54 54 54 54 54 54 55 55 55 55 55
61 60 58 55 53 53 54 55 55 58 58 58 57 57 55 55 56 55 53 51 49 50 53 58 65 64 63 61 59 57 56 56 55 54 54 54 53 53 53 53 53 54 54
60 60 59 58 57 55 54 55 57 58 59 59 59 59 58 58 58 57 56 54 53 52 52 55 57 61 61 62 61 61 59 58 57 55 54 54 54 53 53 53 53 53 52
61 60 59 59 60 59 59 58 58 59 59 59 59 59 58 58 58 58 58 58 56 55 54 55 56 58 60 60 60 60 61 60 58 57 56 54 54 54 53 53 53 53 52
61 61 61 61 61 61 61 60 60 60 59 59 58 58 58 59 59 59 59 59 59 58 57 56 56 57 60 61 60 60 60 61 60 59 57 56 55 54 53 52 52 52 52
62 61 61 61 61 61 60 60 60 60 60 60 60 59 60 60 60 60 60 59 57 56 58 56 57 57 57 58 59 59 59 59 60 60 59 58 56 55 54 53 52 52 52
61 61 62 62 60 61 60 60 60 59 59 60 60 60 60 60 60 59 59 57 56 56 55 55 55 55 55 57 59 60 59 59 59 59 61 60 58 56 55 55 53 52 52
63 63 62 62 62 62 62 62 62 61 60 61 59 59 55 55 56 56 58 55 54 52 53 52 52 51 51 52 55 58 60 60 59 60 59 59 60 59 57 56 55 53 52
63 64 64 64 64 65 64 64 63 62 61 61 61 58 55 52 54 53 53 53 52 52 50 49 49 49 50 50 50 51 53 53 54 55 57 58 58 59 59 59 57 54 53
53 53 55 60 63 63 63 62 63 62 62 60 61 61 60 59 54 51 52 53 53 50 51 49 49 48 48 49 50 49 49 50 52 53 54 54 55 56 57 58 59 57 54
48 50 50 51 52 53 54 56 56 58 58 57 56 55 57 56 56 55 51 51 54 53 51 52 50 48 48 46 45 47 49 50 52 53 54 54 54 56 57 58 57 58 57
51 51 51 51 52 53 53 54 56 56 56 55 54 53 53 53 54 53 52 51 52 53 53 51 49 47 47 45 46 48 48 49 50 51 52 53 54 54 54 55 56 57 58
48 51 51 50 50 50 51 51 52 54 55 53 53 54 53 53 54 55 54 52 52 53 51 47 47 46 45 45 45 47 47 47 48 49 50 50 50 50 50 52 54 54 55
48 48 48 48 48 47 48 49 50 52 54 54 55 55 56 56 56 55 53 52 50 51 50 47 45 45 45 44 44 46 45 46 46 47 48 49 49 48 48 51 52 54 54
45 44 45 45 45 46 46 47 49 51 53 53 52 52 52 51 52 53 54 53 52 48 49 47 44 43 43 43 43 43 43 44 44 45 45 47 50 48 50 52 52 52 53
44 43 44 44 44 44 45 46 48 49 49 50 50 50 49 49 49 50 51 51 51 50 48 46 43 42 43 42 42 41 41 43 43 44 45 46 47 48 49 50 51 51 50
42 42 41 42 42 42 43 44 46 46 47 46 46 46 45 47 47 46 46 47 47 47 47 43 43 41 40 39 39 39 39 40 42 41 42 44 44 45 45 45 46 47 47
41 40 40 40 40 40 41 41 43 43 44 44 44 44 42 44 43 43 44 42 42 41 43 42 41 40 38 37 37 37 37 38 38 37 39 41 41 42 43 44 44 44 43
40 40 39 38 38 39 39 40 40 40 40 39 39 39 39 40 40 40 40 40 40 40 39 40 38 38 37 36 35 36 36 36 37 34 33 34 36 37 40 41 41 39 40
40 39 39 38 38 38 38 39 39 39 39 39 39 38 38 38 38 38 38 38 38 38 38 38 37 36 35 35 35 33 32 34 31 27 28 30 29 32 34 34 34 33 33
39 38 38 38 38 38 38 38 39 39 38 37 37 37 38 37 38 37 36 36 36 35 35 35 35 35 33 33 31 31 27 26 27 24 22 21 22 22 26 28 29 29 28
38 37 37 37 37 36 38 39 38 37 37 35 34 34 34 34 34 34 34 31 32 33 33 33 32 31 30 27 26 25 24 24 23 24 20 18 21 17 18 17 22 27 28
37 37 37 36 36 37 39 38 38 36 35 34 33 30 28 29 28 27 26 29 28 27 30 27 24 23 24 25 26 26 26 24 24 23 20 17 20 18 22 22 27 27 30
37 37 36 36 36 36 37 35 36 34 33 32 31 30 29 29 26 25 25 24 25 27 28 27 27 27 27 27 26 27 24 24 24 23 20 16 20 20 21 22 27 27 28
37 36 36 36 35 35 33 32 29 28 26 26 28 29 29 30 28 26 24 20 19 25 27 25 23 23 23 23 23 24 23 22 20 16 22 20 22 22 22 24 25 26 27
35 35 34 35 34 33 31 28 28 27 25 24 23 26 27 28 27 28 25 18 15 19 22 22 20 19 17 17 19 20 19 19 22 21 22 20 23 24 20 25 24 24 24

GFSMA_sfc_30mbdewp_069.txt.gz
Dewpoint
55 57 58 60 60 62 61 61 60 59 58 57 56 54 52 51 50 50 49 51 51 53 55 62 64 64 62 59 58 57 56 55 54 54 54 54 54 55 55 56 55 55 54
59 60 57 54 55 57 57 56 56 56 57 58 57 57 56 54 54 55 54 51 51 51 53 55 60 63 63 62 60 58 58 57 56 55 55 54 53 53 54 54 54 55 54
61 60 59 57 55 53 53 54 55 58 58 59 59 59 59 58 57 57 56 54 53 52 53 55 57 59 61 62 62 62 60 58 58 57 55 55 54 53 53 53 54 54 53
61 60 59 59 59 58 55 56 57 57 58 59 59 59 59 59 59 58 58 58 56 54 54 55 57 58 59 60 61 61 61 61 59 58 57 56 55 54 53 53 53 53 53
61 60 60 59 60 60 60 59 60 60 59 59 59 59 59 59 59 60 59 59 59 59 56 56 56 56 58 59 59 59 60 60 61 60 58 57 56 55 55 53 53 53 52
61 61 61 62 61 61 60 60 60 60 60 60 60 59 59 60 60 60 60 60 59 57 58 56 57 57 57 57 59 59 59 59 59 60 60 59 58 57 56 55 53 52 53
62 61 61 61 61 59 59 60 60 60 59 60 59 59 59 60 60 60 60 60 58 56 56 55 55 55 55 56 59 60 59 59 59 59 59 60 60 58 57 56 55 54 53
62 62 62 62 62 61 61 61 61 60 60 61 57 58 55 55 56 57 56 57 54 52 53 52 51 51 51 54 56 56 57 58 58 58 59 60 60 60 59 58 57 55 54
64 63 64 64 64 64 63 63 63 62 60 61 60 58 54 52 54 54 53 53 52 51 49 49 49 49 49 50 51 50 51 52 53 54 54 55 56 57 58 59 60 59 56
56 55 57 60 63 63 62 61 62 61 60 59 59 60 60 58 54 51 52 53 52 50 49 49 49 48 49 48 48 50 51 52 53 54 55 55 55 55 56 57 58 59 58
50 50 51 51 51 53 53 55 56 57 58 58 57 55 54 55 55 53 50 51 52 53 51 51 49 47 46 45 47 50 51 51 52 52 53 53 54 56 55 56 56 57 58
50 51 51 51 52 52 53 54 54 55 55 55 55 53 52 51 52 53 51 51 50 52 53 50 48 47 45 46 48 49 49 50 50 51 51 51 51 52 53 54 54 55 56
50 50 50 50 50 50 50 50 50 51 53 54 53 52 53 52 53 52 52 52 51 52 50 47 46 45 45 45 47 47 48 47 48 49 49 50 50 50 50 50 51 53 54
49 50 49 48 47 47 47 48 49 50 51 53 53 54 54 54 55 55 54 52 50 51 51 46 45 45 44 44 46 45 45 45 45 46 47 48 50 48 48 51 52 52 54
46 46 46 45 45 45 46 47 47 49 51 53 52 52 52 51 51 53 54 54 52 48 48 45 43 43 43 43 43 42 43 43 45 45 45 46 49 51 52 53 53 53 53
44 44 44 44 44 44 45 45 47 49 48 50 50 50 49 50 49 50 51 51 52 51 48 45 43 43 43 42 42 41 41 42 43 44 45 45 46 47 49 50 51 51 52
43 42 42 42 42 42 42 43 46 46 46 46 46 47 47 47 47 46 46 47 46 47 47 43 42 41 39 39 38 39 39 39 41 40 42 43 44 45 46 46 46 46 47
41 41 40 40 40 40 41 41 44 43 45 45 45 45 43 44 43 43 43 43 41 41 44 43 41 39 38 37 36 37 37 38 38 37 39 40 41 41 43 43 43 44 44
40 40 39 39 39 39 39 40 40 40 40 39 40 40 40 41 40 40 41 40 40 39 39 40 38 38 37 36 35 36 36 35 37 33 32 33 34 37 39 40 40 39 39
40 39 38 38 38 38 38 39 39 39 38 38 38 38 38 39 39 39 39 39 38 38 38 38 37 36 35 35 35 32 32 30 29 25 26 29 30 32 31 34 32 32 33
39 39 38 38 38 38 38 38 39 39 38 38 38 37 37 38 38 38 37 36 36 36 36 36 36 35 34 33 30 30 26 25 25 23 21 19 20 21 26 30 30 27 28
38 38 37 38 37 37 38 39 39 39 37 36 35 35 34 35 35 36 34 34 34 34 34 34 32 31 30 27 26 24 24 23 21 24 20 17 20 17 18 18 24 27 28
37 37 37 37 37 38 39 40 39 37 36 34 33 29 30 31 29 27 29 29 28 31 31 30 26 24 24 25 25 25 25 24 23 23 20 13 20 19 22 22 27 27 30
37 36 36 37 36 37 38 38 37 35 34 34 31 28 25 25 25 25 25 25 27 27 27 27 26 27 27 27 26 26 24 24 24 22 20 13 21 21 22 22 27 27 28
37 37 36 36 35 36 36 36 34 32 31 29 29 30 30 27 26 26 22 20 22 26 26 25 25 25 25 24 24 23 24 22 19 17 22 20 22 23 23 25 23 27 27
36 36 35 36 35 34 34 31 28 26 23 23 26 26 29 30 30 27 24 19 15 20 22 21 20 19 17 17 20 20 20 18 21 20 22 20 22 23 17 23 25 25 24

GFSMA_sfc_30mbdewp_072.txt.gz
Dewpoint
62 62 61 61 61 61 61 61 60 60 59 58 56 54 52 50 50 49 49 51 53 54 55 59 63 64 62 60 59 58 57 56 55 55 54 54 54 55 56 56 56 55 55
57 57 56 59 59 60 61 59 59 59 56 57 56 56 55 55 53 53 54 51 52 53 54 56 58 61 63 63 62 60 58 58 57 56 55 54 54 54 54 54 55 55 55
59 59 59 55 56 56 58 56 55 56 58 59 59 59 59 59 58 57 56 55 53 53 53 56 57 58 60 61 62 62 61 60 59 58 56 56 55 53 53 53 54 54 54
60 60 60 58 57 56 54 54 56 57 58 58 58 59 59 59 59 59 58 58 56 55 54 57 57 59 59 60 60 61 61 61 60 59 58 57 56 55 54 53 54 54 53
61 60 60 59 59 59 58 57 58 58 58 59 59 59 59 59 60 60 60 59 59 59 58 56 56 58 59 59 59 59 59 60 60 60 60 58 57 56 56 54 53 53 53
61 60 61 60 60 60 60 60 59 60 60 59 59 59 59 58 59 60 59 60 60 60 58 58 57 57 57 58 59 59 59 59 59 59 60 61 59 58 57 56 54 53 53
61 61 61 61 61 61 60 60 59 59 60 60 59 58 58 59 59 59 60 60 59 58 57 56 56 56 55 57 58 60 60 60 60 59 59 60 60 60 59 58 57 55 54
62 61 61 61 61 61 60 60 61 60 60 60 56 56 54 54 55 56 56 56 56 54 54 53 52 52 53 55 55 55 55 55 55 56 56 56 58 59 60 59 58 57 56
62 62 62 62 63 63 62 62 62 61 59 60 60 58 53 52 54 54 53 53 52 52 51 50 50 51 51 51 50 51 52 53 54 55 55 55 55 55 56 57 59 60 58
63 63 64 64 63 63 62 61 61 61 60 58 58 59 59 58 55 50 53 53 53 50 49 49 49 49 49 48 50 52 53 54 54 54 54 54 54 56 57 58 57 58 58
55 54 54 54 55 55 55 55 56 57 57 58 57 56 54 54 55 54 50 51 52 53 51 50 49 47 46 47 50 51 51 52 53 52 52 52 52 54 55 56 54 55 57
53 54 53 52 52 52 53 53 54 54 54 54 55 54 53 51 50 51 51 51 51 51 52 49 47 45 46 48 49 49 50 50 51 51 51 51 51 51 51 52 52 53 54
52 52 51 50 50 51 51 51 50 51 51 53 53 53 53 52 52 51 51 50 50 51 48 46 46 45 45 47 47 48 47 47 48 48 49 49 50 50 50 50 50 52 53
51 51 50 49 49 49 48 48 48 49 50 50 51 52 53 53 54 54 52 51 50 51 49 45 45 45 44 46 46 45 45 46 45 46 46 46 49 51 51 50 52 52 54
49 49 49 47 47 46 46 46 46 47 50 51 52 53 52 51 51 52 52 53 52 48 48 45 43 44 43 44 43 43 43 44 44 45 45 46 48 50 52 53 52 52 53
46 46 45 45 45 44 44 45 45 47 48 49 50 50 49 49 50 50 51 52 52 51 48 45 43 43 43 42 42 41 42 42 43 43 44 45 47 47 48 49 49 50 51
44 44 43 43 43 42 42 43 43 46 46 46 46 46 48 48 48 47 47 47 47 47 48 42 42 41 39 39 39 40 39 40 40 40 42 43 43 45 46 46 46 46 46
42 42 42 41 41 41 41 41 42 45 44 45 45 45 45 45 44 44 44 43 42 42 45 42 41 39 38 37 37 37 38 38 37 37 39 39 40 41 43 43 43 44 44
41 40 40 39 39 39 39 40 40 41 40 41 41 42 41 42 41 41 41 41 40 40 40 41 38 38 37 36 36 36 36 35 35 32 32 33 34 37 38 39 39 39 39
40 39 39 38 38 38 38 39 39 39 38 38 38 38 39 39 39 39 39 39 39 39 39 39 37 36 35 35 35 32 34 30 29 24 25 28 31 33 32 34 33 33 33
40 39 38 38 38 38 38 38 39 39 39 38 38 37 38 38 39 39 38 37 38 37 37 37 36 35 35 33 31 31 28 25 25 23 22 20 20 20 28 31 28 27 27
38 38 38 38 38 37 38 39 39 39 39 38 37 36 36 36 37 37 36 36 35 35 35 35 34 33 31 30 27 25 23 22 19 25 20 17 19 17 18 18 25 27 29
37 37 37 37 37 37 39 39 40 38 37 36 35 33 32 33 31 28 31 30 31 34 33 33 31 29 27 26 25 25 24 23 21 23 21 13 21 19 22 22 28 28 30
36 36 36 36 37 37 40 39 39 36 35 34 32 30 29 26 25 25 26 26 26 27 27 26 26 26 26 26 26 25 24 23 24 22 20 13 21 21 22 23 29 27 28
36 36 36 36 36 36 39 38 36 34 34 33 30 28 25 24 27 26 24 23 25 26 27 28 28 29 29 29 26 25 24 23 18 17 22 19 22 22 23 25 23 29 29
36 36 36 36 36 36 37 36 34 31 31 28 28 29 32 28 29 27 22 19 18 22 23 22 21 19 17 18 22 21 22 19 20 19 22 21 22 22 16 22 25 24 24

GFSMA_sfc_30mbdewp_075.txt.gz
Dewpoint
62 63 63 62 61 61 61 59 59 59 59 59 57 54 53 51 50 49 49 49 54 56 55 57 63 64 63 62 60 59 58 56 55 55 55 54 54 55 56 56 56 55 55
62 62 62 60 60 60 61 60 60 60 59 57 57 56 56 55 55 54 53 54 53 54 55 56 58 61 63 63 63 61 60 59 58 57 56 55 54 54 54 54 55 55 55
60 60 58 57 59 59 59 60 57 57 57 58 59 59 59 59 59 58 57 56 55 55 54 56 58 59 59 61 62 62 62 61 60 59 57 57 56 54 53 54 54 55 54
57 58 58 57 55 55 55 55 55 55 57 58 58 58 59 59 59 59 59 58 57 56 55 56 57 60 60 60 60 60 60 60 61 61 60 58 57 56 54 53 54 54 54
59 60 60 59 58 56 55 54 55 57 57 58 58 59 59 59 59 60 59 60 59 59 58 57 57 58 59 59 59 59 59 60 60 61 61 61 59 58 57 55 53 54 54
61 60 60 60 59 59 59 58 57 59 59 59 59 59 59 59 59 59 59 60 60 60 60 59 58 58 57 57 59 59 59 59 60 60 59 60 60 60 58 57 56 54 54
61 60 60 60 60 59 60 60 60 59 59 60 59 57 57 57 58 58 59 59 59 59 59 58 57 56 56 58 59 59 59 60 58 57 57 58 59 60 60 59 58 56 55
62 61 60 60 61 61 61 60 60 60 60 60 58 56 54 54 55 55 54 55 56 54 55 55 55 54 54 55 55 55 55 55 55 56 56 56 56 57 58 59 60 58 57
62 62 61 61 61 62 61 61 61 60 59 59 60 56 53 50 54 54 53 54 53 52 51 51 51 52 52 52 50 52 54 55 55 56 55 55 55 56 56 57 58 59 61
63 62 62 62 63 63 63 62 62 61 60 58 58 58 58 58 54 50 52 53 53 50 49 49 49 50 49 50 52 53 54 54 54 54 54 53 53 55 56 57 56 56 57
60 61 61 61 61 60 59 59 59 59 58 58 56 55 54 53 55 54 50 50 51 53 51 49 49 47 47 49 50 51 52 53 53 53 52 51 51 51 52 53 54 54 55
57 57 56 56 56 55 55 55 54 54 53 53 54 54 53 51 49 49 50 50 50 51 50 48 46 46 47 49 50 51 51 51 51 51 51 50 51 51 51 51 51 52 52
56 55 54 53 52 51 51 52 51 51 51 52 53 53 53 53 52 51 50 49 49 49 47 46 46 45 46 47 48 48 48 48 48 49 49 49 49 50 51 49 50 51 52
54 53 52 50 49 50 49 49 48 48 49 49 49 50 52 52 52 52 52 50 48 49 49 45 45 44 46 46 46 45 46 46 46 46 46 46 48 50 53 50 51 52 52
52 51 49 48 47 47 46 46 46 46 47 48 50 51 51 52 51 51 50 51 50 46 47 45 44 44 45 44 44 43 44 45 45 45 45 47 47 48 50 52 52 53 53
50 49 47 46 45 45 44 45 45 46 47 48 49 50 49 49 49 49 50 50 51 50 46 46 43 43 43 43 43 42 42 43 43 43 44 45 45 47 48 48 49 49 50
46 46 45 44 43 43 42 42 43 43 46 46 46 46 46 47 47 47 47 47 48 47 48 42 42 42 41 41 40 40 40 40 39 41 42 43 42 43 45 46 47 47 47
44 43 43 42 42 41 41 41 41 42 45 44 44 45 45 45 45 44 45 44 43 42 45 42 40 40 38 38 37 38 38 38 36 37 39 39 40 42 43 43 43 44 44
42 41 41 40 40 40 40 40 40 40 41 40 41 43 42 42 42 41 42 42 41 40 40 42 38 38 37 36 36 36 36 35 31 31 33 33 36 36 39 39 38 38 39
40 40 39 39 39 39 38 39 39 39 38 38 38 38 39 40 40 40 40 40 40 40 39 39 38 37 36 35 35 33 34 30 28 24 25 28 30 34 34 34 32 31 31
40 39 38 38 38 38 38 38 38 38 38 38 38 38 38 38 39 39 38 38 38 38 38 38 36 35 35 34 32 32 31 26 25 23 22 20 20 20 28 29 26 27 28
39 38 38 38 38 38 38 40 39 38 39 39 38 37 38 39 39 38 37 37 36 36 36 36 35 34 33 31 29 28 25 23 19 25 20 17 19 17 18 18 26 27 31
37 37 37 37 37 37 38 40 40 40 38 38 37 35 34 34 31 31 32 33 34 35 34 34 33 31 30 28 27 25 24 23 20 23 22 14 21 19 22 22 28 28 30
36 36 36 36 36 37 38 40 40 38 37 36 35 33 32 29 27 27 26 26 25 26 26 26 27 26 26 26 26 25 24 23 23 22 20 14 21 20 23 23 29 27 28
36 36 36 36 36 36 38 39 38 35 35 34 31 30 28 25 25 27 24 25 25 27 30 30 30 30 30 29 28 25 23 22 19 18 22 19 21 21 23 24 24 30 30
36 35 35 35 36 36 38 38 37 34 33 32 31 29 30 25 28 28 23 21 21 24 23 21 21 20 17 20 26 22 24 20 19 18 22 20 21 21 16 22 24 24 24

GFSMA_sfc_30mbdewp_078.txt.gz
Dewpoint
62 62 62 62 61 61 60 58 58 58 58 58 58 56 55 54 51 51 50 51 52 56 57 56 61 64 64 63 62 60 59 57 56 56 55 54 54 55 56 56 56 55 55
62 62 62 61 60 60 60 59 59 59 59 58 57 57 57 56 55 55 54 54 55 55 57 56 57 60 63 63 62 63 61 60 59 58 57 55 54 54 54 54 55 55 55
61 61 62 61 59 59 59 60 59 57 58 57 57 59 59 59 59 58 58 58 57 56 56 57 57 58 60 60 61 62 62 62 62 61 59 58 57 55 54 54 54 55 55
59 60 60 58 57 58 58 58 58 55 56 57 57 58 58 59 59 59 59 59 58 57 56 57 59 58 59 60 60 60 60 60 60 61 62 60 58 57 56 54 54 55 54
57 58 58 58 57 55 55 54 54 55 56 57 58 58 59 59 59 59 59 59 59 59 59 58 58 58 59 60 60 59 59 60 61 61 61 61 61 59 58 57 55 54 54
58 58 59 59 59 56 56 55 54 57 58 59 59 59 59 59 59 58 58 59 59 59 60 60 59 59 59 59 59 59 59 60 60 60 60 60 60 60 60 59 57 56 54
61 59 60 60 59 59 59 58 58 58 59 60 59 57 56 56 57 57 58 57 57 59 59 58 58 57 58 58 58 59 59 58 57 57 57 57 57 59 60 60 60 58 56
62 61 60 60 60 59 59 60 60 59 59 60 58 56 53 53 54 55 54 54 54 54 55 55 55 55 55 55 56 56 56 55 56 56 56 56 56 56 56 57 58 59 59
62 62 61 61 61 61 61 61 60 60 59 59 59 56 52 50 53 55 53 54 53 52 51 51 51 53 53 52 51 54 55 55 55 55 55 54 54 56 57 58 58 58 59
63 63 62 62 62 62 62 62 62 61 61 58 58 58 58 57 55 51 52 53 53 50 49 49 50 50 50 51 53 53 54 55 54 54 53 53 53 53 53 54 55 56 56
61 61 61 62 62 61 61 61 60 59 59 58 57 55 54 53 54 53 49 49 51 52 51 49 49 47 48 50 51 53 53 53 53 53 52 52 52 52 51 52 52 53 52
60 60 60 61 61 59 58 56 56 56 55 55 54 53 52 50 48 48 49 49 49 50 49 48 47 46 48 49 51 52 52 52 52 51 51 51 50 50 50 51 51 50 51
58 58 58 58 58 55 54 53 53 52 52 52 52 52 52 52 52 50 50 49 48 49 48 46 46 46 47 48 48 48 49 49 49 50 50 49 49 49 51 50 49 50 50
58 57 56 55 52 51 50 50 49 49 49 48 48 49 50 51 51 51 51 48 46 47 49 48 45 44 47 47 47 46 47 47 47 47 47 47 47 48 51 52 52 52 52
56 55 53 50 49 49 48 47 46 45 46 47 47 49 50 51 51 51 51 50 48 43 44 46 45 44 46 45 45 44 45 46 45 45 45 47 47 47 49 50 51 51 52
52 51 50 48 47 46 45 45 45 45 45 47 48 49 49 49 48 48 49 49 49 47 44 46 44 43 44 44 44 42 43 44 43 43 44 44 44 46 47 48 49 49 50
49 49 47 46 44 44 43 43 43 43 44 45 45 46 46 46 47 47 48 48 48 47 46 43 42 43 42 42 42 41 41 40 40 41 42 42 42 43 45 45 47 47 47
46 45 44 43 42 42 41 41 41 41 42 43 44 44 44 45 45 45 45 44 44 43 44 43 41 40 39 39 39 39 39 38 36 37 39 39 40 42 42 41 42 43 44
43 43 42 41 41 40 40 39 39 40 40 40 40 41 43 42 42 42 42 42 42 41 41 42 39 39 37 37 37 37 36 35 28 31 33 36 37 36 39 38 37 37 38
41 40 40 40 39 39 38 38 38 38 38 38 38 38 39 40 40 40 40 41 40 40 40 40 39 37 37 36 36 34 35 32 29 24 26 28 30 34 35 34 30 29 30
40 39 39 38 38 38 38 38 38 38 38 38 38 38 38 39 40 40 39 39 39 39 39 38 37 36 35 34 34 33 33 28 25 24 22 20 20 20 28 26 27 28 30
39 38 38 38 37 38 39 40 39 38 38 38 38 38 39 40 40 39 38 38 37 37 37 37 37 36 35 33 30 30 28 26 26 24 21 18 19 18 19 23 28 28 31
38 38 37 37 37 37 39 39 40 39 38 38 38 37 35 35 33 33 34 34 35 34 35 35 35 33 32 30 28 26 24 23 20 23 22 16 20 19 22 22 28 29 30
37 36 36 36 36 36 39 39 39 39 37 37 37 36 34 32 29 29 26 26 25 27 26 26 29 29 27 28 27 26 25 23 23 22 20 15 20 20 22 23 30 28 28
36 36 36 36 36 36 38 39 39 36 35 35 34 33 32 30 29 29 24 24 25 27 31 31 31 30 30 29 27 24 22 21 19 19 21 18 20 21 22 24 25 31 30
35 35 35 35 35 35 37 39 38 35 34 34 33 30 33 25 25 28 23 23 22 23 24 23 22 19 20 26 29 23 25 22 19 16 21 20 21 20 16 22 24 24 24

GFSMA_sfc_30mbdewp_081.txt.gz
Dewpoint
62 62 61 62 62 61 60 58 58 57 57 58 58 57 56 55 54 53 53 52 53 56 58 57 58 63 64 63 62 61 60 59 57 57 56 54 54 55 56 56 56 56 55
62 62 62 62 62 61 61 59 57 59 59 59 58 58 58 57 57 56 57 57 55 56 58 58 57 59 61 63 63 63 63 61 60 59 58 57 55 54 54 54 55 56 55
62 62 62 62 61 60 59 60 59 59 59 59 57 58 59 59 59 59 59 59 59 58 57 60 59 58 59 61 61 61 61 62 62 62 61 59 58 57 55 54 54 55 55
62 62 61 62 61 60 59 60 59 58 56 56 58 58 58 59 59 59 59 59 60 59 59 58 60 60 60 61 61 61 60 61 61 61 62 61 60 59 58 56 55 55 55
62 61 60 60 59 58 58 58 57 57 55 56 57 58 59 59 59 59 59 59 59 60 60 60 59 59 60 60 60 61 60 60 61 61 61 61 61 61 60 58 57 55 55
59 59 59 59 58 57 56 55 54 55 56 58 58 59 60 60 60 59 58 59 59 59 60 60 61 60 59 60 61 59 59 60 60 60 59 59 60 60 61 61 59 57 56
59 58 58 58 59 58 56 56 56 56 57 60 59 58 57 57 57 57 57 57 56 57 58 59 59 59 58 59 58 59 59 59 58 57 57 57 57 57 57 58 59 60 58
63 61 60 59 60 60 59 59 59 59 59 61 57 56 53 53 54 55 55 54 54 54 56 56 57 57 58 57 58 57 57 56 56 56 56 56 56 56 57 58 59 59 60
64 63 63 62 61 61 60 60 61 60 59 60 59 56 51 50 53 55 55 54 54 53 52 53 53 54 54 53 53 54 55 56 56 56 55 53 55 55 55 56 57 58 58
63 63 63 62 62 62 62 62 63 62 59 57 59 59 58 58 52 51 52 53 53 52 51 50 51 51 51 52 53 54 55 55 55 54 54 54 53 53 53 52 53 55 56
63 63 63 63 62 61 60 60 60 60 60 59 58 57 56 56 55 53 46 49 51 52 52 51 50 49 50 51 52 53 54 54 54 53 52 52 52 52 51 52 52 52 53
61 61 62 62 61 60 59 59 57 57 58 57 56 55 53 49 49 50 49 48 49 50 50 50 48 48 49 50 51 52 53 53 53 52 52 51 51 50 50 52 51 51 51
60 60 61 61 60 59 59 58 57 55 54 52 52 52 53 53 52 51 50 48 48 48 49 48 48 47 48 49 50 49 50 50 51 51 51 50 49 49 51 52 49 50 50
59 59 59 59 58 57 56 55 53 52 51 51 50 50 50 51 52 52 50 48 46 46 46 48 47 46 47 48 48 48 48 48 48 48 48 48 48 48 51 53 53 53 54
58 58 58 57 55 53 51 50 49 48 48 48 48 49 49 50 51 52 52 51 47 42 42 47 47 45 47 47 46 45 47 47 47 46 46 46 47 47 48 50 50 51 52
56 55 53 51 49 48 47 47 46 46 46 47 48 48 49 50 50 50 50 50 49 46 43 47 45 45 45 44 45 43 44 44 44 44 45 45 44 46 47 48 49 49 50
52 51 50 48 47 46 45 45 44 44 44 45 46 47 47 47 47 48 49 49 48 48 45 45 44 44 43 43 43 42 42 41 41 42 42 43 43 44 45 45 46 47 47
50 49 48 46 44 43 43 42 42 43 43 44 44 44 44 45 46 46 47 46 46 46 45 45 42 41 41 41 41 40 40 38 37 38 40 39 41 43 42 41 42 43 44
45 45 44 43 42 41 41 40 40 40 40 40 41 41 43 43 43 43 43 43 44 43 42 43 41 40 39 39 38 38 37 36 29 33 35 38 37 39 40 37 36 36 38
43 42 42 41 40 40 39 39 39 39 39 39 39 39 40 41 41 41 41 41 41 41 41 41 40 39 38 37 37 36 35 34 30 25 27 29 31 35 36 33 30 31 31
41 40 40 39 39 39 38 38 39 38 38 38 39 38 39 39 40 40 40 40 40 40 40 39 38 38 36 35 35 34 35 31 28 27 25 23 22 22 30 26 28 30 32
40 39 39 38 38 38 39 40 39 38 38 38 38 38 39 40 40 40 40 39 38 38 38 38 38 37 36 35 33 33 31 30 32 26 23 22 20 19 20 26 29 30 31
39 38 38 38 38 38 40 41 41 39 38 38 38 38 37 37 35 36 37 36 35 34 36 36 36 36 34 33 31 29 28 28 24 24 22 19 20 19 22 22 29 29 30
38 38 38 38 38 37 40 40 41 39 38 37 37 37 36 34 32 31 29 28 26 28 27 28 32 32 31 31 30 30 28 27 25 23 22 19 19 19 22 23 30 29 29
37 37 37 37 37 37 39 40 39 37 35 35 36 36 35 33 32 32 26 24 25 28 31 32 30 30 30 30 28 26 26 25 23 20 22 18 20 20 22 23 27 31 30
36 36 36 36 36 36 38 40 39 36 35 34 33 32 34 31 33 32 25 23 23 23 25 26 26 23 27 30 28 25 26 23 21 18 21 21 21 20 19 23 25 25 25

GFSMA_sfc_30mbdewp_084.txt.gz
Dewpoint
59 58 57 58 56 56 55 54 53 51 51 52 55 54 54 55 55 55 55 53 53 56 58 58 58 60 64 63 63 62 61 60 58 58 57 55 54 54 55 56 56 56 56
57 57 56 57 56 56 54 52 51 52 53 56 56 56 57 57 57 57 57 57 57 57 58 60 59 59 60 63 64 63 63 62 61 60 60 59 57 55 55 54 54 55 55
60 59 57 59 59 59 56 55 52 56 58 58 56 56 57 58 57 58 58 58 58 58 58 60 61 60 60 61 62 62 62 62 63 62 62 61 60 58 57 55 54 54 55
62 61 60 60 60 58 57 57 56 57 56 55 54 56 57 58 58 57 57 57 57 57 58 59 60 62 61 61 62 62 60 61 60 62 62 62 62 61 59 58 56 55 55
64 61 59 59 60 58 57 57 57 56 54 54 55 56 57 57 57 56 55 56 57 58 57 58 60 59 60 61 62 61 61 61 61 61 61 61 61 61 61 60 59 57 56
64 62 59 58 59 58 57 57 55 55 54 54 56 56 57 57 56 56 55 55 56 57 56 57 58 59 60 60 62 61 60 60 61 60 60 59 59 60 60 60 61 60 58
60 60 58 58 59 58 58 57 55 55 55 58 59 58 55 56 55 54 54 53 53 54 56 57 58 58 58 58 60 59 59 61 59 58 57 57 57 57 57 57 58 60 60
61 61 60 59 59 59 59 58 56 57 57 59 56 56 51 51 52 53 53 54 53 53 55 55 56 56 58 58 59 60 59 58 57 57 57 56 56 57 57 58 58 59 59
64 64 63 63 62 61 61 60 59 58 59 60 60 54 51 48 51 51 53 53 52 52 53 53 54 55 56 56 55 54 55 56 56 56 55 54 55 54 54 55 54 56 57
64 64 64 64 63 63 62 62 63 62 60 57 59 59 57 54 50 46 50 51 51 48 50 52 52 52 53 53 53 54 54 55 55 55 54 54 53 53 53 53 53 53 55
63 63 63 63 63 63 62 61 61 61 60 59 56 55 57 57 57 54 42 43 48 48 50 50 51 51 51 52 52 53 54 54 54 54 53 53 52 52 51 51 51 52 52
62 63 63 63 62 61 60 59 58 58 58 58 57 58 57 52 49 50 47 44 45 47 50 50 50 50 50 50 51 53 53 54 54 53 53 52 51 50 50 52 52 51 51
61 61 62 62 62 61 60 59 58 57 58 57 57 56 54 51 50 49 48 46 46 46 46 48 49 49 49 50 51 50 51 52 52 52 51 51 49 49 51 53 51 49 50
60 61 62 62 61 61 59 58 58 58 57 56 54 53 52 52 52 51 48 46 45 45 45 45 48 48 49 49 49 48 49 49 49 49 49 49 47 47 48 51 53 53 53
61 61 61 62 61 59 58 57 55 53 53 52 51 51 49 50 51 51 51 49 47 43 41 43 45 48 48 48 48 47 48 48 47 47 47 46 46 47 49 49 50 51 51
60 59 59 59 58 56 55 53 50 49 48 48 49 48 49 50 50 51 50 50 50 47 43 45 47 47 47 46 46 45 46 45 44 45 45 45 44 45 46 48 48 49 50
56 57 56 54 53 51 50 49 47 46 46 46 47 47 47 48 48 49 49 48 49 48 46 46 46 45 46 45 44 43 43 42 42 44 42 43 43 45 44 45 45 46 47
54 53 52 51 49 47 46 46 45 44 44 44 45 46 45 45 46 46 47 46 47 47 47 45 45 43 43 43 42 41 40 38 38 39 41 40 42 43 42 41 41 42 44
50 51 50 48 46 45 44 43 43 43 43 43 43 43 44 44 44 45 45 45 46 45 46 45 44 43 42 41 40 39 38 36 31 37 38 39 38 41 40 37 34 35 38
46 47 46 45 44 43 42 41 41 41 41 41 41 41 42 43 43 44 44 43 43 43 43 42 43 41 40 39 39 37 36 35 31 27 31 32 33 37 37 32 31 31 33
44 44 43 42 41 41 41 40 40 40 40 40 40 40 41 41 41 42 41 42 42 41 42 41 40 39 38 37 36 36 36 34 31 29 29 28 27 27 34 28 28 31 33
42 42 41 41 40 39 40 40 40 39 39 38 38 39 39 39 40 41 41 40 40 40 39 39 39 38 38 37 36 34 34 32 32 30 30 29 23 24 22 25 29 30 31
42 41 41 40 40 39 41 41 40 39 39 39 40 40 40 39 39 40 39 38 38 37 37 38 37 37 37 36 34 33 32 32 32 25 27 25 22 20 21 21 30 30 30
42 41 41 40 40 40 42 42 42 40 41 39 39 39 40 38 36 36 33 32 32 31 30 31 35 36 34 34 34 34 33 32 29 26 26 21 19 18 21 22 29 30 29
41 41 41 40 40 40 41 42 42 40 38 37 37 39 38 36 35 34 30 28 25 27 31 31 30 31 31 32 32 30 29 28 25 22 24 20 19 19 21 22 28 30 30
41 41 40 40 40 40 40 41 40 38 36 36 36 37 37 36 35 35 30 28 24 22 27 30 29 31 31 30 28 27 30 31 25 20 20 21 20 19 20 23 25 28 29

GFSMA_sfc_30mbdewp_087.txt.gz
Dewpoint
60 58 57 56 56 55 54 54 52 50 50 49 49 50 49 51 52 53 54 52 53 56 58 59 59 60 62 64 63 62 61 61 59 59 58 57 55 54 55 55 55 56 56
59 57 56 56 55 54 53 52 51 50 48 49 52 54 54 55 55 55 56 56 56 57 58 60 61 60 60 62 64 64 63 63 62 61 61 60 59 57 56 55 54 54 55
55 54 53 54 55 55 53 52 50 49 51 52 54 54 54 55 56 56 56 57 59 58 59 61 62 62 62 61 62 63 63 63 63 63 62 62 61 60 59 57 56 55 55
58 57 56 57 57 57 56 53 52 51 55 55 54 53 55 56 56 56 56 56 56 56 59 59 61 62 62 62 62 62 62 62 61 62 62 62 62 62 61 60 58 57 56
61 60 60 60 59 58 56 55 55 54 54 54 53 53 55 56 56 55 54 54 54 56 57 59 60 60 60 62 62 63 62 61 61 61 61 61 60 61 62 61 60 59 58
64 63 60 58 58 59 56 56 55 55 54 53 52 53 56 57 56 54 54 53 54 54 54 54 57 58 59 60 62 62 62 61 61 60 60 59 59 59 59 59 60 60 60
64 63 62 57 58 59 58 57 56 54 54 54 55 55 56 55 54 54 53 53 51 52 52 55 57 57 59 59 60 61 60 61 60 59 58 57 57 57 57 58 59 59 59
61 61 61 59 59 60 59 59 57 56 55 56 57 55 54 54 52 52 52 52 51 50 52 54 54 55 56 59 59 60 60 59 59 58 57 57 56 57 56 56 56 57 57
63 63 62 62 62 62 61 62 61 57 56 58 59 56 51 49 50 51 52 52 50 49 50 52 52 54 55 56 56 55 55 56 56 57 57 55 55 55 54 54 54 54 54
63 64 64 64 64 63 62 62 62 63 61 59 60 59 57 55 49 47 52 50 51 47 47 50 51 52 53 54 53 53 54 55 56 56 55 55 54 53 53 53 53 53 53
62 63 64 64 63 63 63 62 62 61 61 60 58 57 56 56 56 52 47 44 49 48 49 49 49 50 51 52 53 53 54 55 54 54 55 53 52 52 52 52 53 53 52
61 61 63 63 63 62 62 61 60 60 60 59 59 57 54 53 53 54 51 46 45 46 49 49 49 49 50 51 51 53 54 54 54 54 53 53 52 51 51 52 53 51 51
57 60 62 62 62 62 61 60 59 59 58 57 56 57 57 56 55 50 48 47 46 46 46 49 49 49 49 51 51 51 51 52 53 53 52 52 50 49 50 51 53 52 52
58 59 61 61 62 62 61 60 59 59 58 58 58 58 56 54 52 51 50 48 45 46 45 45 49 48 49 50 49 49 49 50 50 51 50 49 48 48 49 50 51 53 52
61 60 61 61 62 61 61 60 58 58 58 57 57 55 53 53 53 53 52 50 47 43 43 45 46 48 49 49 48 48 48 49 48 48 48 46 46 47 48 49 50 50 51
61 61 61 61 61 61 59 59 57 56 55 53 52 51 50 50 51 52 52 51 50 48 45 44 47 48 47 46 46 46 46 45 45 46 45 45 44 45 46 47 47 47 48
59 59 59 60 59 58 57 56 54 52 51 49 49 49 49 50 50 50 50 50 49 49 46 47 48 47 47 46 44 44 44 43 43 44 43 43 43 45 44 44 44 45 45
55 56 57 57 56 55 55 54 52 49 48 47 47 48 47 48 47 48 48 48 48 47 46 45 46 45 45 44 43 42 40 39 38 41 42 41 42 43 42 41 40 40 42
52 53 53 52 51 51 50 49 47 46 46 46 46 46 46 46 45 46 46 46 46 45 47 46 45 45 43 42 41 40 39 37 33 39 39 40 39 42 40 37 35 34 36
48 50 51 50 48 46 45 44 44 44 44 44 44 44 44 44 44 45 45 45 45 45 45 44 44 42 42 41 41 39 37 37 34 29 33 34 35 38 37 33 32 32 34
45 46 46 45 44 44 43 42 42 42 42 41 42 42 42 43 42 43 44 43 43 43 42 42 42 41 40 38 38 38 37 36 34 32 30 30 30 33 36 30 29 31 32
44 44 43 43 42 41 41 42 42 41 41 41 40 40 41 40 40 41 41 41 42 42 41 40 40 39 39 38 38 36 35 33 34 32 30 31 25 28 26 26 29 30 30
44 43 43 42 42 41 40 42 41 41 40 40 40 40 40 40 41 41 41 40 39 39 39 40 38 38 38 38 36 35 34 33 33 27 30 29 25 24 23 23 30 30 30
44 44 43 42 42 41 41 42 41 41 41 41 41 41 41 39 40 39 38 37 35 34 33 34 37 38 37 36 36 35 34 33 30 27 27 23 21 21 23 24 28 30 30
43 44 43 42 42 42 42 43 42 42 40 38 38 39 40 39 39 39 35 33 32 30 31 30 31 33 33 34 34 32 33 32 29 25 24 22 20 21 22 23 28 31 30
42 43 43 43 42 42 41 43 43 40 38 37 38 38 38 38 38 38 33 31 27 26 28 31 32 32 32 32 30 30 32 31 29 22 24 22 20 20 21 23 28 30 32

GFSMA_sfc_30mbdewp_090.txt.gz
Dewpoint
60 61 61 62 61 60 59 58 57 55 52 50 50 49 49 48 50 53 50 51 53 56 58 59 60 60 61 65 64 63 62 61 60 59 59 58 56 55 55 55 55 55 55
60 59 59 58 58 57 56 55 54 52 51 50 50 52 52 53 56 55 56 53 55 56 58 60 61 61 61 61 62 64 64 63 62 62 61 61 60 59 57 56 56 54 55
59 58 57 56 56 55 54 53 52 51 50 51 51 54 55 55 56 56 57 57 57 57 59 61 62 63 63 62 62 62 63 62 62 63 63 63 62 62 60 59 58 57 55
57 56 55 55 55 55 55 54 52 50 52 54 55 55 54 56 57 56 57 57 58 59 59 60 62 63 63 63 63 63 62 62 61 61 62 62 62 62 62 62 61 59 58
57 57 57 56 58 58 57 56 53 52 52 55 55 54 55 56 56 56 56 55 54 57 58 59 60 61 61 61 62 62 63 63 61 61 61 61 60 60 61 61 61 61 60
61 60 61 60 60 60 57 56 55 56 55 55 54 52 55 57 57 57 55 54 55 54 54 55 58 59 59 61 62 62 62 62 61 61 60 59 58 58 58 58 59 60 60
63 63 62 59 58 60 58 57 56 55 55 55 54 54 55 57 57 56 55 53 52 52 53 56 57 57 60 59 60 61 62 61 61 60 58 58 57 57 58 58 58 58 58
63 63 63 61 58 60 60 59 57 56 55 55 54 56 54 55 55 54 52 52 51 51 53 54 54 56 58 59 58 59 60 61 60 58 57 57 56 56 56 56 56 56 55
62 62 62 62 61 62 61 61 61 61 57 57 56 56 54 52 52 52 52 52 51 49 51 53 53 54 55 56 56 55 56 57 57 58 57 56 56 55 55 54 54 54 54
62 62 62 62 62 62 62 61 62 61 61 59 60 60 58 56 50 50 52 50 50 48 48 50 51 52 53 54 53 54 54 55 56 56 57 56 55 54 54 53 53 54 54
61 62 62 63 62 63 62 62 62 62 61 60 59 58 57 55 55 52 48 47 49 48 49 49 50 51 52 52 54 54 54 55 55 55 56 55 53 53 53 53 53 53 52
61 61 61 62 63 63 62 62 62 61 61 60 59 59 57 55 53 52 51 51 50 47 49 49 50 50 51 51 52 53 54 55 55 55 54 54 53 52 52 52 52 53 52
60 60 61 61 62 62 61 61 60 60 60 59 59 58 57 56 56 55 53 50 47 47 47 49 49 49 50 51 51 51 52 53 53 53 54 53 51 50 50 51 51 52 53
58 58 61 61 62 61 61 61 60 59 59 58 58 57 57 57 57 55 51 49 46 46 46 46 49 49 50 49 49 50 50 51 52 52 52 50 48 48 49 50 50 51 51
60 59 60 60 60 60 61 60 60 59 58 58 57 57 57 56 55 53 51 49 46 42 45 46 48 49 49 49 48 49 48 49 49 49 48 47 46 46 47 48 49 49 49
60 60 60 60 60 60 60 60 59 59 58 57 57 56 54 53 53 52 52 51 50 47 43 45 48 48 47 47 47 47 47 46 47 46 46 45 45 45 46 47 47 47 47
57 59 60 60 60 60 60 59 58 57 56 55 54 53 52 51 50 50 51 50 50 49 47 47 47 47 46 45 45 45 45 44 44 44 44 44 44 45 44 44 43 43 44
53 55 57 59 59 59 58 58 56 55 54 53 51 51 50 50 49 50 50 49 49 49 47 45 46 45 45 45 43 42 41 40 40 41 43 42 42 44 43 41 40 39 39
49 52 54 55 56 56 56 56 55 53 52 50 49 49 48 48 47 48 48 48 47 47 46 46 45 45 43 42 41 41 40 38 35 40 40 41 40 42 42 37 36 35 35
46 48 51 52 52 50 50 51 49 48 47 47 47 47 47 46 46 46 46 46 46 45 45 45 44 43 42 41 41 39 38 38 36 31 35 35 38 39 39 35 32 33 34
45 46 47 47 46 46 46 46 45 45 45 45 45 45 45 45 45 45 45 45 44 44 44 43 42 41 40 39 38 39 38 37 36 33 30 31 32 33 37 33 30 32 31
45 44 44 45 44 43 43 44 44 44 43 43 42 42 42 42 42 42 42 43 44 42 41 40 40 40 40 39 38 37 36 35 35 33 31 31 30 30 29 28 29 30 30
44 44 43 43 43 43 42 44 44 42 42 41 41 41 40 41 40 41 42 41 41 41 41 40 39 39 39 39 37 36 35 34 34 31 31 30 26 25 22 26 30 30 30
43 43 44 43 42 42 42 42 43 41 41 40 40 40 39 39 40 40 39 38 37 36 36 36 39 38 38 38 37 36 35 34 29 26 28 26 22 22 24 24 28 31 30
41 42 43 43 42 42 42 42 42 40 39 39 40 40 40 39 40 40 38 36 34 32 31 30 33 35 37 37 36 35 33 32 30 27 26 22 20 21 22 23 26 31 30
40 41 42 43 43 42 42 43 42 40 39 38 38 38 40 39 39 40 36 34 32 30 30 31 32 33 34 34 35 32 32 31 29 23 25 21 20 20 18 23 29 30 32

GFSMA_sfc_30mbdewp_093.txt.gz
Dewpoint
62 63 62 63 63 63 62 62 60 57 55 54 51 52 49 49 48 50 51 52 54 57 58 60 61 61 62 64 65 63 63 62 60 60 59 59 57 56 56 56 55 55 55
62 62 61 62 62 62 61 60 58 57 54 52 50 50 51 49 49 53 50 52 54 56 58 60 61 61 62 62 62 63 64 64 63 62 61 61 61 60 58 58 57 56 55
61 61 61 61 61 59 57 57 56 53 51 50 50 51 53 53 56 56 56 53 55 56 58 61 62 62 63 63 63 62 64 63 64 63 63 63 62 62 61 60 59 58 57
60 59 58 58 58 57 55 53 52 51 51 51 52 53 55 55 55 56 57 57 56 57 58 60 62 63 63 63 62 63 63 63 62 63 63 62 63 62 62 62 62 61 59
59 58 56 56 55 55 55 54 53 52 50 53 55 55 55 55 56 57 57 57 58 58 59 59 60 61 61 62 62 62 63 64 63 62 61 61 60 60 61 60 60 61 61
58 57 56 55 56 57 56 56 54 54 52 52 55 54 54 56 57 57 56 55 55 57 56 57 59 59 59 61 62 62 62 63 63 61 61 60 59 58 58 58 60 60 60
58 58 59 58 59 59 57 56 56 55 55 56 54 54 53 55 57 57 56 54 54 53 55 56 57 58 60 59 60 61 62 62 62 61 60 58 58 58 58 57 57 57 57
61 62 61 60 59 60 58 57 56 56 55 56 54 55 52 54 56 56 56 52 52 52 55 54 55 56 59 58 58 59 61 61 61 60 58 57 58 56 56 56 55 55 55
61 62 62 62 60 60 60 59 59 57 55 56 56 55 54 53 54 53 52 52 50 50 53 54 54 54 56 56 55 55 56 58 60 59 58 57 56 55 55 54 54 54 55
61 62 62 62 61 61 61 61 62 61 60 58 60 60 58 57 52 50 53 51 50 48 50 51 53 53 54 53 53 54 54 55 57 57 58 58 56 55 54 54 54 54 54
62 61 61 61 61 62 61 61 61 61 61 60 59 58 58 57 56 53 50 49 49 49 49 49 50 52 52 54 53 54 55 54 55 56 57 57 55 54 54 53 53 54 53
61 61 62 61 62 62 61 61 61 61 61 60 60 58 56 55 55 54 51 51 51 52 51 50 50 51 51 52 53 53 54 55 56 56 56 56 54 53 52 52 52 53 54
58 60 60 61 61 62 62 61 61 61 60 60 59 58 57 57 56 55 54 53 51 49 49 49 50 50 51 51 51 51 52 53 54 54 56 54 52 51 51 51 51 51 52
59 59 60 60 61 62 61 61 60 60 60 59 59 58 58 57 57 56 54 53 50 47 46 47 49 50 50 50 50 50 51 52 53 54 53 50 49 49 49 50 50 50 51
59 59 59 59 59 61 60 60 59 59 59 59 58 58 57 57 57 56 55 53 50 45 45 46 47 49 49 48 49 48 48 50 50 49 48 47 46 46 47 48 48 48 48
59 59 59 59 59 60 60 60 59 59 58 58 57 57 57 57 56 56 54 51 49 46 41 46 47 48 48 47 48 48 47 47 48 47 46 45 45 46 46 46 46 46 46
56 57 59 60 59 59 59 59 59 59 58 58 57 57 56 54 54 53 53 52 50 48 45 46 47 46 46 45 46 46 45 45 45 45 44 44 44 45 44 44 43 42 43
49 53 55 57 59 59 60 59 59 58 57 56 55 55 55 53 52 52 51 50 49 49 47 46 46 45 45 45 44 44 43 42 42 41 43 43 42 44 43 41 39 38 38
46 48 51 53 55 57 57 58 58 57 56 56 55 54 54 52 51 50 49 49 49 49 47 45 45 44 43 43 42 42 41 39 37 40 41 41 41 42 43 38 36 35 35
45 45 47 49 51 52 53 55 55 54 54 54 52 52 51 50 49 48 48 48 47 46 46 45 44 43 42 42 41 40 39 39 38 34 38 36 40 40 41 36 33 32 33
44 45 45 46 47 47 48 48 49 50 50 49 49 49 49 48 48 48 47 47 46 45 44 43 43 42 41 39 39 40 39 38 38 36 31 32 35 35 38 35 31 32 31
42 43 44 44 44 45 44 45 46 46 46 46 46 46 46 46 46 46 47 46 46 44 43 43 42 41 40 40 39 38 37 36 36 35 33 32 31 30 34 31 30 30 30
41 41 42 43 43 43 43 44 45 44 44 44 44 43 43 43 44 44 44 45 45 44 43 42 40 40 39 40 39 37 36 35 35 33 32 32 27 27 25 29 31 30 30
39 40 41 43 43 43 43 43 43 43 42 43 42 42 41 41 41 41 41 40 40 41 41 41 40 39 39 39 38 38 37 35 29 29 31 29 24 24 25 23 28 29 30
38 39 40 41 42 43 43 43 42 41 40 40 39 40 40 39 40 41 39 37 37 35 36 36 37 39 39 39 38 35 34 33 31 29 26 24 21 20 22 22 24 29 30
36 37 39 41 42 42 43 43 43 40 39 39 40 39 40 39 41 42 38 36 35 33 30 31 32 35 38 38 38 35 34 32 31 28 25 23 20 20 17 23 28 30 31

GFSMA_sfc_30mbdewp_096.txt.gz
Dewpoint
63 63 64 64 62 64 64 63 62 60 57 55 55 54 53 51 49 50 51 56 57 59 60 61 61 62 63 65 65 64 63 62 61 60 59 59 58 57 56 56 56 55 55
64 63 63 63 62 63 63 62 61 58 55 54 53 51 52 49 49 50 50 52 55 56 59 60 61 62 62 62 63 64 65 64 63 62 61 61 61 60 59 58 58 57 56
64 63 62 62 62 62 62 60 59 58 55 54 52 50 50 51 51 53 51 50 53 55 57 60 62 62 62 63 63 63 64 64 64 64 63 63 63 62 62 61 60 60 59
63 63 62 61 62 61 60 59 58 56 54 52 50 50 51 54 54 56 55 52 53 55 57 60 62 63 64 63 62 62 63 64 64 64 63 63 63 63 62 62 62 61 60
61 62 61 60 60 59 58 56 55 54 51 51 52 52 54 55 55 56 56 57 56 56 57 57 59 62 62 62 62 62 62 63 64 63 62 62 61 60 61 60 60 60 60
60 60 60 59 58 57 56 55 53 53 51 51 54 55 55 55 55 57 56 56 57 58 58 58 59 60 59 60 62 62 62 63 63 63 62 61 60 59 58 59 59 59 58
60 59 58 57 57 56 55 55 54 53 53 52 53 54 54 54 56 56 57 56 55 57 57 57 58 58 60 60 60 61 62 63 64 62 61 60 58 58 58 58 57 57 56
59 59 58 56 57 56 57 56 55 55 54 55 53 54 52 53 55 56 57 55 54 54 55 56 56 57 58 58 58 58 61 61 62 62 60 58 58 57 56 56 55 55 55
61 59 59 59 58 58 58 57 57 56 55 56 56 54 53 51 53 54 55 54 53 53 55 54 55 57 56 56 55 55 56 58 61 60 59 58 57 56 55 55 55 54 54
60 60 61 61 60 60 60 59 58 57 57 56 58 59 57 55 52 50 53 52 51 50 53 54 54 54 55 54 54 54 54 55 57 59 59 58 57 55 54 54 54 54 53
61 61 62 62 61 61 61 60 60 60 59 58 57 58 58 57 56 53 51 51 51 50 51 52 53 53 53 53 53 54 54 54 56 56 58 58 57 55 54 54 53 53 54
61 61 61 62 61 60 61 61 61 60 60 60 59 58 57 56 55 55 53 52 52 53 54 50 51 52 53 53 53 54 55 56 56 57 57 57 56 54 52 52 52 52 53
59 60 61 60 61 61 61 61 60 60 60 60 60 59 58 57 56 56 54 52 52 53 51 50 50 51 51 52 52 52 53 54 55 55 56 56 53 52 51 51 51 51 51
59 59 60 60 60 60 60 60 60 60 60 60 59 58 58 57 56 56 55 53 51 51 48 48 49 50 51 50 50 51 52 54 55 55 55 52 50 49 49 50 50 50 50
59 59 59 59 60 60 60 60 60 59 59 59 59 59 58 57 57 56 55 54 52 49 48 47 47 49 49 50 49 49 49 51 51 50 49 48 47 47 47 48 48 48 47
58 58 59 59 59 59 59 60 59 59 58 58 58 58 58 58 57 56 55 54 53 50 48 47 47 48 48 48 49 48 48 48 48 48 47 46 45 46 46 46 46 45 45
52 55 56 58 59 59 59 59 59 58 58 58 57 57 57 57 56 56 55 53 52 49 47 46 46 46 46 46 47 46 46 45 46 46 46 45 45 44 45 44 43 42 41
46 48 51 54 56 59 59 58 58 58 58 57 57 56 56 55 55 55 54 53 52 50 48 44 45 45 45 45 45 45 44 44 43 43 44 44 44 44 44 42 40 38 38
45 45 47 49 51 53 56 57 59 58 58 58 57 56 56 55 54 54 53 52 51 50 48 46 44 44 43 44 43 43 42 40 39 40 43 43 42 43 44 41 37 36 35
43 44 45 45 47 48 50 52 54 55 56 56 56 56 56 54 54 53 52 51 50 48 47 46 44 43 42 42 42 41 40 40 39 36 39 39 39 41 42 40 35 33 33
41 42 43 44 44 45 46 47 48 50 52 53 53 53 53 53 53 52 51 49 48 47 46 45 43 42 41 39 40 40 40 39 39 38 35 35 36 37 37 38 33 33 32
39 40 40 41 42 43 44 45 45 46 47 48 49 50 50 50 50 50 49 48 48 46 45 44 42 42 41 40 40 39 38 37 36 36 34 33 32 33 34 36 32 31 31
37 38 39 40 41 42 43 44 44 44 45 46 46 46 46 47 48 48 48 48 48 47 47 45 43 42 40 40 39 37 37 36 36 34 34 34 30 30 29 29 32 31 30
35 37 37 39 40 41 43 44 44 43 43 43 44 44 44 44 45 45 45 46 46 46 46 44 43 41 41 40 39 38 37 35 31 32 33 32 26 27 25 24 28 28 30
33 34 37 38 39 40 42 43 43 43 41 40 40 42 43 42 42 43 42 41 41 40 40 41 41 41 41 40 39 37 35 35 32 29 29 28 23 23 23 22 24 29 31
29 32 35 34 35 37 39 42 43 43 41 40 40 39 41 41 42 43 40 39 39 38 36 36 37 39 40 40 40 37 35 35 32 30 28 26 21 21 18 22 26 29 31

GFSMA_sfc_30mbdewp_099.txt.gz
Dewpoint
63 64 63 63 62 64 64 64 63 61 58 55 55 54 53 51 51 50 54 56 61 63 62 61 62 63 64 65 65 64 63 63 61 60 60 59 58 57 57 57 57 56 56
63 63 64 63 62 63 63 63 62 60 58 56 54 54 53 53 50 49 51 52 57 58 61 61 62 62 63 63 63 63 65 65 64 63 61 61 61 61 60 60 59 59 58
63 64 63 64 63 63 63 62 62 60 58 55 53 53 52 51 50 49 50 50 52 55 57 60 62 62 62 62 63 63 64 64 64 64 64 63 62 62 62 62 61 61 61
63 63 63 63 63 63 62 62 61 59 57 55 53 52 51 51 51 52 52 51 51 52 55 59 61 63 63 63 63 62 62 64 64 64 64 64 63 63 62 61 62 61 61
63 62 62 62 62 62 61 61 59 58 55 54 53 52 51 52 53 54 56 55 52 53 55 56 59 60 62 64 63 62 62 62 64 64 64 63 62 60 60 60 60 60 60
62 62 60 61 61 61 60 59 58 56 55 54 52 52 53 54 55 55 55 56 57 56 56 57 58 59 60 61 62 62 62 62 63 64 63 62 60 59 58 59 59 58 58
60 61 61 61 61 60 59 58 57 54 54 52 52 53 54 55 55 55 56 57 56 57 58 58 58 58 59 60 60 61 62 62 63 64 62 61 60 58 58 58 57 56 56
60 61 61 60 60 59 57 56 56 54 53 54 51 53 51 52 54 55 56 56 56 56 57 57 57 58 58 58 58 58 60 62 62 62 62 60 58 58 57 56 55 55 55
62 60 60 60 58 58 57 56 56 55 53 55 54 53 52 50 53 54 55 56 54 54 55 56 56 57 57 57 56 56 57 59 62 62 60 59 59 57 56 55 55 55 54
61 62 61 60 58 58 57 57 57 56 55 54 56 57 57 55 52 51 53 52 52 52 54 54 55 56 56 55 54 54 55 56 58 61 60 59 58 57 55 54 54 54 54
61 62 62 61 60 59 58 59 58 57 57 56 55 57 57 56 55 52 51 51 52 51 52 54 54 54 54 54 53 53 53 54 56 57 59 59 59 57 55 54 54 53 54
60 60 61 61 61 61 60 60 60 59 59 58 58 58 56 55 55 55 53 53 52 52 52 52 53 53 53 53 53 54 55 55 55 56 56 58 58 56 54 53 53 52 52
59 60 61 61 60 61 61 60 60 60 60 59 59 58 58 57 57 56 55 53 52 53 52 52 51 52 53 53 53 54 55 55 56 56 56 57 55 53 52 52 52 51 52
59 60 60 61 61 60 60 60 59 60 60 59 59 59 59 58 58 57 56 53 51 51 50 49 50 51 52 52 52 52 53 54 55 54 56 53 51 50 50 50 50 50 50
58 59 59 59 59 60 60 59 59 58 59 58 58 59 58 58 58 58 57 56 53 50 49 48 48 50 51 51 51 50 51 53 53 52 51 49 48 48 48 48 48 48 47
53 57 58 58 59 59 59 59 59 59 59 59 59 58 58 58 58 57 57 56 55 53 50 48 48 48 49 49 49 48 49 50 50 49 48 47 46 46 47 46 46 45 44
48 49 53 55 56 58 59 58 58 59 58 58 58 58 57 58 57 57 57 55 54 53 50 46 47 47 47 48 47 47 47 47 47 48 47 46 45 45 45 44 43 42 41
45 45 46 48 51 53 56 58 58 58 57 57 57 57 56 57 56 56 55 54 53 52 50 46 45 45 46 46 46 45 45 45 44 45 45 45 45 44 45 43 41 39 38
42 43 44 45 46 47 49 51 54 56 57 57 57 57 56 56 55 56 55 54 54 52 50 46 44 44 44 45 44 44 43 42 42 42 43 45 44 44 45 43 39 37 35
40 40 41 42 43 44 45 46 48 50 52 54 56 57 57 56 55 55 54 54 53 52 50 48 45 43 43 43 43 42 41 41 40 38 41 41 42 42 43 44 39 34 33
38 39 39 40 41 42 43 44 44 44 46 48 52 53 54 55 56 56 54 53 52 50 48 46 44 42 41 41 41 41 41 40 40 39 37 37 38 39 39 43 36 34 33
35 37 37 38 39 40 42 44 44 44 44 45 47 49 50 51 52 53 53 53 52 50 48 46 43 43 41 41 41 40 39 38 37 39 38 36 34 36 36 38 35 33 31
32 33 35 36 37 39 41 42 43 44 43 43 44 45 46 47 48 49 50 51 50 50 49 47 44 43 42 41 40 39 37 37 37 35 36 35 33 32 33 34 37 33 31
30 31 32 35 36 35 36 40 41 43 43 42 42 42 43 44 45 46 47 47 47 48 47 46 45 43 43 42 42 40 39 36 33 34 35 35 28 31 27 26 32 31 30
28 28 31 32 32 33 35 33 38 41 41 41 41 41 41 42 43 45 45 44 44 44 45 46 47 46 45 44 41 38 36 36 34 32 32 32 25 25 24 24 24 31 30
26 28 29 29 30 30 33 33 34 39 39 40 41 41 41 41 42 43 43 42 41 41 40 41 41 42 42 42 40 39 37 37 34 32 30 30 23 23 23 22 24 27 30

GFSMA_sfc_30mbdewp_102.txt.gz
Dewpoint
63 64 63 63 63 65 65 66 65 63 60 56 54 52 51 50 51 51 52 57 60 64 64 63 64 64 64 65 64 64 63 63 62 60 60 59 59 58 58 58 58 58 58
63 63 63 63 63 64 64 64 64 62 60 57 55 54 54 53 51 51 50 53 55 61 63 63 62 63 63 63 64 64 65 65 65 64 62 61 61 61 61 61 60 60 60
63 63 63 63 63 64 64 63 62 61 60 57 55 54 54 53 52 51 50 50 51 56 58 60 62 62 63 63 63 63 64 64 64 64 64 63 62 62 62 62 62 62 61
63 63 63 63 64 64 63 62 62 61 60 58 56 53 52 52 51 51 50 50 50 51 54 57 60 63 63 63 63 63 62 63 64 64 64 64 64 63 63 61 62 61 61
64 63 63 63 64 63 63 63 61 60 59 58 56 54 53 52 51 52 52 52 51 51 52 54 56 60 62 64 64 63 62 63 64 65 64 64 64 63 60 60 60 60 59
63 63 62 62 62 60 61 61 61 59 59 58 55 53 53 53 52 53 54 55 56 53 53 54 55 57 59 61 63 62 62 62 63 64 64 63 62 60 59 59 58 58 57
61 63 62 61 62 59 57 59 60 59 57 56 54 53 54 54 54 54 55 56 56 57 57 56 56 57 58 60 61 61 61 62 62 63 64 63 61 59 58 58 57 56 56
61 60 61 62 61 60 59 59 58 57 57 55 54 52 50 51 54 55 55 56 56 56 57 57 58 58 59 59 59 60 60 61 62 63 63 62 60 59 58 57 55 55 55
62 61 61 61 61 61 58 59 59 58 55 54 54 52 50 49 51 54 55 55 56 56 56 57 57 58 58 58 58 58 58 59 61 62 62 61 59 59 57 56 55 55 54
60 62 61 61 61 60 60 59 58 57 55 54 54 55 55 54 51 50 53 53 54 54 55 55 56 57 57 57 56 55 56 57 59 61 60 60 59 58 57 55 55 54 55
60 60 61 61 60 60 59 59 58 57 57 55 54 54 56 56 55 52 51 51 52 52 53 55 55 56 56 56 55 54 55 56 57 59 60 60 59 58 57 55 54 53 54
59 60 61 61 61 61 60 59 59 58 57 57 57 56 54 53 54 53 52 52 51 52 52 54 55 55 55 54 54 53 54 54 56 57 57 58 59 59 56 54 53 52 52
58 59 60 59 59 60 60 60 59 59 58 58 57 57 57 56 56 55 55 53 53 54 53 52 53 53 54 53 53 54 55 56 56 56 57 58 58 55 54 53 52 52 52
58 59 60 60 60 60 60 60 59 59 59 59 59 59 58 58 58 57 56 55 53 52 52 51 51 52 53 53 53 54 54 55 56 56 56 57 54 53 52 52 51 51 50
52 54 58 58 59 60 60 60 59 58 59 59 59 59 58 58 59 58 58 57 55 51 51 50 50 51 52 52 53 53 53 55 55 56 55 53 51 50 50 50 49 48 47
49 49 51 53 55 57 59 59 59 59 58 58 58 58 58 58 58 58 58 57 57 55 52 52 49 49 51 51 52 51 52 53 53 52 51 49 48 48 48 48 47 46 45
44 46 47 49 50 52 54 56 58 58 58 57 58 57 57 58 58 58 57 57 56 56 53 47 47 48 48 49 48 49 50 50 50 50 49 48 47 47 46 46 45 43 42
41 42 43 44 45 46 47 49 51 54 57 57 57 57 57 57 57 57 57 56 55 55 52 47 45 46 47 48 48 47 47 47 47 48 48 47 46 46 46 45 43 41 40
38 39 40 40 41 42 44 45 46 47 50 51 55 57 56 57 56 56 56 55 54 53 52 48 45 45 45 46 45 45 45 44 44 46 46 46 46 45 45 44 41 39 37
36 37 37 38 39 40 42 43 44 44 44 45 48 51 53 55 56 56 55 55 54 53 52 49 45 45 44 45 45 43 41 42 41 41 43 44 45 45 45 45 41 38 35
32 34 35 36 37 37 39 42 43 43 43 43 44 46 49 51 52 53 55 55 54 53 52 50 44 43 43 42 43 43 42 41 41 39 39 40 41 41 43 43 40 36 34
30 31 30 32 35 36 36 35 40 41 42 43 42 43 45 46 48 49 50 52 54 53 51 49 46 45 43 44 44 42 40 39 38 40 39 38 38 38 39 39 38 36 34
29 28 29 30 33 34 33 33 33 38 40 41 42 41 42 43 44 45 47 48 50 51 52 49 48 47 44 44 43 41 40 39 39 37 38 37 35 36 36 37 38 37 34
27 27 27 29 30 29 31 31 34 34 37 39 40 40 41 42 42 43 44 45 46 48 50 50 49 48 47 44 43 43 41 39 35 35 36 36 32 33 30 31 38 37 33
25 25 27 28 28 28 30 31 31 33 34 34 35 39 40 41 41 43 43 43 43 45 46 48 48 47 45 44 44 41 38 37 35 34 34 34 28 28 27 26 28 33 32
24 25 25 26 28 27 29 30 29 30 32 33 36 35 37 39 42 43 42 42 41 42 42 43 45 45 45 45 43 43 39 38 34 33 33 32 26 26 27 23 24 27 31

GFSMA_sfc_30mbdewp_105.txt.gz
Dewpoint
66 65 65 65 65 65 65 65 65 63 59 57 54 53 53 53 52 52 53 56 60 64 64 64 64 64 64 63 63 63 63 63 62 61 60 59 59 58 58 58 59 59 59
64 65 64 64 64 65 65 65 64 63 61 58 55 53 52 51 51 51 51 52 56 60 63 65 63 63 64 64 64 64 65 65 65 64 62 61 61 61 61 61 61 61 61
64 64 64 64 64 64 65 65 65 64 62 60 58 55 54 53 53 53 52 51 52 55 59 61 63 63 63 63 63 64 64 64 64 64 64 63 63 62 62 62 63 62 61
64 64 63 64 64 64 64 64 63 63 61 60 58 56 55 54 53 53 52 52 51 51 54 58 60 62 63 63 63 63 64 63 64 65 64 64 64 63 63 62 62 60 60
62 63 63 63 64 63 63 63 63 62 61 60 59 58 56 54 52 52 52 52 51 51 52 53 56 58 61 64 63 63 63 63 64 64 65 64 63 63 62 60 60 59 59
62 63 63 63 64 63 62 63 62 61 61 60 59 57 56 56 54 54 53 52 53 53 53 53 54 56 57 60 63 63 63 62 63 64 64 64 64 63 60 60 59 58 57
61 62 62 62 63 61 61 61 62 60 59 59 58 57 57 56 55 54 54 53 53 55 56 55 54 55 57 58 60 63 62 61 62 62 63 64 63 60 59 59 58 56 56
61 61 62 61 61 61 60 58 58 57 59 58 56 55 52 50 54 54 54 54 54 55 56 57 57 57 57 58 60 61 62 62 61 62 64 64 62 60 59 59 57 56 55
61 61 61 62 62 61 60 59 58 56 54 56 57 54 50 48 50 53 54 54 54 56 56 57 58 58 58 59 60 60 60 61 61 61 63 62 61 60 59 58 56 55 54
60 61 61 61 61 61 61 60 59 58 57 54 56 56 55 54 50 47 54 55 55 55 56 57 57 58 58 59 59 59 58 58 60 59 61 61 61 60 59 57 56 55 56
60 61 61 61 61 61 61 60 60 59 59 57 55 54 55 54 55 53 50 53 53 54 56 56 57 57 58 59 58 58 56 57 59 60 59 60 60 59 58 57 56 54 54
59 59 60 61 61 61 60 60 60 60 59 58 57 56 54 52 53 53 53 52 52 54 54 54 56 57 58 58 57 56 55 56 59 59 59 59 60 60 59 57 55 54 53
58 58 59 59 60 60 60 60 60 60 59 58 57 57 56 55 55 54 53 52 53 54 54 54 55 56 57 57 56 54 54 55 56 58 58 58 59 59 59 56 55 53 52
51 52 53 58 59 60 60 60 59 59 59 59 58 58 57 57 57 56 54 54 52 53 54 54 54 54 55 55 54 53 54 54 55 57 57 57 59 57 55 55 54 53 52
49 50 50 51 53 54 56 59 59 59 59 59 59 58 58 58 58 58 57 57 54 50 51 53 52 52 53 54 54 54 54 56 57 57 58 57 55 54 53 53 52 51 50
43 45 46 48 49 50 50 52 55 58 58 59 59 59 59 59 58 59 58 58 57 55 52 54 52 51 52 53 54 54 53 55 55 57 56 53 52 52 52 51 51 50 48
40 40 42 43 44 45 47 47 49 50 52 56 57 57 57 58 57 58 58 57 57 56 53 54 51 49 50 51 51 53 53 54 55 54 53 51 50 50 50 50 49 47 46
34 35 35 36 38 40 43 44 44 45 46 48 50 53 57 57 57 57 57 56 56 56 55 53 48 47 48 50 50 49 49 51 51 52 51 50 49 48 48 48 46 45 43
31 32 33 33 34 36 40 42 43 43 43 44 46 47 49 51 54 56 56 56 56 55 55 53 46 46 45 48 47 47 47 47 48 50 50 49 48 47 47 46 45 43 41
29 29 30 31 33 35 35 38 38 40 41 42 43 44 45 47 49 50 51 55 55 54 53 50 46 45 45 46 47 45 43 44 44 46 47 47 47 47 46 46 44 42 39
29 28 28 28 31 33 33 34 34 36 37 39 41 42 43 44 44 46 48 49 52 53 52 50 46 44 44 44 44 44 44 42 42 41 43 45 46 46 46 46 44 41 38
28 27 27 28 29 28 31 31 32 33 33 36 38 40 41 42 43 44 45 45 47 48 51 50 48 46 46 46 46 44 43 40 39 41 41 41 43 43 43 44 44 40 38
25 25 25 26 28 29 29 30 30 32 33 33 34 36 38 39 41 42 43 44 45 46 48 50 49 47 47 46 45 43 42 42 43 40 41 39 39 39 39 40 42 40 39
23 24 25 26 27 27 29 29 29 31 32 33 34 34 34 35 38 40 41 42 43 44 46 48 49 51 49 47 47 45 44 42 38 39 41 38 35 37 36 37 41 40 38
23 23 24 25 26 27 29 29 29 30 30 30 30 31 32 34 33 35 38 41 41 42 44 46 47 50 50 48 47 45 41 39 36 35 37 36 32 32 31 31 35 40 38
22 23 23 24 26 27 28 29 29 28 27 28 28 29 30 33 35 35 37 38 38 40 42 42 44 46 48 47 46 45 41 40 35 33 35 35 31 30 31 27 29 34 36

GFSMA_sfc_30mbdewp_108.txt.gz
Dewpoint
64 64 64 64 65 65 65 64 62 60 57 55 53 53 54 53 52 52 52 59 61 63 64 63 63 63 63 63 63 63 63 63 62 61 60 59 58 58 58 58 59 59 60
65 65 65 65 64 65 65 64 64 63 59 52 49 50 51 51 51 51 51 52 55 59 62 64 65 64 64 64 64 64 64 64 64 64 63 62 61 60 60 60 61 61 61
63 64 64 64 65 65 65 65 65 64 62 58 52 48 48 48 48 48 50 50 52 54 58 61 62 64 64 64 64 64 65 65 65 64 64 64 63 62 61 61 62 62 61
63 62 61 62 63 63 63 63 63 64 63 63 59 56 54 51 49 49 50 51 52 52 54 57 61 62 64 63 63 63 64 64 64 65 65 65 65 64 63 62 62 61 60
60 60 60 60 61 62 63 63 63 63 62 62 61 60 58 54 51 50 50 51 52 52 52 52 56 59 61 64 64 64 63 64 64 64 65 65 65 64 64 62 61 60 59
60 60 60 60 60 62 62 63 62 63 62 62 61 60 59 58 55 52 49 49 51 52 52 52 52 54 56 59 62 63 63 64 64 64 64 64 64 63 63 61 60 59 58
61 60 60 60 61 61 61 62 62 61 61 62 60 58 59 59 57 57 54 50 51 52 52 53 53 54 54 56 59 62 62 63 63 63 64 64 64 63 63 60 59 58 56
60 59 59 60 61 62 61 60 60 60 59 60 57 55 52 52 55 55 54 54 53 54 53 53 54 55 56 56 58 60 62 62 62 61 62 63 64 63 61 60 59 57 57
60 60 59 60 60 61 60 60 59 59 56 57 59 54 52 49 48 50 54 54 52 53 53 54 55 56 56 57 58 59 61 62 62 61 61 62 64 63 61 59 59 57 56
60 60 61 60 60 60 60 60 60 59 57 54 57 57 54 53 50 46 46 50 50 50 52 54 55 56 57 58 59 60 60 61 62 61 59 61 62 62 61 60 59 57 56
59 59 60 60 60 60 60 60 60 60 59 57 55 55 56 54 53 52 50 53 54 54 54 54 55 57 58 59 60 60 59 60 60 59 58 59 61 61 61 60 58 57 55
58 58 59 59 59 60 60 60 60 60 60 59 58 57 54 52 52 51 50 50 51 53 55 55 56 57 59 59 60 60 59 59 60 59 58 58 59 61 60 60 58 57 56
52 52 53 56 59 59 59 59 60 59 59 59 59 58 58 56 55 53 51 50 50 51 53 55 55 57 58 59 59 58 58 58 58 58 58 57 60 61 61 60 59 57 56
48 48 49 51 52 53 54 55 57 59 59 60 59 59 58 58 57 55 53 53 52 52 53 53 56 56 57 58 58 57 57 56 56 57 59 58 58 60 60 60 60 57 55
43 44 45 47 48 49 49 50 53 54 58 59 59 59 59 58 58 57 56 56 54 51 52 52 54 55 56 57 56 56 56 56 55 55 57 58 59 59 59 59 57 56 54
39 40 41 42 42 44 46 47 48 49 50 51 54 57 58 58 58 58 58 57 56 54 52 52 54 54 54 55 55 55 56 55 54 54 55 57 57 57 56 56 55 54 52
34 33 35 35 37 39 43 43 44 45 46 46 48 49 50 54 58 58 58 57 57 57 54 54 55 55 53 54 54 54 55 55 55 56 57 56 55 55 54 54 53 52 51
26 26 25 26 27 29 32 37 39 41 42 43 44 46 47 49 50 54 57 57 56 57 55 54 54 52 51 52 53 52 53 54 55 56 56 55 54 53 53 52 51 50 49
23 22 23 23 25 27 28 30 30 32 34 36 39 41 43 45 47 48 48 49 54 56 55 54 53 48 49 49 49 50 50 50 53 53 54 53 52 51 51 50 50 48 47
22 21 21 21 23 25 26 29 29 30 30 33 36 38 39 41 41 42 45 47 48 49 54 54 52 47 46 46 48 46 45 46 47 50 51 51 51 50 49 49 47 46 44
20 21 20 19 20 21 21 29 28 27 28 28 28 31 36 39 40 42 42 43 44 46 47 50 48 46 45 45 45 46 45 45 44 45 47 48 48 48 48 48 46 44 42
18 18 18 19 21 20 25 29 29 26 25 25 25 28 30 33 35 37 39 42 43 43 44 45 48 47 47 47 46 45 45 41 40 42 44 44 47 46 46 47 46 44 42
17 18 17 18 18 20 24 28 29 26 26 26 27 28 27 28 33 33 35 37 39 41 43 44 44 46 48 48 47 45 45 43 44 42 44 42 44 44 45 45 46 44 42
19 19 20 20 20 21 25 28 29 27 27 27 26 26 25 25 26 32 31 32 34 36 39 41 44 46 48 50 48 46 45 44 42 42 44 41 40 41 43 42 45 44 42
20 20 20 21 22 22 25 28 29 26 26 25 24 24 25 25 27 30 30 33 32 33 35 39 41 43 45 46 49 48 45 42 37 37 42 39 35 36 37 38 42 43 42
21 21 22 22 22 23 25 27 28 25 23 23 23 23 23 24 27 28 28 26 28 29 33 36 38 39 41 45 47 48 45 42 41 36 38 39 33 34 34 32 36 41 42

GFSMA_sfc_30mbdewp_111.txt.gz
Dewpoint
61 62 61 62 64 65 66 66 66 64 60 57 55 53 52 52 52 52 52 59 60 62 64 64 64 63 63 63 63 62 62 62 61 61 60 59 59 58 58 58 59 59 60
63 64 64 64 64 66 66 65 64 64 62 58 55 53 51 51 51 50 51 56 59 60 62 63 64 63 63 63 63 64 64 64 64 63 63 62 61 60 60 60 60 61 61
62 63 64 64 64 65 65 65 65 65 64 63 58 50 48 48 49 49 50 51 54 55 58 61 62 63 65 64 64 64 65 66 65 65 65 64 63 63 62 61 61 62 62
61 62 62 62 63 63 63 63 63 64 64 64 63 58 52 49 47 46 47 48 50 51 55 57 60 62 62 64 64 63 64 64 65 65 64 65 65 65 63 62 62 62 61
62 61 61 61 61 61 61 62 63 63 62 63 62 60 57 54 52 50 48 49 50 51 52 55 56 58 61 63 63 63 63 64 64 65 65 65 66 66 64 64 62 62 60
61 61 62 62 61 60 61 62 62 63 62 61 62 61 61 59 57 55 52 49 49 51 53 53 56 56 57 60 61 61 63 64 64 65 65 65 65 65 64 64 63 60 59
59 61 60 60 61 60 60 60 60 61 61 62 61 61 61 61 59 57 57 54 50 49 52 53 53 54 54 56 58 60 61 62 64 64 65 65 65 64 64 63 62 60 59
60 60 59 60 60 61 60 60 61 60 60 62 58 58 55 56 58 57 58 57 55 51 52 53 52 53 54 56 57 58 60 60 62 63 64 64 64 64 64 63 61 60 59
61 60 60 60 60 61 60 61 60 60 59 59 60 57 53 50 51 53 55 55 54 54 53 53 53 53 55 56 57 58 58 60 62 62 63 63 64 63 64 63 61 60 58
59 60 60 60 60 60 61 60 61 61 59 58 58 59 57 55 49 48 49 52 52 51 51 52 53 53 54 56 57 58 58 59 61 61 61 62 61 62 62 62 61 61 58
59 59 60 60 60 60 60 60 60 60 60 59 58 56 57 57 56 53 50 50 54 54 53 50 52 54 55 56 58 59 59 60 61 62 62 61 60 60 60 62 61 60 58
54 53 54 57 59 59 60 59 60 59 59 60 59 58 56 54 54 53 51 50 49 50 55 54 54 54 56 57 59 60 60 60 62 62 62 61 59 60 60 62 61 61 59
50 49 51 52 53 53 54 55 57 59 59 59 58 58 58 56 55 54 52 51 49 49 49 53 55 55 57 59 60 60 59 59 61 61 61 60 60 59 61 61 62 62 59
45 46 47 48 48 48 50 51 54 54 53 57 59 59 58 58 58 57 56 54 52 51 51 50 50 54 56 59 59 59 59 59 59 60 60 60 60 59 59 60 61 62 60
39 41 42 42 43 44 46 47 49 48 49 51 52 51 54 58 59 59 58 57 54 51 51 52 52 56 56 58 59 58 58 57 58 59 59 59 59 58 59 60 60 60 61
35 35 35 36 37 39 42 44 45 45 46 47 48 47 48 50 51 53 57 57 57 55 52 55 55 56 57 57 58 57 57 57 56 57 57 57 57 57 58 59 60 60 59
28 29 28 29 29 31 34 36 36 38 40 41 43 44 45 47 48 50 50 52 56 56 54 54 54 56 55 55 55 56 56 56 56 56 57 57 56 56 57 59 59 58 56
21 21 22 22 23 24 28 29 31 31 33 34 36 38 41 44 46 47 46 47 48 49 52 53 54 54 54 54 55 54 54 55 56 56 55 55 55 55 56 57 56 55 54
20 18 18 18 20 21 23 25 26 26 28 29 31 34 37 39 40 40 42 45 46 47 47 48 52 54 53 51 52 53 53 53 54 54 55 55 55 55 56 55 54 53 52
16 17 17 17 17 18 18 23 24 24 25 26 27 28 30 34 35 38 39 41 42 43 45 46 47 49 48 48 49 48 47 47 49 50 53 55 55 54 54 53 52 51 49
16 16 16 16 17 18 16 26 26 25 23 23 25 24 27 31 33 38 36 38 39 39 41 42 44 46 45 45 46 47 47 46 45 47 49 50 51 51 51 51 50 49 48
16 16 16 17 17 16 20 25 28 27 24 24 25 27 27 27 28 30 32 35 35 35 37 38 40 41 44 47 47 46 46 43 42 44 47 47 49 48 49 49 49 47 46
17 18 18 19 19 19 21 25 28 28 25 26 27 28 26 24 27 27 29 32 32 33 34 35 37 39 43 45 47 46 45 44 44 44 46 45 46 46 47 47 48 46 45
18 19 20 20 20 21 22 25 28 28 27 27 27 26 25 24 25 29 29 29 29 29 31 32 33 35 39 41 42 43 46 46 44 43 46 44 43 45 45 46 48 46 45
20 21 21 21 22 22 23 25 28 28 27 24 23 22 23 23 23 27 27 27 27 27 28 29 31 33 35 38 39 42 41 43 42 40 43 44 39 41 41 42 46 46 45
21 21 22 22 21 21 22 24 27 26 23 22 22 21 22 22 25 26 26 24 24 24 26 28 28 30 32 34 38 39 42 41 43 39 39 41 36 36 36 36 40 45 45

GFSMA_sfc_30mbdewp_114.txt.gz
Dewpoint
61 61 61 62 65 66 66 67 66 66 64 61 59 55 55 57 56 55 59 60 62 63 63 64 64 64 63 63 63 62 62 62 61 61 61 60 59 59 58 58 59 59 60
63 63 63 64 65 65 66 66 66 66 64 63 59 57 54 52 53 53 54 59 59 61 63 63 64 64 64 63 63 63 63 63 63 63 63 62 62 61 60 60 60 60 61
63 63 63 63 64 65 66 66 66 65 64 63 59 57 54 52 50 51 51 56 59 59 60 61 62 63 64 65 64 64 64 65 65 65 64 64 64 63 62 61 61 61 62
61 62 63 63 64 64 65 64 65 64 64 63 61 60 57 55 49 48 49 49 55 56 58 60 62 62 62 63 64 64 65 65 65 65 65 65 65 65 64 63 62 62 62
61 61 62 62 62 62 62 62 63 63 63 63 63 62 60 55 52 50 49 49 49 52 54 55 57 59 62 63 62 63 64 64 65 64 64 65 65 66 66 65 64 62 63
62 62 61 61 61 60 59 61 61 60 61 62 61 62 61 59 56 54 53 51 49 50 52 54 56 57 58 60 62 61 62 65 65 64 65 65 65 66 65 65 64 63 62
61 61 61 60 57 57 56 58 60 60 61 62 60 60 61 61 61 60 57 55 53 50 50 52 54 55 55 58 59 61 62 62 65 65 66 66 66 65 64 64 64 64 62
61 61 61 60 60 60 60 60 59 60 60 61 59 58 55 57 60 60 60 58 56 55 53 52 53 54 54 56 57 59 60 61 61 64 65 66 65 64 64 63 64 64 61
61 61 60 60 60 60 61 60 60 60 59 59 60 57 55 52 53 57 58 58 57 56 56 54 53 53 53 54 57 57 58 60 61 62 64 65 65 64 63 62 63 63 61
60 62 61 60 60 60 59 60 60 60 59 58 60 60 58 56 52 49 52 56 56 56 55 55 54 53 52 53 55 57 57 58 60 60 61 63 64 63 63 62 62 63 62
57 58 58 60 60 60 59 59 59 59 60 59 58 57 59 58 57 55 52 51 52 53 53 53 53 52 52 53 55 57 58 58 60 61 61 61 62 62 62 62 61 62 62
52 53 55 55 55 55 55 57 58 59 59 59 59 58 57 56 55 55 54 53 52 52 52 54 54 53 54 54 56 57 57 58 61 62 62 62 63 62 62 61 62 63 62
46 47 49 49 49 50 51 51 54 54 53 55 57 58 58 58 57 56 54 53 52 52 51 50 51 54 54 57 58 57 58 59 61 62 62 61 63 62 62 61 61 61 62
42 43 42 43 44 46 47 49 50 49 49 50 51 51 52 55 57 58 56 54 52 53 53 52 51 52 56 57 59 58 59 59 60 61 62 62 61 62 61 60 60 61 61
35 36 36 37 38 41 43 45 46 45 47 47 48 47 48 49 49 51 52 52 54 51 52 53 52 53 52 56 59 59 59 59 59 60 61 61 61 60 60 59 59 60 60
30 30 30 32 31 34 37 39 39 41 40 42 44 44 45 46 47 49 50 49 49 48 51 54 55 55 56 56 59 59 59 59 58 58 59 59 60 59 59 58 58 59 59
23 24 25 26 27 28 32 34 33 34 34 35 37 38 40 43 44 46 44 45 46 47 46 47 50 56 57 57 57 58 58 58 57 57 58 58 58 58 57 57 57 58 59
20 18 18 19 20 22 24 26 27 28 30 32 34 35 35 38 41 40 41 43 44 45 45 44 46 48 53 56 56 56 56 56 56 56 56 56 56 56 56 56 56 57 59
17 18 18 18 18 19 19 24 25 26 26 26 28 30 31 34 36 34 40 38 41 41 43 43 43 46 49 51 52 53 54 54 55 55 56 56 56 56 56 55 55 57 58
17 17 17 18 18 19 20 26 27 28 26 25 26 27 28 30 31 32 37 37 38 37 38 39 40 43 46 48 48 48 49 49 51 51 52 53 54 55 55 55 55 56 56
17 17 18 19 20 19 18 24 27 28 28 26 26 27 28 29 30 30 29 34 35 35 35 35 36 37 39 42 44 47 46 48 47 47 48 50 52 53 54 54 55 54 52
18 19 20 20 20 20 22 24 26 28 28 27 27 28 29 28 28 26 29 32 32 32 33 33 33 34 36 40 42 42 43 44 43 45 46 47 50 50 52 53 52 51 51
19 20 21 21 21 22 23 25 26 28 29 28 28 28 28 26 28 29 29 28 29 28 29 30 31 31 32 33 36 37 38 40 42 45 45 45 47 47 49 50 50 50 49
21 21 22 22 22 23 24 25 26 29 28 28 28 26 26 25 25 25 27 27 28 27 28 28 29 30 31 32 34 35 37 37 40 43 45 43 44 45 46 48 49 49 48
22 22 22 22 23 23 24 24 25 28 28 26 24 23 24 24 25 25 26 26 25 24 25 25 26 27 28 29 30 32 34 35 35 39 43 43 41 43 42 44 47 48 47
22 23 22 23 23 22 24 22 24 27 27 26 25 25 25 24 23 25 26 26 27 26 26 27 26 26 27 27 30 32 34 35 35 35 39 41 39 39 40 38 42 47 46

GFSMA_sfc_30mbdewp_117.txt.gz
Dewpoint
63 62 62 64 66 66 66 66 66 65 65 63 62 59 61 61 59 58 58 63 63 64 63 63 64 64 63 63 63 63 62 62 61 61 61 60 59 59 59 59 59 59 59
63 63 62 63 64 66 66 66 66 66 65 64 62 60 56 58 59 57 57 61 62 63 64 64 63 64 64 64 63 63 63 63 63 62 62 62 62 61 60 60 60 60 60
63 63 63 63 64 65 66 66 66 66 65 65 64 61 59 54 54 54 54 58 60 61 62 64 63 64 65 64 64 63 64 65 64 64 64 64 64 64 63 62 61 61 61
62 63 63 63 64 64 65 65 65 65 65 64 63 60 58 57 54 51 51 55 58 59 60 62 63 63 64 64 64 64 65 66 66 66 66 66 65 65 65 64 63 62 62
61 61 62 63 62 62 63 63 63 63 62 63 64 63 63 62 58 55 51 49 52 56 57 59 60 62 63 64 62 63 64 66 66 66 66 66 66 65 65 65 65 64 63
62 61 61 61 62 61 61 61 61 62 61 61 61 62 63 62 61 57 53 52 51 50 53 54 56 59 60 62 63 62 63 65 66 66 66 66 65 66 65 65 65 65 64
61 61 61 61 61 60 59 59 59 58 58 59 59 59 60 62 61 59 58 55 54 52 51 52 54 55 55 59 61 62 63 63 65 66 66 65 65 66 65 64 64 65 64
59 61 61 60 60 57 57 57 58 59 59 61 57 57 54 57 60 60 60 60 58 57 54 51 52 53 54 55 57 60 61 62 63 65 66 66 66 66 65 64 63 64 65
57 58 60 60 59 58 57 59 59 59 57 59 60 55 55 53 55 58 59 59 59 59 58 56 54 53 54 54 55 56 58 60 61 62 64 66 66 66 65 64 63 63 65
55 55 58 60 60 60 58 59 60 59 59 57 59 59 58 55 52 51 54 57 58 58 57 57 56 55 53 54 55 55 55 57 59 61 61 64 66 65 64 63 63 62 64
50 50 52 58 60 60 60 59 59 59 59 59 58 57 57 58 58 56 53 53 53 55 57 57 56 56 55 54 53 54 56 57 58 60 61 62 63 64 64 63 63 62 64
47 46 48 51 52 54 54 55 57 55 55 58 58 58 57 56 55 55 54 54 54 54 54 54 54 54 54 54 53 53 53 56 58 60 61 62 62 64 64 63 63 64 63
41 42 44 46 48 49 51 52 51 50 51 51 51 52 53 54 55 56 55 54 53 53 53 53 53 53 53 54 54 54 54 56 58 60 61 61 62 64 63 64 64 64 63
38 40 41 41 43 44 45 48 46 47 48 48 46 47 48 49 49 50 50 50 51 53 53 53 53 52 52 52 53 56 56 56 57 58 60 61 62 63 63 64 64 63 63
31 33 34 34 36 37 39 39 42 40 43 45 44 44 44 45 46 48 49 47 47 46 49 54 54 55 54 53 56 57 57 58 58 59 60 60 60 60 61 61 61 61 59
27 26 27 28 29 31 35 35 36 36 36 38 39 39 42 44 44 45 42 43 45 45 43 47 49 49 50 54 56 57 58 58 58 59 59 59 59 60 60 60 60 59 59
21 21 21 22 22 23 29 29 29 30 32 34 35 36 36 37 43 38 39 43 42 43 41 42 45 47 48 47 51 55 59 59 59 58 58 58 58 59 59 59 59 59 59
18 18 19 19 19 20 24 25 26 28 27 27 28 31 31 34 37 35 37 38 39 40 39 38 40 42 44 48 49 50 53 57 58 58 57 58 57 58 58 58 58 57 57
17 17 18 18 19 20 25 26 28 28 29 28 28 29 29 31 30 31 36 36 37 36 37 37 37 40 43 45 47 49 49 50 53 54 55 56 57 57 57 57 56 56 56
18 18 19 20 21 20 23 26 27 28 28 28 28 29 29 29 29 32 30 33 36 36 36 35 35 36 37 39 42 44 43 46 47 49 51 52 54 55 55 56 56 55 55
19 19 20 21 21 20 21 25 27 28 28 27 28 29 28 30 31 27 29 33 32 31 32 33 32 33 33 36 35 37 38 39 42 47 47 48 50 51 52 53 53 54 54
20 20 21 22 22 21 24 26 27 27 28 28 28 28 29 30 28 27 31 30 28 28 29 30 30 30 31 31 33 34 35 35 36 44 43 44 48 48 50 52 53 53 53
21 21 22 22 22 23 26 26 27 28 28 28 28 28 28 26 28 27 29 28 28 26 26 27 27 27 28 29 31 31 31 33 33 36 37 38 43 45 49 50 51 52 53
21 22 22 22 22 22 25 25 26 27 28 28 28 26 25 25 25 27 27 27 27 27 27 27 26 27 29 29 29 29 30 31 33 34 36 37 42 43 46 47 49 50 50
21 21 22 22 22 23 26 25 24 26 27 27 27 25 26 25 26 26 25 26 26 26 28 28 29 29 27 27 28 29 29 30 28 29 34 36 39 41 42 44 46 49 49
21 22 22 22 24 21 24 23 24 25 26 26 26 26 27 26 26 26 26 27 27 27 28 28 28 25 27 27 28 30 31 30 30 27 33 34 37 38 38 40 41 46 48